[[{"header":{"parameterUnit":"m.s-1","parameterCategory":1,"la1":30.6,"la2":28.766,"lo1":-90.7593,"lo2":-88.6598,"dy":0.0162,"dx":0.0183,"nx":116,"ny":114,"refTime":"2023-09-28T00:00:00:Z","depth":0,"parameterNumber":2,"parameterNumberName":"U-component_of_WINDS"},"data":[0.0,0.0,0.0,0.0,0.0,0.0,0.0,0.0,0.0,0.0,0.0,0.0,0.0,0.0,0.0,0.0,0.0,0.0,0.0,0.0,0.0,0.0,0.0,0.0,0.0,0.0,0.0,0.0,0.0,0.0,0.0,0.0,0.0,0.0,0.0,0.0,0.0,0.0,0.0,0.0,0.0,0.0,0.0,0.0,0.0,0.0,0.0,0.0,0.0,0.0,0.0,0.0,0.0,0.0,0.0,0.0,0.0,0.0,0.0,0.0,0.0,0.0,0.0,0.0,0.0,0.0,0.0,0.0,0.0,0.0,0.0,0.0,0.0,0.0,0.0,0.0,0.0,0.0,0.0,0.0,0.0,0.0,0.0,0.0,0.0,0.0,0.0,0.0,0.0,0.0,0.0,0.0,0.0,0.0,0.0,0.0,0.0,0.0,0.0,0.0,0.0,0.0,0.0,0.0,0.0,0.0,0.0,0.0,0.0,0.0,0.0,0.0,0.0,0.0,0.0,0.0,0.0,0.0,0.0,0.0,0.0,0.0,0.0,0.0,0.0,0.0,0.0,0.0,0.0,0.0,0.0,0.0,0.0,0.0,0.0,0.0,0.0,0.0,0.0,0.0,0.0,0.0,0.0,0.0,0.0,0.0,0.0,0.0,0.0,0.0,0.0,0.0,0.0,0.0,0.0,0.0,0.0,0.0,0.0,0.0,0.0,0.0,0.0,0.0,0.0,0.0,0.0,0.0,0.0,0.0,0.0,0.0,0.0,0.0,0.0,0.0,0.0,0.0,0.0,0.0,0.0,0.0,0.0,0.0,0.0,0.0,0.0,0.0,0.0,0.0,0.0,0.0,0.0,0.0,0.0,0.0,0.0,0.0,0.0,0.0,0.0,0.0,0.0,0.0,0.0,0.0,0.0,0.0,0.0,0.0,0.0,0.0,0.0,0.0,0.0,0.0,0.0,0.0,0.0,0.0,0.0,0.0,0.0,0.0,0.0,0.0,0.0,0.0,0.0,0.0,0.0,0.0,0.0,0.0,0.0,0.0,0.0,0.0,0.0,0.0,0.0,0.0,0.0,0.0,0.0,0.0,0.0,0.0,0.0,0.0,0.0,0.0,0.0,0.0,0.0,0.0,0.0,0.0,0.0,0.0,0.0,0.0,0.0,0.0,0.0,0.0,0.0,0.0,0.0,0.0,0.0,0.0,0.0,0.0,0.0,0.0,0.0,0.0,0.0,0.0,0.0,0.0,0.0,0.0,0.0,0.0,0.0,0.0,0.0,0.0,0.0,0.0,0.0,0.0,0.0,0.0,0.0,0.0,0.0,0.0,0.0,0.0,0.0,0.0,0.0,0.0,0.0,0.0,0.0,0.0,0.0,0.0,0.0,0.0,0.0,0.0,0.0,0.0,0.0,0.0,0.0,0.0,0.0,0.0,0.0,0.0,0.0,0.0,0.0,0.0,0.0,0.0,0.0,0.0,0.0,0.0,0.0,0.0,0.0,0.0,0.0,0.0,0.0,0.0,0.0,0.0,0.0,0.0,0.0,0.0,0.0,0.0,0.0,0.0,0.0,0.0,0.0,0.0,0.0,0.0,0.0,0.0,0.0,0.0,0.0,0.0,0.0,0.0,0.0,0.0,0.0,0.0,0.0,0.0,0.0,0.0,0.0,0.0,0.0,0.0,0.0,0.0,0.0,0.0,0.0,0.0,0.0,0.0,0.0,0.0,0.0,0.0,0.0,0.0,0.0,0.0,0.0,0.0,0.0,0.0,0.0,0.0,0.0,0.0,0.0,0.0,0.0,0.0,0.0,0.0,0.0,0.0,0.0,0.0,0.0,0.0,0.0,0.0,0.0,0.0,0.0,0.0,0.0,0.0,0.0,0.0,0.0,0.0,0.0,0.0,0.0,0.0,0.0,0.0,0.0,0.0,0.0,0.0,0.0,0.0,0.0,0.0,0.0,0.0,0.0,0.0,0.0,0.0,0.0,0.0,0.0,0.0,0.0,0.0,0.0,0.0,0.0,0.0,0.0,0.0,0.0,0.0,0.0,0.0,0.0,0.0,0.0,0.0,0.0,0.0,0.0,0.0,0.0,0.0,0.0,0.0,0.0,0.0,0.0,0.0,0.0,0.0,0.0,0.0,0.0,0.0,0.0,0.0,0.0,0.0,0.0,0.0,0.0,0.0,0.0,0.0,0.0,0.0,0.0,0.0,0.0,0.0,0.0,0.0,0.0,0.0,0.0,0.0,0.0,0.0,0.0,0.0,0.0,0.0,0.0,0.0,0.0,0.0,0.0,0.0,0.0,0.0,0.0,0.0,0.0,0.0,0.0,0.0,0.0,0.0,0.0,0.0,0.0,0.0,0.0,0.0,0.0,0.0,0.0,0.0,0.0,0.0,0.0,0.0,0.0,0.0,0.0,0.0,0.0,0.0,0.0,0.0,0.0,0.0,0.0,0.0,0.0,0.0,0.0,0.0,0.0,0.0,0.0,0.0,0.0,0.0,0.0,0.0,0.0,0.0,0.0,0.0,0.0,0.0,0.0,0.0,0.0,0.0,0.0,0.0,0.0,0.0,0.0,0.0,0.0,0.0,0.0,0.0,0.0,0.0,0.0,0.0,0.0,0.0,0.0,0.0,0.0,0.0,0.0,0.0,0.0,0.0,0.0,0.0,0.0,0.0,0.0,0.0,0.0,0.0,0.0,0.0,0.0,0.0,0.0,0.0,0.0,0.0,0.0,0.0,0.0,0.0,0.0,0.0,0.0,0.0,0.0,0.0,0.0,0.0,0.0,0.0,0.0,0.0,0.0,0.0,0.0,0.0,0.0,0.0,0.0,0.0,0.0,0.0,0.0,0.0,0.0,0.0,0.0,0.0,0.0,0.0,0.0,0.0,0.0,0.0,0.0,0.0,0.0,0.0,0.0,0.0,0.0,0.0,0.0,0.0,0.0,0.0,0.0,0.0,0.0,0.0,0.0,0.0,0.0,0.0,0.0,0.0,0.0,0.0,0.0,0.0,0.0,0.0,0.0,0.0,0.0,0.0,0.0,0.0,0.0,0.0,0.0,0.0,0.0,0.0,0.0,0.0,0.0,0.0,0.0,0.0,0.0,0.0,0.0,0.0,0.0,0.0,0.0,0.0,0.0,0.0,0.0,0.0,0.0,0.0,0.0,0.0,0.0,0.0,0.0,0.0,0.0,0.0,0.0,0.0,0.0,0.0,0.0,0.0,0.0,0.0,0.0,0.0,0.0,0.0,0.0,0.0,0.0,0.0,0.0,0.0,0.0,0.0,0.0,0.0,0.0,0.0,0.0,0.0,0.0,0.0,0.0,0.0,0.0,0.0,0.0,0.0,0.0,0.0,0.0,0.0,0.0,0.0,0.0,0.0,0.0,0.0,0.0,0.0,0.0,0.0,0.0,0.0,0.0,0.0,0.0,0.0,0.0,0.0,0.0,0.0,0.0,0.0,0.0,0.0,0.0,0.0,0.0,0.0,0.0,0.0,0.0,0.0,0.0,0.0,0.0,0.0,0.0,0.0,0.0,0.0,0.0,0.0,0.0,0.0,0.0,0.0,0.0,0.0,0.0,0.0,0.0,0.0,0.0,0.0,0.0,0.0,0.0,0.0,0.0,0.0,0.0,0.0,0.0,0.0,0.0,0.0,0.0,0.0,0.0,0.0,0.0,0.0,0.0,0.0,0.0,0.0,0.0,0.0,0.0,0.0,0.0,0.0,0.0,0.0,0.0,0.0,0.0,0.0,0.0,0.0,0.0,0.0,0.0,0.0,0.0,0.0,0.0,0.0,0.0,0.0,0.0,0.0,0.0,0.0,0.0,0.0,0.0,0.0,0.0,0.0,0.0,0.0,0.0,0.0,0.0,0.0,0.0,0.0,0.0,0.0,0.0,0.0,0.0,0.0,0.0,0.0,0.0,0.0,0.0,0.0,0.0,0.0,0.0,0.0,0.0,0.0,0.0,0.0,0.0,0.0,0.0,0.0,0.0,0.0,0.0,0.0,0.0,0.0,0.0,0.0,0.0,0.0,0.0,0.0,0.0,0.0,0.0,0.0,0.0,0.0,0.0,0.0,0.0,0.0,0.0,0.0,0.0,0.0,0.0,0.0,0.0,0.0,0.0,0.0,0.0,0.0,0.0,0.0,0.0,0.0,0.0,0.0,0.0,0.0,0.0,0.0,0.0,0.0,0.0,0.0,0.0,0.0,0.0,0.0,0.0,0.0,0.0,0.0,0.0,0.0,0.0,0.0,0.0,0.0,0.0,0.0,0.0,0.0,0.0,0.0,0.0,0.0,0.0,0.0,0.0,0.0,0.0,0.0,0.0,0.0,0.0,0.0,0.0,0.0,0.0,0.0,0.0,0.0,0.0,0.0,0.0,0.0,0.0,0.0,0.0,0.0,0.0,0.0,0.0,0.0,0.0,0.0,0.0,0.0,0.0,0.0,0.0,0.0,0.0,0.0,0.0,0.0,0.0,0.0,0.0,0.0,0.0,0.0,0.0,0.0,0.0,0.0,0.0,0.0,0.0,0.0,0.0,0.0,0.0,0.0,0.0,0.0,0.0,0.0,0.0,0.0,0.0,0.0,0.0,0.0,0.0,0.0,0.0,0.0,0.0,0.0,0.0,0.0,0.0,0.0,0.0,0.0,0.0,0.0,0.0,0.0,0.0,0.0,0.0,0.0,0.0,0.0,0.0,0.0,0.0,0.0,0.0,0.0,0.0,0.0,0.0,0.0,0.0,0.0,0.0,0.0,0.0,0.0,0.0,0.0,0.0,0.0,0.0,0.0,0.0,0.0,0.0,0.0,0.0,0.0,0.0,0.0,0.0,0.0,0.0,0.0,0.0,0.0,0.0,0.0,0.0,0.0,0.0,0.0,0.0,0.0,0.0,0.0,0.0,0.0,0.0,0.0,0.0,0.0,0.0,0.0,0.0,0.0,0.0,0.0,0.0,0.0,0.0,0.0,0.0,0.0,0.0,0.0,0.0,0.0,0.0,0.0,0.0,0.0,0.0,0.0,0.0,0.0,0.0,0.0,0.0,0.0,0.0,0.0,0.0,0.0,0.0,0.0,0.0,0.0,0.0,0.0,0.0,0.0,0.0,0.0,0.0,0.0,0.0,0.0,0.0,0.0,0.0,0.0,0.0,0.0,0.0,0.0,0.0,0.0,0.0,0.0,0.0,0.0,0.0,0.0,0.0,0.0,0.0,0.0,0.0,0.0,0.0,0.0,0.0,0.0,0.0,0.0,0.0,0.0,0.0,0.0,0.0,0.0,0.0,0.0,0.0,0.0,0.0,0.0,0.0,0.0,0.0,0.0,0.0,0.0,0.0,0.0,0.0,0.0,0.0,0.0,0.0,0.0,0.0,0.0,0.0,0.0,0.0,0.0,0.0,0.0,0.0,0.0,0.0,0.0,0.0,0.0,0.0,0.0,0.0,0.0,0.0,0.0,0.0,0.0,0.0,0.0,0.0,0.0,0.0,0.0,0.0,0.0,0.0,0.0,0.0,0.0,0.0,0.0,0.0,0.0,0.0,0.0,0.0,0.0,0.0,0.0,0.0,0.0,0.0,0.0,0.0,0.0,0.0,0.0,0.0,0.0,0.0,0.0,0.0,0.0,0.0,0.0,0.0,0.0,0.0,0.0,0.0,0.0,0.0,0.0,0.0,0.0,0.0,0.0,0.0,0.0,0.0,0.0,0.0,0.0,0.0,0.0,0.0,0.0,0.0,0.0,0.0,0.0,0.0,0.0,0.0,0.0,0.0,0.0,0.0,0.0,0.0,0.0,0.0,0.0,0.0,0.0,0.0,0.0,0.0,0.0,0.0,0.0,0.0,0.0,0.0,0.0,0.0,0.0,0.0,0.0,0.0,0.0,0.0,0.0,0.0,0.0,0.0,0.0,0.0,0.0,0.0,0.0,0.0,0.0,0.0,0.0,0.0,0.0,0.0,0.0,0.0,0.0,0.0,0.0,0.0,0.0,0.0,0.0,0.0,0.0,0.0,0.0,0.0,0.0,0.0,0.0,0.0,0.0,0.0,0.0,0.0,0.0,0.0,0.0,0.0,0.0,0.0,0.0,0.0,0.0,1.8764,0.0,0.0,0.0,0.0,0.0,0.0,0.0,0.0,0.0,0.0,0.0,0.0,0.0,0.0,0.0,0.0,0.0,0.0,0.0,0.0,0.0,0.0,0.0,0.0,0.0,0.0,0.0,0.0,0.0,0.0,0.0,0.0,0.0,0.0,0.0,0.0,0.0,0.0,1.4885,1.5427,1.6206,1.7207,1.7016,1.6762,1.6464,0.0,0.0,0.0,0.0,0.0,0.0,0.0,0.0,0.0,0.0,0.0,0.0,0.0,0.0,0.0,0.0,0.0,0.0,0.0,0.0,0.0,0.0,0.0,0.0,0.0,0.0,0.0,0.0,0.0,0.0,0.0,0.0,0.0,0.0,0.0,0.0,0.0,0.0,0.0,0.0,0.0,0.0,0.0,0.0,0.0,0.0,0.0,0.0,0.0,0.0,0.0,0.0,0.0,0.0,0.0,0.0,0.0,0.0,0.0,0.0,0.0,0.0,0.0,0.0,0.0,0.0,0.0,0.0,0.0,0.0,0.0,1.9089,0.0,0.0,0.0,0.0,0.0,0.0,0.0,0.0,0.0,0.0,0.0,0.0,0.0,0.0,0.0,0.0,0.0,0.0,0.0,0.0,0.0,0.0,0.0,1.466,1.4692,1.4692,1.4756,1.4787,1.4787,0.0,0.0,0.0,0.0,0.0,1.4787,1.4787,1.5012,1.5459,1.6381,1.7493,1.8764,1.9027,1.8709,1.7906,1.7816,0.0,0.0,0.0,0.0,0.0,0.0,0.0,0.0,0.0,0.0,0.0,0.0,0.0,0.0,0.0,0.0,0.0,0.0,0.0,0.0,0.0,0.0,0.0,0.0,0.0,0.0,0.0,0.0,0.0,0.0,0.0,0.0,0.0,0.0,0.0,0.0,0.0,0.0,0.0,0.0,0.0,0.0,0.0,0.0,0.0,0.0,0.0,0.0,0.0,0.0,0.0,0.0,0.0,0.0,0.0,0.0,0.0,0.0,0.0,0.0,0.0,0.0,0.0,2.2248,2.2418,2.2744,2.2744,2.3066,2.3546,2.1777,2.1211,2.1486,0.0,0.0,0.0,0.0,0.0,0.0,0.0,0.0,0.0,0.0,0.0,0.0,0.0,0.0,0.0,0.0,0.0,0.0,0.0,0.0,1.3854,1.4534,1.4901,1.511,1.511,1.5399,1.5558,1.5558,0.0,0.0,0.0,0.0,0.0,1.5558,1.5558,1.5872,1.6503,1.8469,1.9821,2.055,2.0598,2.055,2.0391,1.9821,1.936,1.901,0.0,0.0,0.0,0.0,0.0,0.0,0.0,0.0,0.0,0.0,0.0,0.0,0.0,0.0,0.0,0.0,0.0,0.0,0.0,0.0,0.0,0.0,0.0,0.0,0.0,0.0,0.0,0.0,0.0,0.0,0.0,0.0,0.0,0.0,0.0,0.0,0.0,0.0,0.0,0.0,0.0,1.998,1.9709,0.0,0.0,0.0,0.0,0.0,0.0,0.0,0.0,0.0,0.0,0.0,0.0,0.0,2.2799,2.4468,2.4484,2.4833,2.5563,2.5563,2.5611,2.5658,2.5658,2.585,2.62,2.5611,0.0,2.2307,2.1793,0.0,0.0,0.0,0.0,0.0,0.0,0.0,0.0,0.0,0.0,0.0,0.0,0.0,0.0,0.0,0.0,0.0,0.0,0.0,0.0,0.0,1.5427,1.592,1.6337,1.6687,1.6798,1.6608,1.6254,0.0,0.0,1.5558,1.5542,1.5685,1.6063,1.7096,1.8796,2.0114,2.1185,2.2073,2.228,2.2375,2.2359,2.2302,2.1284,1.9662,1.955,0.0,0.0,0.0,0.0,0.0,0.0,0.0,0.0,0.0,0.0,0.0,0.0,0.0,0.0,0.0,0.0,0.0,0.0,0.0,0.0,0.0,0.0,0.0,0.0,0.0,0.0,0.0,0.0,0.0,0.0,0.0,0.0,0.0,0.0,0.0,0.0,0.0,0.0,0.0,1.9542,2.0362,2.0203,2.0059,1.959,0.0,0.0,0.0,0.0,0.0,0.0,0.0,0.0,0.0,2.3912,2.415,2.4977,2.6532,2.6548,2.693,2.7647,2.7647,2.7759,2.795,2.795,2.8029,2.8138,2.8013,2.7234,2.5913,2.418,2.2668,2.137,0.0,0.0,0.0,0.0,2.0507,2.0961,0.0,0.0,0.0,0.0,0.0,0.0,0.0,0.0,0.0,0.0,0.0,0.0,1.5507,1.6349,1.7127,1.7785,1.8135,1.8151,1.7699,1.7254,1.673,1.613,1.5923,1.5923,1.6098,1.7127,1.8725,2.0925,2.1692,2.2581,2.3533,2.3787,2.3914,2.393,2.4213,2.305,2.0823,2.0823,2.0146,1.9042,0.0,0.0,0.0,0.0,0.0,0.0,0.0,0.0,0.0,0.0,0.0,0.0,0.0,0.0,0.0,0.0,0.0,0.0,0.0,0.0,0.0,0.0,0.0,0.0,0.0,0.0,0.0,0.0,0.0,0.0,0.0,0.0,0.0,0.0,0.0,0.0,0.0,2.021,2.1036,2.129,2.1258,2.0893,0.0,0.0,0.0,0.0,0.0,0.0,2.3289,2.38,2.4738,2.6136,2.6501,2.7262,2.8519,2.8535,2.8837,2.9477,2.9332,2.9439,2.9655,2.9545,2.9509,2.9509,2.9509,2.9257,2.8696,2.6373,2.477,2.3753,2.2953,2.236,2.1962,2.2026,2.2312,2.2715,0.0,0.0,0.0,0.0,0.0,0.0,0.0,0.0,0.0,0.0,0.0,1.5892,1.6551,1.7852,1.8843,1.9264,1.9598,1.9503,1.8773,1.8097,1.7594,1.7228,1.654,1.6492,1.7212,1.9177,2.0925,2.2386,2.3448,2.4323,2.5008,2.5024,2.5024,2.504,2.504,2.439,2.3263,2.2334,2.1655,2.1095,1.9455,0.0,0.0,0.0,0.0,0.0,0.0,0.0,0.0,0.0,0.0,0.0,0.0,0.0,0.0,0.0,0.0,0.0,0.0,0.0,0.0,0.0,0.0,0.0,0.0,0.0,0.0,0.0,0.0,0.0,0.0,0.0,0.0,0.0,0.0,0.0,0.0,0.0,0.0,2.3782,2.3578,0.0,0.0,0.0,0.0,2.3827,2.4227,2.5151,2.6851,2.6978,2.7629,2.9043,2.9389,2.9965,3.0733,3.0749,3.0924,3.1252,3.083,3.0615,3.0631,3.0222,3.0068,3.0068,3.0068,2.9686,2.9013,2.7965,2.6946,2.5914,2.4812,2.3974,2.3433,2.3734,2.4067,2.4415,0.0,0.0,0.0,0.0,0.0,0.0,0.0,0.0,1.414,1.4728,1.5694,1.6694,1.7614,1.9169,2.0496,2.1332,2.1507,2.138,2.0903,1.9789,1.8882,1.8303,1.7588,1.7991,1.959,2.1242,2.2879,2.4485,2.5134,2.5786,2.6454,2.6454,2.6454,2.6454,2.6454,2.6247,2.5771,2.4293,2.3181,2.2343,2.1274,2.0123,0.0,0.0,0.0,0.0,0.0,0.0,0.0,0.0,0.0,0.0,0.0,0.0,0.0,0.0,0.0,0.0,0.0,0.0,0.0,0.0,0.0,0.0,0.0,0.0,0.0,0.0,0.0,0.0,0.0,0.0,0.0,0.0,0.0,0.0,0.0,0.0,0.0,2.4018,2.4341,0.0,2.4229,2.4485,2.4897,2.5388,2.6342,2.7407,2.8487,2.8964,2.9647,3.0616,3.0998,3.1352,3.181,3.1591,3.1496,3.152,3.113,3.0943,3.0959,3.0801,3.0761,3.0761,3.0761,3.0624,3.0334,2.9777,2.8563,2.7003,2.6586,2.6289,2.6072,2.596,2.6124,2.6419,0.0,0.0,0.0,0.0,0.0,0.0,0.0,1.4315,1.4728,1.5443,1.663,1.7868,1.905,2.0724,2.2105,2.2971,2.305,2.27,2.1846,2.0712,1.9646,1.8662,1.8653,1.9638,2.174,2.3041,2.4531,2.6136,2.6517,2.6978,2.755,2.7677,2.7725,2.7741,2.7852,2.7915,2.782,2.6406,2.5135,2.3975,2.2911,2.1762,2.0512,0.0,0.0,0.0,0.0,0.0,0.0,0.0,0.0,0.0,0.0,0.0,0.0,0.0,0.0,0.0,0.0,0.0,0.0,0.0,0.0,0.0,0.0,0.0,0.0,0.0,0.0,0.0,0.0,0.0,0.0,0.0,0.0,0.0,0.0,0.0,2.3896,2.4848,2.5659,2.612,2.6041,2.6533,2.6944,2.7192,2.8357,2.9199,2.9561,3.0307,3.1011,3.1606,3.195,3.2283,3.2572,3.234,3.2176,3.2118,3.1725,3.1578,3.1578,3.1414,3.1332,3.1332,3.1212,3.1106,3.0971,3.0641,2.9664,2.8304,2.8226,2.8112,2.797,2.7583,2.7548,2.76,0.0,0.0,0.0,0.0,0.0,0.0,1.406,1.4728,1.5462,1.6142,1.7741,1.9376,2.0804,2.2518,2.3708,2.41,2.4145,2.3368,2.1555,2.0788,1.9812,1.8446,1.9749,2.1497,2.3504,2.4628,2.5882,2.7264,2.7596,2.7929,2.8262,2.8646,2.8856,2.8888,2.9186,2.9345,2.9298,2.8548,2.7502,2.6136,2.4311,2.339,2.2867,0.0,0.0,0.0,0.0,0.0,0.0,0.0,0.0,0.0,0.0,0.0,0.0,0.0,0.0,0.0,0.0,0.0,0.0,0.0,0.0,0.0,0.0,0.0,0.0,0.0,0.0,0.0,0.0,0.0,0.0,0.0,0.0,0.0,2.3025,2.3959,2.5182,2.6582,2.7629,2.8373,2.8773,2.9123,2.9292,2.9236,3.0126,3.0508,3.0175,3.1081,3.1782,3.2133,3.2438,3.2773,3.3066,3.3081,3.3081,3.3081,3.2697,3.2483,3.2483,3.2012,3.1798,3.1783,3.1461,3.1154,3.0832,3.0566,3.0243,2.9932,2.9626,2.932,2.896,2.8591,2.8233,2.7911,0.0,0.0,0.0,0.0,0.0,0.0,1.4407,1.4887,1.5637,1.6846,1.8516,2.0305,2.2227,2.3755,2.4787,2.5167,2.4738,2.3912,2.2645,2.1423,2.0582,2.0201,2.2275,2.3943,2.5009,2.6548,2.7804,2.8726,2.9075,2.9389,2.9743,2.9838,3.0029,3.0336,3.0431,3.0463,3.0431,2.9933,2.9377,2.863,2.6628,2.5294,2.4452,0.0,0.0,0.0,0.0,0.0,0.0,0.0,0.0,0.0,0.0,0.0,0.0,0.0,0.0,0.0,0.0,0.0,0.0,0.0,0.0,0.0,0.0,0.0,0.0,0.0,0.0,0.0,0.0,0.0,0.0,0.0,0.0,2.3479,2.3771,2.4927,2.6263,2.7629,2.8239,2.8819,2.9399,2.926,2.9331,2.9824,3.0092,3.0528,3.1157,3.1691,3.2133,3.2453,3.2788,3.2953,3.2957,3.2957,3.2827,3.2539,3.2409,3.2248,3.2012,3.1883,3.1798,3.1798,3.171,3.1607,3.152,3.1432,3.1344,3.1196,3.0204,2.9743,2.963,2.9511,2.9266,2.893,0.0,0.0,0.0,0.0,0.0,0.0,1.4774,1.5173,1.6019,1.7699,1.9216,2.0893,2.2978,2.4327,2.5199,2.5374,2.4612,2.3705,2.2641,2.1544,2.1359,2.2402,2.4102,2.5533,2.6666,2.7815,2.8672,2.9216,2.9538,2.9803,2.999,3.0271,3.0559,3.08,3.1059,3.1105,3.1004,3.09,3.0694,3.0285,2.9131,2.7757,2.6342,2.5707,2.4673,2.3435,2.3018,2.2509,2.1915,2.137,0.0,0.0,0.0,0.0,0.0,0.0,0.0,0.0,0.0,0.0,0.0,0.0,0.0,0.0,0.0,0.0,0.0,0.0,0.0,0.0,0.0,0.0,0.0,0.0,2.4237,2.5063,2.5263,2.6029,2.6934,2.8045,2.8594,2.9128,2.9791,2.9678,2.9724,3.0236,3.0417,3.0691,3.125,3.1568,3.1999,3.2464,3.2794,3.3008,3.3028,3.3161,3.3102,3.2895,3.2895,3.2793,3.2602,3.2602,3.2529,0.0,3.2266,3.212,3.1988,3.1856,3.1798,0.0,0.0,0.0,0.0,0.0,2.9789,2.9599,0.0,0.0,0.0,0.0,0.0,0.0,1.5112,1.551,1.6512,1.8582,1.9765,2.1211,2.3343,2.4438,2.504,2.504,2.4057,2.3025,2.2048,2.155,2.2272,2.4598,2.5423,2.6569,2.8215,2.8599,2.8927,2.9221,2.9572,2.9717,2.9762,3.0426,3.073,3.0807,3.1447,3.1554,3.1279,3.1626,3.16,3.1314,3.1449,3.0266,2.8408,2.7455,2.666,2.5882,2.4975,2.4341,2.393,2.3533,0.0,0.0,0.0,0.0,0.0,0.0,0.0,0.0,0.0,0.0,0.0,0.0,0.0,0.0,0.0,0.0,0.0,0.0,0.0,0.0,0.0,0.0,0.0,0.0,2.6019,2.7029,2.707,2.7181,2.7458,2.8118,2.8742,2.9359,3.0013,3.0035,3.0182,3.0504,3.0817,3.0939,3.092,0.0,0.0,0.0,0.0,3.2983,3.3245,3.3581,3.3727,3.3684,3.3727,3.3727,3.3684,3.3684,3.3523,3.3245,3.2997,3.2719,3.2427,3.209,3.1915,3.1827,3.149,3.1183,3.0861,3.029,3.0082,3.0009,0.0,0.0,0.0,0.0,0.0,0.0,1.5176,1.5713,1.6873,1.901,1.9948,2.1332,2.3718,2.4418,2.472,2.472,2.3721,2.2784,2.2032,2.2881,2.3987,2.528,2.6555,2.763,2.8508,2.9105,2.9572,2.9907,3.0243,3.0548,3.0822,3.1233,3.1569,3.1843,3.2213,3.235,3.2289,3.2373,3.2216,3.1951,3.1956,3.1315,3.0336,2.9806,2.9186,2.8519,2.8061,2.7455,2.6786,2.6184,2.55,2.477,2.3877,2.2811,0.0,0.0,0.0,0.0,0.0,0.0,0.0,0.0,0.0,0.0,0.0,0.0,0.0,0.0,0.0,0.0,0.0,0.0,0.0,2.604,2.6606,2.7165,2.7659,2.8211,2.8654,2.8888,2.8966,2.9271,2.9946,2.9715,2.9861,3.0692,3.0783,3.1076,3.1578,3.1915,3.228,3.2705,3.2983,3.326,3.3581,3.3963,3.3993,3.3684,0.0,0.0,3.3684,3.3684,3.3654,3.3581,3.3568,3.351,3.3377,3.3055,3.2661,3.2163,3.1827,3.1666,3.1593,3.1476,3.1095,3.0642,0.0,0.0,0.0,0.0,0.0,0.0,1.543,1.5872,1.6841,1.8628,1.9471,2.0568,2.2318,2.2986,2.3305,2.3305,2.2811,2.2399,2.2206,2.3645,2.5105,2.6467,2.7707,2.8562,2.9041,2.9539,2.9883,3.0002,3.047,3.0798,3.0962,3.147,3.1798,3.1963,3.247,3.2605,3.247,3.3015,3.3041,3.2782,3.2996,3.2765,3.214,3.1332,3.0703,3.0184,2.9733,2.9314,2.8881,2.8217,2.7629,2.7057,2.6168,2.5056,2.3816,0.0,0.0,0.0,0.0,0.0,0.0,0.0,0.0,0.0,0.0,0.0,0.0,0.0,0.0,2.536,0.0,0.0,2.7268,2.763,2.7974,2.83,2.8622,2.9076,2.935,2.9267,2.9373,2.9656,3.0144,3.0134,3.0364,3.1022,3.1212,3.152,3.2017,3.2354,3.2676,3.2997,3.348,3.3757,3.3932,3.43,3.4388,3.4227,3.4388,3.4373,3.4212,3.4212,3.4124,3.3932,3.3932,3.3875,3.3669,3.3508,3.326,3.2983,3.2646,3.2222,3.1798,3.1798,3.1593,3.1285,0.0,0.0,0.0,0.0,0.0,0.0,1.5748,1.6079,1.6794,1.8128,1.8835,1.9558,2.0582,2.1237,2.1581,2.157,2.1985,2.2336,2.2573,2.4409,2.6247,2.7804,2.8795,2.9427,2.9703,3.0007,3.0175,3.0056,3.0627,3.0936,3.1124,3.171,3.2017,3.2105,3.269,3.2807,3.2646,3.3472,3.3725,3.3472,3.3871,3.3837,3.3473,3.2462,3.1758,3.1306,3.0673,3.0375,3.0182,2.9602,2.923,2.8888,2.8154,2.7039,2.5739,2.4318,2.3326,0.0,0.0,0.0,0.0,0.0,0.0,0.0,0.0,2.4201,2.4834,2.5715,2.6568,2.7444,2.8303,2.8806,2.911,2.9325,2.9471,2.9628,2.9647,2.9877,2.995,2.9804,2.9921,3.0126,3.0448,3.0729,3.1081,3.1461,3.1798,3.2134,3.2456,3.2778,3.31,3.3377,3.3949,3.4256,3.4314,3.4578,3.471,3.471,3.471,3.471,3.471,3.471,3.4563,3.4314,3.4314,3.4124,3.3786,3.3786,3.3742,3.3654,3.3318,3.2719,3.2076,3.2002,3.1944,3.1856,0.0,0.0,0.0,0.0,0.0,0.0,0.0,0.0,1.7043,1.816,1.8367,1.8835,1.9884,2.01,2.0094,1.9982,2.1915,2.3179,2.3205,2.5827,2.7841,2.8886,2.9656,3.0163,3.039,3.0719,3.0844,3.0715,3.1081,3.1549,3.2134,3.2485,3.2807,3.3055,3.3421,3.3552,3.3523,3.3687,3.3701,3.3672,3.3703,3.3733,3.3661,3.3337,3.2719,3.1899,3.1262,3.0654,3.014,2.9788,2.9666,2.9584,2.8869,2.812,2.7183,2.5795,2.444,2.3444,2.3642,2.3963,2.4161,2.3901,2.4296,2.473,0.0,0.0,2.6861,2.7475,2.8876,3.0064,3.0419,3.0978,3.1329,3.1081,3.0598,3.0375,3.0627,3.0451,3.0536,3.1022,3.0668,3.0463,3.0744,3.1066,3.152,3.2134,3.2485,3.2807,3.307,3.3406,3.3727,3.4095,3.4183,3.4358,3.4651,3.4695,3.471,3.471,3.471,3.471,3.471,3.471,3.468,3.4651,3.4651,3.4461,3.4122,3.4122,3.3993,3.3654,3.3318,3.3128,3.2997,3.2763,3.2485,3.2222,0.0,0.0,0.0,0.0,0.0,0.0,0.0,0.0,1.6868,1.7313,1.7664,1.8055,1.8527,1.8843,1.9102,1.9281,2.1204,2.2867,2.3862,2.6485,2.8527,2.9694,3.0779,3.128,3.1078,3.1586,3.1809,3.1681,3.2002,3.2398,3.2851,3.3173,3.3407,3.3494,3.383,3.3976,3.3976,3.4212,3.43,3.43,3.43,3.4066,3.3685,3.3396,3.2466,3.1279,3.0754,3.0031,0.0,2.8706,2.8537,2.8557,2.8464,2.785,2.6969,2.6147,2.5065,2.4251,2.4799,2.5154,2.5396,2.5438,2.5812,2.6324,2.6841,2.7858,2.8933,2.9705,3.1037,3.2076,3.2164,3.2412,3.2529,0.0,3.1607,3.1168,3.111,3.0993,3.1007,3.1285,3.1242,3.1242,3.1373,3.1856,3.2266,3.2588,3.3041,3.3393,3.3479,3.3786,3.408,3.4212,3.4402,3.4563,3.471,3.471,3.471,3.471,3.471,3.471,3.471,3.471,3.471,3.471,3.471,3.4622,3.4505,3.4505,3.4417,3.4271,3.3888,3.3654,3.3421,3.2954,3.2734,3.2544,0.0,0.0,0.0,0.0,0.0,0.0,0.0,0.0,0.0,0.0,1.7139,1.7488,1.753,1.799,1.8508,1.9012,2.0808,2.2678,2.4471,2.711,2.9285,3.081,3.2065,3.2623,3.2377,3.2786,3.2955,3.2806,3.3146,3.3516,3.3871,3.4017,3.4088,3.4176,3.4288,3.4358,3.4373,3.4607,3.471,3.4695,3.4607,3.4241,3.3625,3.3026,3.1783,3.024,2.9841,2.9003,2.8012,2.7159,2.6954,2.7039,2.7192,2.676,2.6124,2.592,2.5381,2.495,2.5447,2.5981,2.6517,2.6896,2.7431,2.8037,2.8964,2.9837,3.0671,3.1651,3.2617,3.3333,3.3333,3.3333,3.3231,3.2954,3.2354,3.1812,3.149,3.1373,3.1315,3.1315,3.1593,3.1871,3.2046,3.2573,3.2895,3.2895,3.3495,3.3815,3.3815,3.4168,3.4358,3.4358,3.4578,3.471,3.471,3.471,3.471,3.471,3.471,3.471,3.471,3.471,3.471,3.471,3.471,3.471,3.471,3.471,3.471,3.4666,3.4344,3.4022,3.3625,3.31,3.2851,3.2778,0.0,0.0,0.0,0.0,0.0,0.0,0.0,0.0,0.0,0.0,0.0,1.7196,1.7396,1.7762,1.8333,1.9127,2.1019,2.3005,2.4945,2.7931,3.0533,3.2443,3.3565,3.4246,3.4504,3.4314,3.4198,3.4158,3.4494,3.4998,3.5624,3.518,3.5084,3.5337,3.4867,3.4695,3.4695,3.4695,3.471,3.468,3.4358,3.4036,3.3552,3.2324,3.0642,2.89,2.8564,2.7666,2.6484,2.5228,2.5037,2.5332,2.5009,2.4828,2.4823,2.5138,2.5345,2.5476,2.5491,2.6478,2.7606,2.8212,2.9076,3.0068,3.1007,3.149,3.2017,3.2938,3.3421,3.3669,3.3669,3.3669,3.3567,3.3231,3.269,3.2149,3.1827,3.1505,3.1315,3.1315,3.1593,3.2046,0.0,3.3041,3.3187,3.3187,3.3786,3.4197,3.4197,3.4519,3.4695,3.4695,3.4695,3.471,3.471,3.471,3.471,3.471,3.471,3.471,3.471,3.471,3.471,3.471,3.471,3.471,3.471,3.471,3.471,3.4666,3.4344,3.4022,3.364,3.3304,3.3041,3.2822,0.0,0.0,0.0,0.0,0.0,0.0,0.0,0.0,0.0,0.0,0.0,0.0,0.0,0.0,0.0,0.0,2.0812,2.2462,2.4336,2.7241,2.975,3.1635,3.3297,3.4116,3.3854,3.4298,3.4313,3.3889,3.446,3.5014,3.5402,3.4864,3.4666,3.4725,3.4235,3.4066,3.4066,3.4066,3.3888,3.3669,3.3393,3.2807,3.1959,3.0451,2.8798,2.7071,0.0,2.4166,2.356,2.2689,2.2483,2.2647,2.2975,2.3077,2.3191,2.3929,2.4947,2.6003,2.6647,2.7759,2.8842,2.9281,3.0276,3.1344,3.2105,3.2866,3.3612,3.4358,3.4446,3.4314,3.4095,3.3524,3.2983,3.2661,3.2251,3.1841,3.152,3.1373,3.1388,3.1607,3.1739,0.0,0.0,0.0,0.0,3.383,3.43,3.4549,3.4549,3.4651,3.471,3.471,3.471,3.471,3.471,3.471,3.471,3.471,3.471,3.471,3.471,3.471,3.471,3.471,3.471,3.471,3.471,3.471,3.471,3.4695,3.4578,3.4344,3.4036,3.3934,3.3685,3.3349,0.0,0.0,0.0,0.0,0.0,0.0,0.0,0.0,0.0,0.0,0.0,0.0,0.0,0.0,0.0,0.0,0.0,2.2198,2.4018,2.6373,2.8623,3.0616,3.2138,3.2864,3.272,3.3149,3.3185,3.2829,3.3677,3.4281,3.4584,3.4189,3.3976,3.3932,3.3427,3.3144,3.3041,3.3158,3.2822,3.2178,3.1739,3.0947,2.9778,2.8271,2.6691,0.0,2.3018,2.1803,2.1115,2.0662,2.075,2.113,2.1672,2.2389,2.3166,2.3632,2.5081,2.672,2.7583,2.8754,2.9892,3.0463,3.1359,3.2339,3.3115,3.3861,3.4578,3.5255,3.4724,3.408,3.3758,3.2807,3.1973,3.1694,3.1607,3.1505,3.1183,3.1344,3.152,3.1607,3.1827,3.2266,0.0,0.0,0.0,3.4197,3.4519,3.471,3.471,3.471,3.471,3.471,3.471,3.471,3.471,3.471,3.471,3.471,3.471,3.471,3.471,3.471,3.471,3.471,3.471,3.471,3.471,3.471,3.471,3.471,3.471,3.4505,3.4212,3.4212,3.4007,3.3611,0.0,0.0,0.0,0.0,0.0,0.0,0.0,0.0,0.0,0.0,0.0,0.0,0.0,0.0,0.0,0.0,0.0,0.0,2.3956,2.54,2.7139,2.9305,3.0062,3.0661,3.111,3.1092,3.1065,3.1117,3.2145,3.2823,3.313,3.3001,3.2934,3.288,3.2301,3.1841,3.1578,3.1885,3.1328,3.0111,2.9481,2.847,2.7196,2.5857,2.4346,2.2886,2.192,2.0616,1.9327,1.9312,1.9945,2.0809,2.1233,2.2842,2.4573,2.4338,2.5783,2.7656,2.8306,2.9456,3.0698,3.1607,3.2354,3.3085,3.4036,3.449,3.49,3.5548,3.4314,3.3026,0.0,0.0,3.0642,3.0405,3.0846,3.1168,3.089,3.1388,3.1666,0.0,0.0,0.0,0.0,0.0,0.0,3.4197,0.0,3.471,3.471,3.471,3.471,3.471,3.471,3.471,3.471,3.471,3.471,3.471,3.471,3.471,3.471,3.471,3.471,3.471,3.471,3.471,3.471,3.471,3.471,3.471,3.471,3.4519,3.4241,3.4241,3.4005,3.3638,0.0,0.0,0.0,0.0,0.0,0.0,0.0,0.0,0.0,0.0,0.0,0.0,0.0,0.0,0.0,0.0,0.0,0.0,2.2147,2.3659,2.5094,2.6391,2.7644,2.8407,2.8689,2.8931,2.8859,2.8477,2.9085,2.949,2.9657,2.9245,2.907,2.9086,2.8568,2.83,2.8227,2.83,2.7861,2.7086,2.6676,2.5886,2.4851,2.353,2.2476,2.154,2.0325,1.9811,1.962,1.9386,2.0265,2.1672,2.2945,2.4118,2.5144,2.6023,2.6998,2.8087,2.9486,3.0668,3.1607,3.2383,3.3188,3.3978,3.4475,3.4827,3.5137,3.5299,3.3627,3.2061,3.1739,0.0,0.0,2.9965,3.0375,0.0,3.1124,3.1329,0.0,3.1651,0.0,3.25,3.3071,3.345,0.0,0.0,3.4519,3.471,3.471,3.471,3.471,3.471,3.471,3.471,3.471,3.471,3.471,3.471,3.471,3.471,3.471,3.471,3.471,3.471,3.471,3.471,3.471,3.471,3.471,3.471,3.471,3.4651,3.4578,3.4578,3.4286,3.3787,0.0,0.0,0.0,0.0,0.0,0.0,0.0,0.0,0.0,0.0,0.0,0.0,0.0,0.0,0.0,0.0,0.0,0.0,0.0,2.2282,2.3172,2.3925,2.4965,2.5695,2.6035,2.6366,2.6307,2.5885,2.6432,2.6636,2.6456,2.6176,2.6023,2.5948,2.5638,2.5418,2.5301,2.5432,2.4964,0.0,0.0,2.3104,2.2301,2.1466,2.0924,2.0472,1.9781,1.9913,2.0573,2.1525,2.236,2.3237,2.488,2.59,2.6676,2.7408,2.8286,2.9266,3.0451,3.149,3.231,3.272,3.3393,3.3978,3.3875,3.3875,3.3907,3.376,3.1783,3.01,3.0016,2.8959,2.8227,0.0,0.0,0.0,3.0598,3.1037,3.1432,0.0,3.2207,0.0,3.3158,3.3494,3.3815,0.0,3.4519,3.471,3.471,3.471,3.471,3.471,3.471,3.471,3.471,3.471,3.471,3.471,3.471,3.471,3.471,3.471,3.471,3.471,0.0,3.471,3.471,3.471,3.471,3.4663,3.4461,3.4352,3.4305,3.4132,3.3836,3.3469,0.0,0.0,0.0,0.0,0.0,0.0,0.0,0.0,0.0,0.0,0.0,0.0,0.0,0.0,0.0,0.0,0.0,0.0,0.0,0.0,2.1528,2.1892,2.2444,2.299,2.3485,2.381,2.3791,2.3469,2.3973,2.3939,2.3468,2.3456,2.3308,2.3067,2.3015,2.2832,2.2582,2.2905,2.2391,2.129,2.104,2.0545,1.9991,0.0,1.9693,1.9737,1.9825,2.0472,2.1745,2.4397,2.513,2.5217,2.6852,2.8008,2.8715,2.8715,2.9573,3.0654,3.1271,3.212,3.2837,3.2837,3.329,3.3539,3.2807,3.2354,3.1959,3.1505,2.9417,2.7809,2.8087,2.7422,2.6969,2.751,0.0,2.9569,3.0038,3.0817,3.1476,3.1768,3.2339,3.2851,3.3158,3.3494,3.3815,3.4197,3.4519,3.471,3.471,3.471,3.471,3.471,3.471,3.471,3.471,3.471,3.471,3.471,3.471,3.471,3.471,3.471,3.471,3.471,3.471,0.0,3.471,3.4601,3.4601,3.4554,3.401,3.3822,3.3775,3.3351,3.3177,3.298,0.0,0.0,0.0,0.0,0.0,0.0,0.0,0.0,0.0,0.0,2.0722,2.0411,0.0,0.0,0.0,0.0,0.0,0.0,0.0,0.0,0.0,2.0849,2.1274,2.1646,2.189,2.2138,2.2065,2.1731,2.1298,2.0917,2.0606,2.0233,1.9967,1.981,1.9819,1.9778,1.9722,2.008,1.9814,1.9176,1.9435,1.9332,1.9038,1.8979,0.0,0.0,1.9959,2.0955,2.2447,2.5286,2.6398,2.6896,2.8807,2.9851,3.0366,3.0366,3.0759,3.1285,3.1944,3.2632,3.3114,3.3114,3.3406,3.3422,3.2237,3.1505,3.0759,2.9632,2.7993,2.6778,2.6837,2.6216,2.6289,2.7955,2.8886,2.9778,3.0905,3.1432,3.1739,0.0,3.2134,3.2602,3.3143,0.0,0.0,0.0,0.0,3.471,3.471,3.471,3.471,3.471,3.471,3.471,3.471,3.471,3.471,3.471,3.471,3.471,3.471,3.471,3.471,3.471,3.471,0.0,3.4663,3.4212,3.4056,3.401,3.3493,3.3304,3.3304,3.3224,3.2941,3.2461,0.0,0.0,0.0,0.0,0.0,0.0,0.0,1.943,2.0643,2.1749,2.1829,2.161,2.1155,2.0898,2.0877,0.0,0.0,0.0,0.0,0.0,0.0,2.0583,2.0879,2.1194,2.1483,2.1686,2.1738,2.1579,0.0,2.0114,1.9614,1.8956,1.8461,1.8157,1.8018,1.7948,1.7963,1.813,1.8159,1.8095,1.8474,1.8675,1.877,1.8943,0.0,0.0,2.0035,2.1043,2.258,2.4949,2.631,2.7481,3.0287,3.0978,3.0878,3.1432,3.1578,3.171,3.2368,3.288,3.3158,3.3041,3.2983,3.2544,3.0905,2.9778,2.871,2.7408,2.5988,2.5037,2.5213,2.5271,2.5696,2.6932,2.8139,2.9164,2.9939,3.0759,3.1359,3.152,3.1988,3.2544,0.0,0.0,0.0,0.0,0.0,3.471,3.471,3.471,3.471,3.471,3.471,3.471,3.471,3.471,3.471,3.471,3.471,3.471,3.471,3.471,3.4554,3.4259,3.4259,0.0,3.3897,3.3648,3.354,3.3493,3.2974,3.28,3.2738,3.2516,3.228,3.2016,0.0,0.0,0.0,0.0,0.0,0.0,0.0,2.0136,2.1429,2.2228,2.2675,2.2656,2.207,2.1431,2.1093,0.0,0.0,0.0,0.0,0.0,0.0,0.0,0.0,0.0,2.1491,0.0,0.0,2.1883,2.0999,0.0,0.0,0.0,0.0,0.0,1.706,1.693,1.6946,1.7106,1.732,0.0,0.0,1.8464,1.8751,0.0,0.0,0.0,0.0,2.113,2.2492,2.4368,2.5716,2.7196,3.051,3.1271,3.1095,3.1929,3.2105,3.2134,3.2719,3.3056,3.3128,3.2851,3.2427,3.1563,2.9617,2.8139,2.6793,2.5456,2.4291,2.3588,2.391,2.4426,2.5056,2.5871,2.7166,2.83,2.8812,2.9954,3.0876,0.0,3.1827,0.0,3.3128,0.0,0.0,0.0,0.0,0.0,3.471,3.471,3.471,3.471,3.471,3.471,3.471,3.471,3.471,3.471,3.4554,3.4508,3.4508,3.4414,3.4165,3.3775,3.3775,0.0,0.0,3.3083,3.3022,3.2974,3.2469,3.228,3.2232,3.1853,3.1711,3.1711,0.0,0.0,0.0,0.0,0.0,0.0,0.0,2.0428,2.185,2.2717,2.2859,2.3002,2.3287,2.2251,2.1451,0.0,0.0,0.0,0.0,0.0,0.0,0.0,0.0,0.0,0.0,0.0,0.0,2.2168,2.147,0.0,0.0,0.0,0.0,0.0,0.0,1.6722,1.677,1.7444,0.0,0.0,0.0,0.0,0.0,0.0,0.0,0.0,0.0,2.132,2.2463,2.4089,2.4924,2.573,2.8359,3.0159,3.1344,3.1724,3.2237,3.2763,3.3055,3.3172,3.3128,3.2851,3.2076,3.089,2.892,2.7254,2.5783,2.4481,2.3647,2.3252,2.3574,2.3691,2.4232,2.5769,2.6647,2.7539,2.8725,2.9804,3.0668,3.1242,0.0,0.0,3.3114,0.0,0.0,0.0,0.0,0.0,3.471,3.471,3.471,3.471,3.471,3.471,3.471,3.471,3.471,3.471,3.4212,3.3963,3.3963,3.354,3.3318,3.3257,3.3257,0.0,0.0,3.2644,3.2455,3.2408,3.1948,3.1758,3.1758,3.1711,3.1711,3.1711,0.0,0.0,0.0,0.0,0.0,0.0,1.9439,2.1167,2.2494,2.2798,2.3329,2.353,2.3196,2.2551,2.205,2.1824,0.0,0.0,0.0,0.0,0.0,0.0,0.0,0.0,0.0,0.0,2.2276,2.2383,2.199,0.0,0.0,0.0,0.0,0.0,0.0,1.7064,1.708,1.7371,0.0,0.0,0.0,0.0,0.0,0.0,0.0,0.0,0.0,0.0,2.2023,2.2888,2.3503,2.4203,2.6053,2.7422,2.8783,3.0656,3.1534,3.2046,3.2763,3.2807,3.2588,3.2266,3.13,2.9939,2.8008,2.6567,2.5359,2.4057,2.3427,2.3149,2.3281,2.3457,2.394,2.4979,2.6018,2.6939,2.7656,2.8915,2.9965,3.0378,3.1066,0.0,0.0,0.0,0.0,0.0,0.0,0.0,3.471,3.471,3.471,3.471,3.471,3.4554,3.4212,3.4212,3.4071,3.3789,3.3601,3.3493,3.3445,3.3304,3.3035,3.2691,3.2691,0.0,0.0,3.209,3.1995,3.1948,3.1758,3.1711,3.1711,3.1711,3.1711,3.1711,0.0,0.0,0.0,0.0,0.0,1.9243,2.0002,2.1482,2.2534,2.2615,2.3303,2.3621,2.3141,2.2729,2.2453,2.239,2.1839,0.0,0.0,0.0,0.0,0.0,0.0,0.0,0.0,0.0,2.2625,2.2894,2.2635,2.2238,0.0,0.0,1.932,1.8427,0.0,0.0,0.0,0.0,0.0,0.0,0.0,0.0,0.0,0.0,0.0,0.0,0.0,0.0,0.0,0.0,0.0,2.2886,2.4016,2.5008,2.6398,2.9486,3.0759,3.1373,3.2368,3.2383,3.2032,3.1607,3.0466,2.8988,2.7247,2.6018,2.4935,2.3823,2.334,2.3106,2.3106,2.3296,2.3662,2.4353,2.5359,2.6252,2.6778,2.8227,2.9467,2.998,0.0,0.0,0.0,0.0,0.0,0.0,0.0,0.0,3.4273,3.4273,3.432,3.4461,3.432,3.4071,3.3681,3.3681,3.354,3.3224,3.3022,3.2974,3.2974,3.2847,3.2563,3.2185,3.2185,0.0,0.0,3.1711,3.1711,3.1711,3.1711,3.1711,3.1711,3.1711,3.1711,3.1711,0.0,0.0,0.0,0.0,0.0,0.0,2.0425,2.1169,2.175,2.2145,2.2561,2.2996,2.3454,2.2909,2.2574,2.2778,2.2003,0.0,0.0,0.0,0.0,0.0,0.0,0.0,0.0,0.0,2.2976,2.3888,2.3428,2.286,2.2182,2.1025,1.9874,1.877,0.0,0.0,0.0,0.0,0.0,0.0,0.0,0.0,0.0,0.0,0.0,0.0,0.0,0.0,0.0,0.0,0.0,0.0,0.0,2.3325,2.4836,2.8382,3.0071,3.0995,3.2017,3.2046,3.1651,3.0993,2.9592,2.8072,2.6808,2.5505,2.4426,2.3735,2.334,2.3106,2.3106,2.3106,2.3325,2.4016,2.4675,2.5437,2.6369,2.7891,2.9291,0.0,0.0,3.2046,0.0,0.0,0.0,0.0,0.0,0.0,3.321,3.321,3.3445,3.3916,3.3445,3.3224,3.3224,3.3224,3.3224,3.3163,3.2644,3.2421,3.2408,3.1948,3.1711,0.0,0.0,0.0,0.0,3.1711,3.1711,3.1711,3.1711,3.1711,3.1711,3.1711,3.1711,3.1711,0.0,0.0,0.0,0.0,0.0,0.0,0.0,2.0898,2.133,2.1325,2.1694,2.2026,2.21,2.1942,2.191,2.211,2.1858,0.0,0.0,0.0,0.0,0.0,0.0,0.0,0.0,0.0,2.335,2.4109,2.3919,2.3582,2.3134,2.1946,2.0876,1.9922,1.8924,1.8471,0.0,0.0,0.0,0.0,0.0,0.0,0.0,0.0,0.0,0.0,0.0,0.0,0.0,0.0,0.0,0.0,0.0,0.0,0.0,2.5481,2.7408,2.8978,2.9764,3.0056,3.0042,2.9603,2.8637,2.7437,2.6135,2.5183,2.4353,2.3442,2.3179,2.3106,2.3106,2.3106,2.3398,2.4309,2.4807,2.5511,2.6661,2.7847,0.0,2.995,3.1017,3.1988,0.0,0.0,0.0,0.0,0.0,0.0,3.3224,3.2833,3.288,3.3398,3.3271,3.3035,3.2644,3.2658,3.2516,3.2185,3.1995,3.1901,3.1901,3.1758,3.1711,0.0,0.0,0.0,0.0,3.1711,3.1711,3.1711,3.1711,3.1711,3.1711,3.1711,3.1711,3.1711,0.0,0.0,0.0,0.0,0.0,0.0,0.0,2.0508,2.0737,2.079,2.1039,2.1331,2.1569,2.1546,2.169,2.215,2.1956,0.0,0.0,0.0,0.0,0.0,0.0,0.0,2.2749,2.3059,2.3618,2.4429,2.4209,2.388,2.348,2.2334,2.1394,2.0575,1.9628,1.9225,0.0,0.0,0.0,0.0,0.0,0.0,2.0856,0.0,0.0,0.0,0.0,0.0,0.0,0.0,0.0,0.0,0.0,0.0,0.0,0.0,2.4832,2.6392,2.7803,2.8315,2.8373,2.792,2.7188,2.6316,2.5227,2.4481,2.3808,2.3076,2.3018,2.3076,2.2914,2.312,2.353,2.4294,2.4793,2.554,2.6808,0.0,0.0,3.042,0.0,0.0,0.0,0.0,0.0,0.0,0.0,0.0,3.2611,3.2327,3.228,3.2611,3.2611,3.2469,3.2138,3.2138,3.1995,3.1711,3.1711,3.1711,3.1711,3.1711,3.1711,0.0,0.0,0.0,0.0,3.1711,3.1711,3.1711,3.1711,3.1711,3.1711,3.1711,3.1711,3.1711,0.0,0.0,0.0,0.0,0.0,0.0,0.0,2.0059,2.0054,2.0512,2.0569,2.0883,2.1616,2.1548,2.179,2.2636,0.0,0.0,0.0,0.0,0.0,0.0,0.0,0.0,2.3183,2.3225,2.3741,2.4789,2.4299,2.3863,2.3408,2.2337,2.1477,2.0855,2.023,1.9932,0.0,0.0,0.0,0.0,0.0,0.0,0.0,0.0,0.0,0.0,0.0,0.0,0.0,0.0,0.0,0.0,0.0,0.0,0.0,0.0,0.0,0.0,0.0,2.6735,2.6676,2.6061,2.5461,2.488,2.4236,2.3559,0.0,2.2636,2.2871,2.3003,2.2651,2.3164,2.3706,2.4089,2.4675,2.5554,2.6837,2.8417,0.0,0.0,3.2009,0.0,0.0,0.0,0.0,0.0,0.0,0.0,3.1711,3.1711,3.1711,3.1711,3.1711,3.1711,3.1711,3.1711,3.1711,3.1711,3.1711,3.1711,3.1711,3.1711,3.1711,0.0,0.0,0.0,0.0,3.1711,3.1711,3.1711,3.1711,3.1711,3.1711,3.1711,3.1711,3.1711,0.0,0.0,0.0,0.0,0.0,0.0,0.0,0.0,0.0,0.0,2.0369,2.0506,2.084,2.0977,2.1253,0.0,0.0,0.0,0.0,0.0,0.0,0.0,0.0,0.0,2.3204,2.3351,2.3851,2.4715,2.4048,2.3746,2.3758,2.2575,2.1904,2.1593,2.0685,2.0273,0.0,0.0,0.0,0.0,0.0,0.0,0.0,0.0,0.0,0.0,2.0692,2.0912,0.0,0.0,0.0,0.0,0.0,0.0,0.0,0.0,2.192,2.2213,2.3076,0.0,2.513,2.4983,2.4822,2.4543,0.0,2.3398,2.2959,2.2403,2.2725,2.3003,2.2651,2.3164,2.3779,2.4397,2.4822,2.5628,2.7181,0.0,0.0,3.1081,0.0,0.0,0.0,0.0,0.0,0.0,0.0,3.1711,3.1711,3.1711,3.1711,3.1711,3.1711,3.1711,3.1711,3.1711,3.1711,3.1711,3.1711,3.1711,3.1711,3.1711,3.1711,0.0,0.0,0.0,3.1711,3.1711,3.1711,3.1711,3.1711,3.1711,3.1711,3.1711,3.1711,3.1711,0.0,0.0,0.0,0.0,0.0,0.0,0.0,0.0,0.0,0.0,0.0,0.0,0.0,0.0,0.0,0.0,0.0,0.0,0.0,0.0,0.0,0.0,0.0,2.2652,2.331,2.3223,2.356,2.4371,2.3719,2.3535,2.373,2.2613,2.2032,2.192,2.1033,2.0639,0.0,0.0,0.0,0.0,2.0318,0.0,0.0,0.0,0.0,0.0,2.0415,2.0678,0.0,2.1159,2.1203,2.1203,0.0,0.0,0.0,0.0,2.1467,2.154,2.1876,2.2726,2.3532,2.3647,2.3606,2.3444,2.3193,2.2784,2.2359,2.2023,2.2462,2.2784,2.2476,2.3193,2.3984,2.4529,2.513,0.0,0.0,0.0,3.0638,3.0857,0.0,0.0,0.0,0.0,0.0,0.0,0.0,3.1711,3.1711,3.1711,3.1711,3.1711,3.1711,3.1711,3.1711,3.1711,3.1711,3.1711,3.1711,3.1711,3.1711,3.1711,3.1711,0.0,0.0,0.0,3.1711,3.1711,3.1711,3.1711,3.1711,3.1711,3.1711,3.1711,3.1711,3.1711,0.0,0.0,0.0,0.0,0.0,0.0,0.0,0.0,0.0,0.0,0.0,0.0,0.0,0.0,0.0,0.0,0.0,0.0,0.0,0.0,0.0,0.0,2.2389,2.2656,2.3387,2.3043,2.3218,2.3882,2.3382,2.3287,2.3525,2.2585,2.2058,2.1873,2.1211,2.0899,0.0,0.0,0.0,0.0,2.0318,0.0,0.0,0.0,0.0,0.0,0.0,0.0,0.0,2.0941,2.1057,2.1057,2.1057,0.0,0.0,0.0,0.0,0.0,2.154,2.1862,2.2184,2.2504,2.2476,2.2359,2.252,2.2154,2.1759,2.1715,2.2198,2.2564,2.2359,2.3401,2.4368,2.4671,0.0,0.0,2.8873,3.0352,3.106,3.0527,0.0,0.0,0.0,0.0,0.0,0.0,0.0,3.1711,3.1711,3.1711,3.1711,3.1711,3.1711,3.1711,3.1711,3.1711,3.1711,3.1711,3.1711,3.1711,3.1711,3.1711,3.1711,3.1711,0.0,0.0,3.1711,3.1711,3.1711,3.1711,3.1711,3.1711,3.1711,3.1711,3.1711,3.1711,0.0,0.0,0.0,0.0,0.0,0.0,0.0,0.0,0.0,0.0,0.0,0.0,0.0,0.0,0.0,0.0,0.0,0.0,0.0,0.0,0.0,2.2746,2.31,2.3161,2.2903,2.3096,2.3259,2.3322,2.3012,2.3005,2.3258,2.2636,2.2064,2.146,2.1074,2.0899,2.0899,2.0899,0.0,0.0,0.0,0.0,0.0,0.0,0.0,0.0,0.0,0.0,0.0,2.0342,2.0356,2.0356,2.0356,0.0,0.0,0.0,0.0,0.0,2.1203,2.1525,2.1906,2.2446,2.2767,2.2842,2.2359,2.2184,2.2023,2.1759,2.2198,2.2665,2.293,2.406,2.5042,0.0,0.0,2.8196,0.0,0.0,0.0,0.0,0.0,0.0,0.0,0.0,0.0,0.0,0.0,3.1711,3.1711,3.1711,3.1711,3.1711,3.1711,3.1711,3.1711,3.1711,3.1711,3.1711,3.1711,3.1711,3.1711,3.1711,3.1711,3.1711,0.0,3.1711,3.1711,3.1711,3.1711,3.1711,3.1711,3.1711,3.1711,3.1711,3.1711,3.1711,0.0,0.0,0.0,0.0,0.0,0.0,0.0,0.0,0.0,0.0,0.0,0.0,0.0,0.0,0.0,0.0,0.0,0.0,0.0,0.0,2.2808,2.2808,2.3219,2.3337,2.3118,2.2861,2.2996,2.3481,2.2905,2.2842,2.3247,2.2722,2.2081,2.1381,2.1248,2.1074,2.0899,2.0899,0.0,0.0,0.0,0.0,0.0,0.0,0.0,0.0,0.0,0.0,0.0,0.0,2.021,2.021,2.021,0.0,0.0,0.0,0.0,0.0,2.1335,2.1715,2.2067,2.2475,2.2623,2.2579,2.2447,2.2418,2.2374,2.2228,2.271,2.3252,2.3574,0.0,2.5641,2.6605,0.0,2.879,0.0,0.0,0.0,0.0,0.0,0.0,0.0,0.0,0.0,0.0,0.0,0.0,3.1711,3.1711,3.1711,3.1711,3.1711,3.1711,3.1711,3.1711,3.1711,3.1711,3.1711,3.1711,3.1711,3.1711,3.1711,3.1711,0.0,3.1711,3.1711,3.1711,3.1711,3.1711,3.1711,3.1711,3.1711,3.1711,3.1711,3.1711,0.0,0.0,0.0,0.0,0.0,0.0,0.0,0.0,0.0,0.0,0.0,0.0,0.0,0.0,0.0,0.0,0.0,0.0,0.0,2.2258,2.2542,2.2526,2.2918,2.3161,2.3229,2.2843,2.2954,2.3598,2.2979,2.289,2.32,2.2734,2.2164,2.1534,2.1428,2.1206,2.0899,2.0899,2.0921,0.0,0.0,0.0,0.0,0.0,0.0,0.0,0.0,0.0,0.0,0.0,0.0,0.0,0.0,0.0,0.0,2.0488,2.0634,2.0824,2.1423,2.1876,2.2242,2.2462,2.252,2.2579,2.2798,2.2974,2.3106,2.3179,2.3647,2.4174,2.4569,2.5437,0.0,2.7898,2.8756,0.0,0.0,0.0,0.0,0.0,0.0,0.0,0.0,0.0,0.0,0.0,0.0,0.0,3.1711,3.1711,3.1711,3.1711,3.1711,3.1711,3.1711,3.1711,3.1711,3.1711,3.1711,3.1711,3.1711,3.1711,3.1711,3.1711,3.1711,3.1711,3.1711,3.1711,3.1711,3.1711,3.1711,3.1711,3.1711,3.1711,3.1711,3.1711,0.0,0.0,0.0,0.0,0.0,0.0,0.0,0.0,0.0,0.0,0.0,0.0,0.0,0.0,0.0,0.0,0.0,0.0,0.0,2.1312,2.1739,2.1685,2.2135,2.252,2.2748,2.3311,2.3509,2.3323,2.3279,2.3184,2.3002,2.2668,2.2318,2.1937,2.1565,2.1206,2.0899,2.0899,2.0934,2.097,0.0,0.0,0.0,0.0,0.0,0.0,0.0,0.0,0.0,0.0,0.0,0.0,0.0,0.0,1.9884,2.0152,2.0459,2.0765,2.1145,2.1701,2.2184,2.2213,2.2857,2.3501,2.3515,2.4031,2.4543,2.4851,2.5154,2.5544,2.6208,2.7031,2.7984,2.8962,2.9294,0.0,0.0,0.0,0.0,0.0,0.0,0.0,0.0,0.0,0.0,0.0,0.0,0.0,3.1711,3.1711,3.1711,3.1711,3.1711,3.1711,3.1711,3.1711,3.1711,3.1711,3.1711,3.1711,3.1711,3.1711,3.1711,3.1711,3.1711,3.1711,3.1711,3.1711,3.1711,3.1711,3.1711,3.1711,3.1711,3.1711,3.1711,3.1711,0.0,0.0,0.0,0.0,0.0,0.0,0.0,0.0,0.0,0.0,0.0,0.0,0.0,0.0,0.0,0.0,0.0,0.0,0.0,2.0549,2.1169,2.1328,2.1924,2.2367,2.2691,2.3173,2.3601,2.386,2.3584,2.3271,2.3006,2.2879,2.2513,2.1984,2.2053,2.1629,2.0915,2.1121,2.1128,2.1006,2.0941,0.0,0.0,0.0,0.0,0.0,0.0,0.0,0.0,0.0,1.9298,1.9298,1.9298,1.9532,1.9855,2.0108,2.0444,2.0765,2.1115,2.154,2.1935,2.217,2.3047,2.3896,2.3896,2.4554,2.5257,2.5593,2.6237,2.6925,0.0,0.0,2.7962,2.8799,2.916,2.9319,0.0,0.0,0.0,0.0,0.0,0.0,0.0,0.0,0.0,0.0,0.0,0.0,3.1711,3.1711,3.1711,3.1711,3.1711,3.1711,3.1711,3.1711,3.1711,3.1711,3.1711,3.1711,3.1711,3.1711,3.1711,3.1711,3.1711,3.1711,3.1711,3.1711,3.1711,3.1711,3.1711,3.1711,3.1711,3.1711,3.1711,3.1711,0.0,0.0,0.0,0.0,0.0,0.0,0.0,0.0,0.0,0.0,0.0,0.0,0.0,0.0,0.0,0.0,0.0,0.0,1.9003,1.986,2.0463,2.0746,2.1453,2.2031,2.2413,2.2862,2.3401,2.4005,2.3673,2.3332,2.2994,2.2994,2.2704,2.2159,2.2398,2.2021,2.1258,2.1281,2.1232,2.1183,2.0993,2.0708,0.0,0.0,0.0,0.0,0.0,0.0,0.0,0.0,1.9298,1.9312,1.943,1.9679,1.9974,2.0269,2.059,2.0897,2.1145,2.1525,2.192,2.2242,2.3401,2.447,2.4642,2.5447,2.6296,2.6822,2.7515,2.8144,2.856,0.0,0.0,0.0,0.0,0.0,0.0,0.0,0.0,0.0,0.0,0.0,0.0,0.0,0.0,0.0,0.0,0.0,0.0,3.1711,3.1711,3.1711,3.1711,3.1711,3.1711,3.1711,3.1711,3.1711,3.157,3.1583,3.1711,3.1711,3.1623,3.153,3.153,3.1476,3.1443,3.1443,3.145,3.1543,3.1684,3.1711,3.1711,3.1711,3.1711,3.1711,0.0,0.0,0.0,0.0,0.0,0.0,0.0,0.0,0.0,0.0,0.0,0.0,0.0,0.0,0.0,0.0,0.0,0.0,1.8594,1.9222,1.9652,1.9801,2.0638,2.1318,2.1776,2.2389,2.2992,2.3576,2.3502,2.3332,2.2994,2.3006,2.2815,2.2482,2.2498,2.2318,2.1968,2.1285,2.1213,2.1539,2.0876,2.0648,2.0663,0.0,0.0,0.0,0.0,0.0,0.0,0.0,1.9298,1.9356,1.9693,1.9974,2.0269,2.0605,2.0926,2.1203,2.1203,2.1686,2.2257,2.255,2.3852,2.5261,2.5886,2.6778,2.7759,2.871,2.9069,2.9257,2.9453,2.931,0.0,0.0,0.0,0.0,0.0,0.0,0.0,0.0,0.0,0.0,0.0,0.0,0.0,0.0,0.0,0.0,0.0,3.1711,3.1711,3.1711,3.1711,3.1711,3.1711,3.1711,3.1711,3.1711,3.1356,3.1383,3.1711,3.1711,3.1503,3.1223,3.1223,3.1062,3.0795,3.0795,3.0969,3.1203,3.1557,3.1711,3.1711,3.1711,3.1711,3.1711,0.0,0.0,0.0,0.0,0.0,0.0,0.0,0.0,0.0,0.0,0.0,0.0,0.0,0.0,0.0,0.0,0.0,0.0,1.8393,1.8979,1.945,1.9801,2.0447,2.1005,2.1379,2.1896,2.2468,2.3113,2.2904,2.2851,2.2978,2.2768,2.2593,2.2525,2.2752,2.2419,2.1645,2.1498,2.1363,2.1206,2.0766,2.0648,2.0678,0.0,0.0,0.0,0.0,0.0,0.0,0.0,0.0,0.0,1.9693,1.9974,2.0269,2.0605,2.0926,2.1203,2.1203,2.1686,2.2315,2.2828,2.4364,2.59,2.6559,2.7452,2.8375,2.9275,2.8972,2.8717,2.924,2.905,0.0,0.0,0.0,0.0,0.0,0.0,0.0,0.0,0.0,0.0,0.0,0.0,0.0,0.0,0.0,0.0,0.0,3.1711,3.1711,3.1711,3.1711,3.1711,3.1711,3.1463,3.1356,3.1356,3.1062,3.1076,3.1356,3.1142,3.1009,3.0929,3.0929,3.0875,3.0795,3.0795,3.0969,3.1236,3.1316,3.149,3.1711,3.1711,3.1711,3.1711,0.0,0.0,0.0,0.0,0.0,0.0,0.0,0.0,0.0,0.0,1.8804,1.8804,0.0,0.0,0.0,0.0,0.0,0.0,0.0,1.8838,1.9219,1.9612,2.0135,2.059,2.1053,2.1499,2.1894,2.2285,2.2293,2.2466,2.2799,2.2593,2.2561,2.2704,2.2814,2.2426,2.1729,2.1372,2.1182,2.1109,2.0629,2.0612,2.0868,0.0,0.0,0.0,0.0,0.0,0.0,0.0,0.0,0.0,1.9886,2.0164,2.0488,2.0941,2.1159,2.1262,2.1525,2.2067,2.274,2.3501,2.5257,2.7013,2.8027,2.8496,2.8863,2.938,2.9063,2.8835,2.9306,2.9219,0.0,0.0,0.0,0.0,0.0,0.0,0.0,0.0,0.0,0.0,0.0,0.0,0.0,0.0,0.0,0.0,0.0,3.149,3.1436,3.1376,3.1316,3.1316,3.1316,3.1142,3.1049,3.1049,3.0755,3.0715,3.0875,3.0822,3.0728,3.0621,3.0501,3.0448,3.0448,3.0568,3.0728,3.0902,3.1129,3.133,3.1503,3.1671,3.1711,3.1711,0.0,0.0,0.0,0.0,0.0,0.0,0.0,0.0,0.0,0.0,1.8788,1.8804,0.0,0.0,0.0,0.0,0.0,0.0,0.0,1.8804,1.8986,1.9375,1.9741,2.025,2.0883,2.1216,2.1349,2.1349,2.1751,2.2143,2.2482,2.2482,2.2672,2.2965,2.2743,2.2414,2.1942,2.1082,2.0853,2.108,2.0437,2.0575,2.113,2.0809,0.0,0.0,0.0,0.0,0.0,0.0,0.0,0.0,2.0239,2.0459,2.0824,2.1511,2.1481,2.1393,2.2052,2.2696,2.3427,2.4408,2.6319,2.8303,2.9792,2.9626,2.9195,2.9225,0.0,2.9363,2.9467,2.974,0.0,0.0,0.0,0.0,0.0,0.0,0.0,0.0,0.0,0.0,0.0,0.0,0.0,0.0,0.0,0.0,0.0,3.1136,3.1062,3.0795,3.0795,3.0795,3.0795,3.0768,3.0755,3.0755,3.0507,3.036,3.0373,3.0595,3.0568,3.0346,3.0034,2.9913,2.994,3.0207,3.0386,3.0467,3.0942,3.1183,3.1263,3.153,3.165,3.1711,0.0,0.0,0.0,0.0,0.0,0.0,0.0,0.0,0.0,0.0,0.0,0.0,0.0,0.0,0.0,0.0,0.0,0.0,0.0,1.8804,1.8986,1.9375,1.998,2.048,2.0883,2.0978,2.101,2.101,2.1359,2.1851,2.2482,2.2482,2.2577,2.2699,2.2879,2.2405,2.1375,2.0906,2.0582,2.0395,2.0267,2.0444,2.0795,2.0722,2.0532,0.0,0.0,0.0,0.0,0.0,0.0,0.0,2.0502,2.0634,2.0824,2.1511,2.1642,2.173,2.2359,2.3179,2.4101,2.5081,2.6735,2.8386,2.9286,2.9187,2.8965,2.9236,2.9355,2.9471,2.9503,2.9913,0.0,0.0,0.0,0.0,0.0,0.0,0.0,0.0,0.0,0.0,0.0,0.0,0.0,0.0,0.0,0.0,3.0889,3.0889,3.0862,3.0795,3.0795,3.0795,3.0795,3.0614,3.0493,0.0,3.0154,3.0007,3.0007,3.0074,3.0074,3.0007,2.994,2.9913,2.9927,2.998,3.0154,3.0413,3.0547,3.0822,3.1236,3.1289,3.1463,3.1711,0.0,0.0,0.0,0.0,0.0,0.0,0.0,0.0,0.0,0.0,0.0,0.0,0.0,0.0,0.0,0.0,0.0,0.0,0.0,0.0,1.9042,1.9614,2.0273,2.0734,2.0899,2.0899,2.0899,2.0899,2.1074,2.1544,2.2255,2.2091,2.2237,2.2598,2.2302,2.1744,2.0941,2.0476,2.0165,2.0018,2.0018,2.0208,2.0459,2.0459,2.0356,2.021,2.021,0.0,0.0,0.0,0.0,0.0,0.0,0.0,2.1057,2.1554,2.1701,2.1906,2.2828,2.3808,2.5003,2.6844,2.7681,2.8298,2.9264,2.9199,2.9041,2.9487,2.9542,2.9566,2.9891,3.0034,0.0,0.0,0.0,0.0,0.0,0.0,0.0,0.0,0.0,0.0,0.0,0.0,0.0,0.0,0.0,3.0728,3.0641,3.0581,3.0515,3.0381,3.0368,3.0368,3.0368,3.0221,3.0154,3.014,2.9993,2.9913,2.9913,2.9913,2.9913,2.9913,2.9913,2.9913,2.9913,2.9913,3.0007,3.0167,3.0346,3.0587,3.0822,3.0969,3.1116,3.1276,0.0,0.0,0.0,0.0,0.0,0.0,0.0,0.0,0.0,0.0,0.0,0.0,0.0,0.0,0.0,0.0,0.0,0.0,0.0,0.0,0.0,1.9869,2.0543,2.0899,2.0899,2.0899,2.0899,2.0899,2.0974,2.1386,2.2078,2.1806,2.1954,2.2428,2.175,2.1152,2.0577,2.0094,1.9811,1.9708,1.9793,1.9916,2.0122,2.0122,2.0122,2.0122,2.0122,2.0298,2.0502,2.0342,0.0,0.0,0.0,0.0,2.1276,2.1598,2.1701,2.1993,2.331,2.4565,2.6024,2.8329,2.8451,2.8331,2.9338,2.9333,2.9228,2.9806,2.9766,2.9824,3.0319,0.0,0.0,0.0,0.0,0.0,0.0,0.0,0.0,0.0,0.0,0.0,0.0,0.0,0.0,0.0,0.0,3.0541,3.0346,3.0333,3.0167,2.9927,2.9913,2.9913,2.9913,2.9913,2.9913,2.9913,2.9913,2.9913,2.9913,2.9913,2.9913,2.9913,2.9913,2.9913,2.9913,2.9913,2.9913,2.994,3.0226,3.036,3.044,3.0635,3.0755,3.0835,0.0,0.0,0.0,0.0,0.0,0.0,0.0,0.0,0.0,0.0,1.8414,1.8662,0.0,0.0,0.0,0.0,0.0,0.0,1.8303,0.0,0.0,1.9909,2.0543,2.0899,2.0899,2.0899,2.0899,2.0899,2.1254,2.176,2.2414,2.2386,2.2166,2.1833,2.2286,2.1665,2.0265,2.0194,1.9842,1.9386,1.9679,1.9811,1.9855,1.9855,1.9855,1.9855,1.9855,1.9884,2.0001,2.0459,2.0692,0.0,0.0,0.0,2.1276,2.1598,2.1701,2.2037,2.362,2.5511,2.7107,2.7515,2.8167,2.8752,2.9014,2.9276,2.9513,0.0,3.0087,3.0319,3.0386,0.0,0.0,0.0,0.0,0.0,0.0,0.0,0.0,0.0,0.0,0.0,0.0,0.0,0.0,0.0,3.0181,3.002,2.998,2.998,2.9953,2.9913,2.9913,2.9913,2.9913,2.9913,2.9913,2.9913,2.9913,2.9913,2.9913,2.9913,2.9913,2.9913,2.9913,2.9913,2.9913,2.9913,2.9913,2.9913,2.9967,3.014,3.0413,3.0453,3.0627,3.0835,0.0,0.0,0.0,0.0,0.0,0.0,0.0,0.0,0.0,0.0,0.0,1.8478,0.0,0.0,0.0,1.7546,1.7832,1.8176,1.8573,1.9225,1.9694,1.9884,2.0353,2.0718,2.0899,2.0899,2.0822,2.0668,2.1428,2.1958,2.2291,2.2823,2.2841,2.2453,2.2038,2.1449,2.0722,2.0208,1.9813,1.9576,1.9532,1.9518,1.9518,1.9518,1.9518,1.9518,1.9518,1.9635,1.9855,2.0269,2.0546,2.0751,2.1072,0.0,0.0,0.0,2.1554,2.2139,2.4043,2.5834,2.7252,2.7617,2.807,2.8565,2.8898,2.9272,2.9619,3.0074,3.0319,3.04,0.0,0.0,0.0,0.0,0.0,0.0,0.0,0.0,0.0,0.0,0.0,0.0,0.0,0.0,0.0,0.0,2.9993,2.9913,2.9913,2.9913,2.9913,2.9913,2.9913,2.9913,2.9913,2.9913,2.9913,2.9913,2.9913,2.9913,2.9913,2.9913,2.9913,2.9913,2.9913,2.9913,2.9913,2.9913,2.9913,2.9913,2.9913,2.9993,3.0114,3.0114,3.0194,3.0341,0.0,0.0,0.0,0.0,0.0,0.0,0.0,0.0,0.0,0.0,0.0,0.0,0.0,0.0,0.0,0.0,1.7594,1.8065,1.8757,1.9177,1.955,1.9893,2.0234,2.0559,2.0883,2.0804,2.0629,2.0364,2.1217,2.1734,2.1991,2.2854,2.3282,2.3329,2.2185,2.1511,2.1159,2.0442,2.0016,1.9767,1.9532,1.9371,1.9298,1.9298,1.94,1.952,1.952,0.0,0.0,0.0,0.0,2.0649,2.1086,2.1203,0.0,0.0,0.0,2.2278,2.3866,2.5382,2.6627,2.7075,2.7513,2.8005,2.8521,2.8991,2.9406,0.0,3.002,3.002,0.0,0.0,0.0,0.0,0.0,0.0,0.0,0.0,0.0,0.0,0.0,0.0,0.0,0.0,0.0,0.0,2.9913,2.9913,2.9913,2.9913,2.9913,2.9913,2.9913,2.9913,2.9913,2.9913,2.9913,2.9913,2.9913,2.9913,2.9913,2.9913,2.9913,2.9913,2.9913,2.9913,2.9913,2.9913,2.9913,2.9913,2.9913,2.9913,2.9913,2.9913,2.9913,2.9967,0.0,0.0,0.0,0.0,0.0,0.0,0.0,0.0,0.0,0.0,0.0,0.0,1.8303,1.8007,1.7679,1.7323,1.7594,1.8065,1.8757,1.9177,1.955,1.9893,2.0234,0.0,2.0883,2.0591,2.0291,2.0031,2.0393,2.0952,2.1648,2.2318,2.3135,2.4016,2.331,2.2345,2.1203,2.1159,2.0603,1.9796,1.9767,1.9576,1.9298,1.9298,1.9652,2.0166,0.0,0.0,0.0,0.0,0.0,0.0,0.0,0.0,2.1203,0.0,0.0,0.0,2.2598,2.3762,2.497,2.5187,2.6091,2.7041,2.7629,2.823,2.8738,2.9001,2.9068,2.9068,0.0,0.0,0.0,0.0,0.0,0.0,0.0,0.0,0.0,0.0,0.0,0.0,0.0,0.0,0.0,0.0,2.9913,2.9913,2.9913,2.9913,2.9913,2.9913,2.9913,2.9913,2.9913,2.9913,2.9913,2.9913,2.9913,2.9913,2.9913,2.9913,2.9913,2.9913,2.9913,2.9913,2.9913,2.9913,2.9913,2.9913,2.9913,2.9913,2.9913,2.9913,2.9913,2.9967,0.0,0.0,0.0,0.0,0.0,0.0,0.0,0.0,0.0,0.0,0.0,0.0,0.0,1.8319,1.8065,1.7938,1.8049,1.8319,1.8773,1.8931,1.9177,1.955,1.99,2.025,2.0575,2.0288,2.0,1.9739,2.0272,2.0843,2.1376,2.2419,2.3237,2.3749,2.331,2.2857,2.2374,2.1554,2.0881,2.0369,2.015,1.9872,1.9679,2.0281,0.0,0.0,0.0,0.0,0.0,0.0,0.0,0.0,0.0,0.0,0.0,2.1203,2.1727,2.2329,2.2216,2.3189,2.4252,2.4478,2.5398,2.6373,2.6774,2.7468,2.8056,2.8163,2.8337,2.8404,0.0,0.0,0.0,0.0,0.0,0.0,0.0,0.0,0.0,0.0,0.0,0.0,0.0,0.0,0.0,0.0,0.0,2.9308,2.9308,2.9539,2.9633,2.9633,2.982,2.9913,2.9913,2.9913,2.9913,2.9913,2.9913,2.9913,2.9913,2.9913,2.9913,2.9913,2.9913,2.9913,2.9913,2.9913,2.9913,2.9913,2.9913,2.9913,2.9913,2.9913,2.9913,2.9927,0.0,0.0,0.0,0.0,0.0,0.0,0.0,0.0,0.0,1.7928,0.0,0.0,0.0,0.0,1.8303,1.8303,1.8303,1.8446,1.8788,1.8804,1.8986,1.9375,1.9637,1.9912,2.026,2.0,1.9677,1.9305,1.987,2.0288,2.0589,2.1876,2.271,2.312,2.3003,2.2886,2.274,2.1891,2.1218,2.0678,2.0459,2.0181,2.0003,0.0,0.0,0.0,0.0,0.0,0.0,0.0,0.0,0.0,0.0,0.0,0.0,0.0,0.0,2.1491,2.1449,2.2185,2.3025,2.3263,2.4209,2.517,2.5571,2.6333,2.7028,2.7215,2.7456,2.759,2.7549,0.0,0.0,0.0,0.0,0.0,0.0,0.0,0.0,0.0,0.0,0.0,0.0,0.0,0.0,0.0,0.0,0.0,2.9001,2.9232,2.9379,2.9486,2.9766,2.9913,2.9913,2.9913,2.9913,2.9913,2.9913,2.9913,2.9913,2.9913,2.9913,2.9913,2.9913,2.9913,2.9913,2.9913,2.9913,2.9913,2.9913,2.9913,2.9913,2.9913,2.9913,2.9913,0.0,0.0,0.0,0.0,0.0,0.0,0.0,0.0,1.7928,1.8255,0.0,0.0,0.0,0.0,0.0,1.8335,1.8335,1.8478,1.8788,1.8804,1.8963,1.9375,1.9444,1.9641,1.9984,1.9723,1.9295,1.8701,1.9015,1.9231,1.9327,2.0589,2.1525,2.2154,2.2447,2.2418,2.217,2.2184,2.1613,2.0722,0.0,2.0532,2.0283,0.0,0.0,0.0,2.3062,2.3179,0.0,2.3179,0.0,0.0,0.0,0.0,0.0,0.0,0.0,0.0,0.0,0.0,0.0,2.1489,2.2418,2.3412,2.4022,0.0,2.5625,2.6199,2.6333,2.652,2.7135,0.0,0.0,0.0,0.0,0.0,0.0,0.0,0.0,0.0,0.0,0.0,0.0,0.0,0.0,0.0,2.8948,2.8948,2.8961,2.8975,2.9165,2.9472,2.9753,2.9913,2.9913,2.9913,2.9913,2.9913,2.9913,2.9913,2.9913,2.9913,2.9913,2.9913,2.9913,2.9913,2.9913,2.9913,2.9913,2.9913,2.9913,2.9913,2.9913,2.9913,2.9913,2.9913,0.0,0.0,0.0,0.0,0.0,1.8953,1.838,1.8208,1.8192,0.0,0.0,0.0,1.9177,1.9375,1.936,1.9121,1.9105,1.9002,1.882,1.8804,1.8783,1.8753,1.9222,1.9459,1.9355,1.9325,1.9235,1.907,1.8972,1.9026,1.9312,2.012,2.0692,2.1145,2.1467,2.1423,2.1159,2.1628,2.1672,2.1423,2.1423,2.1379,0.0,0.0,0.0,0.0,0.0,2.4759,2.4232,0.0,2.3659,2.2081,0.0,0.0,0.0,0.0,0.0,0.0,2.0005,0.0,0.0,0.0,0.0,0.0,0.0,0.0,2.4338,2.4499,2.4836,2.5237,2.5611,0.0,0.0,0.0,0.0,0.0,0.0,0.0,0.0,0.0,0.0,0.0,0.0,0.0,0.0,0.0,2.7762,2.7843,2.8056,2.8484,2.8965,2.9472,2.9566,2.97,2.9913,2.9913,2.9913,2.9913,2.9913,2.9913,2.9913,2.9913,2.9913,2.9913,2.9913,2.9913,2.9913,2.9913,2.9913,2.9913,2.9913,2.9913,2.9913,2.9913,2.9913,2.9913,0.0,0.0,0.0,0.0,0.0,1.9475,1.9033,1.8978,1.8978,0.0,0.0,0.0,1.9582,1.9773,1.9805,1.9614,1.9376,1.9131,1.8886,1.8652,1.852,1.8535,1.894,1.917,1.9143,1.9199,1.9176,1.9027,1.9023,1.9049,1.9107,1.974,2.0135,2.034,2.0662,2.0663,2.0532,2.1072,0.0,0.0,2.1789,0.0,0.0,2.3208,2.3852,0.0,0.0,0.0,2.5461,2.5959,2.4657,0.0,0.0,0.0,0.0,0.0,0.0,0.0,0.0,0.0,0.0,0.0,0.0,0.0,2.1804,2.2472,2.3094,0.0,2.3674,2.4186,2.4636,2.4716,0.0,0.0,0.0,0.0,0.0,0.0,0.0,0.0,0.0,0.0,0.0,2.7309,2.7309,2.7309,2.7309,2.7429,2.7682,2.815,2.8631,2.9098,2.9352,2.9566,2.9726,2.986,2.9913,2.9913,2.9913,2.9913,2.9913,2.9913,2.9913,2.9913,2.9913,2.9913,2.9913,2.9913,2.9913,2.9913,2.9913,2.9913,2.9913,2.9913,2.9913,2.9913,0.0,0.0,2.1739,2.1071,2.0523,2.0119,1.9933,1.9884,1.9884,0.0,1.994,1.9979,2.0058,2.0018,1.9945,1.9938,1.9404,1.9041,1.8995,1.8503,1.8331,1.8588,1.8703,1.887,1.9154,1.9265,1.9166,1.8873,1.9166,1.9151,1.8873,1.9459,1.9737,1.9752,2.0003,2.0108,2.0122,2.0488,0.0,2.132,2.2052,2.2608,0.0,0.0,2.4573,2.5481,2.6427,2.6749,2.6735,2.6845,2.5227,0.0,0.0,0.0,0.0,0.0,1.941,0.0,0.0,0.0,0.0,0.0,0.0,0.0,2.1002,2.147,2.1911,0.0,2.2652,2.3225,2.3848,2.3955,2.4168,0.0,0.0,0.0,0.0,0.0,0.0,0.0,0.0,0.0,2.7081,2.7108,2.7108,2.7108,2.7175,2.7336,2.7589,2.7951,2.8272,2.8551,2.9098,2.9419,2.9486,2.974,2.9887,2.9913,2.9913,2.9913,2.9913,2.9913,2.9913,2.9913,2.9887,2.9873,2.9873,2.9873,2.9887,2.9913,2.9913,2.9913,2.9913,2.9913,2.9913,2.9913,0.0,2.1624,2.0928,2.0859,2.0345,1.9933,1.9909,1.9884,1.9884,1.9884,2.0194,2.0607,2.1138,2.0741,2.0348,2.0087,1.9698,1.9367,1.9091,1.8966,1.8844,1.8699,1.895,1.9018,1.889,1.9162,1.9268,1.921,1.9268,1.9268,1.921,1.9342,1.94,1.94,1.9459,1.9488,1.9506,2.0064,0.0,2.1701,2.2857,0.0,2.5432,2.6076,2.6617,2.7166,2.8081,2.8271,2.783,0.0,2.5064,2.3511,0.0,0.0,0.0,0.0,0.0,0.0,0.0,0.0,0.0,0.0,0.0,0.0,2.0779,2.0886,2.098,0.0,2.1296,2.1724,2.2311,2.2418,2.28,0.0,0.0,0.0,0.0,0.0,0.0,0.0,0.0,0.0,2.5852,2.5852,2.5852,2.5852,2.6293,2.668,2.6974,2.7495,2.7965,2.8272,2.8591,2.9005,2.9486,2.9539,2.9686,2.9913,2.9913,2.9913,2.9913,2.9913,2.9913,2.99,2.9673,2.9566,2.9566,2.9566,2.9713,2.9913,2.9913,2.9913,2.9913,2.9913,2.9913,2.9913,2.262,2.1896,2.1321,2.1102,2.0832,2.0655,2.0655,2.067,2.0704,2.0704,2.0757,2.094,2.1279,2.1021,2.0773,2.062,2.0169,1.9758,1.9411,1.912,1.8905,1.8755,1.8903,1.9015,1.9049,1.921,1.9298,1.9298,1.9298,1.9298,1.9298,1.9298,1.9298,1.9298,1.9298,1.9386,1.9576,2.0006,2.0955,2.2242,2.3208,0.0,2.5822,2.6676,2.718,2.7531,2.8472,2.8662,2.8211,2.6411,2.5246,0.0,0.0,2.1626,2.1251,0.0,2.0253,2.0183,0.0,0.0,0.0,2.0414,0.0,0.0,0.0,2.0347,2.0241,2.0241,2.0588,2.0989,2.1315,0.0,2.1844,2.2773,2.35,0.0,0.0,0.0,0.0,0.0,0.0,0.0,2.5053,2.5211,2.5358,2.5504,2.5785,2.6146,2.6587,2.6881,2.7296,2.7737,2.8179,2.8567,2.8861,2.9259,2.9553,2.97,2.9847,2.9847,2.97,2.97,2.9619,2.9428,2.9325,2.9259,2.9259,2.9259,2.9432,2.9713,2.986,2.9913,2.9913,2.9913,2.9913,2.99,2.2712,2.2255,2.1801,2.1292,2.1289,2.1317,2.1317,2.1388,2.1461,2.1511,2.1389,2.1331,2.1364,2.1458,2.1448,2.1387,2.0953,2.0473,2.0011,1.9534,1.9228,1.9169,1.9038,1.9125,1.9474,1.9371,1.9298,1.9298,1.9298,1.9298,1.9298,1.9298,1.9298,1.9312,1.9371,1.9547,1.9825,2.0296,0.0,2.2578,0.0,2.443,2.5792,2.6735,2.7277,2.7693,2.8557,2.8631,2.8073,2.6419,0.0,2.4646,2.2566,2.1838,0.0,0.0,0.0,0.0,0.0,0.0,0.0,0.0,0.0,1.9947,0.0,0.0,0.0,1.972,2.0124,0.0,0.0,0.0,0.0,0.0,0.0,0.0,0.0,0.0,0.0,0.0,0.0,0.0,2.4452,2.4636,2.4863,2.5157,2.5224,2.5491,2.6026,2.6213,2.6547,2.7122,2.7657,2.8018,2.8179,2.8901,2.9312,2.9486,2.9659,2.9659,2.9486,2.9419,2.9272,2.8988,2.8935,2.8908,2.8908,2.8908,2.9098,2.9352,2.97,2.986,2.9913,2.9913,2.9913,2.9873,2.229,2.1743,2.1292,2.1002,2.1003,2.1043,2.1043,2.1109,2.1255,2.1561,2.1815,2.2094,2.2393,2.2689,0.0,2.2464,0.0,0.0,2.1099,0.0,2.078,2.0488,1.9959,1.9825,2.0093,1.9564,1.9298,1.9298,1.9298,1.9298,1.9298,1.9298,1.9298,1.9312,1.9605,1.9752,1.9869,2.1028,2.1803,0.0,2.3226,2.4709,0.0,2.7095,2.7841,2.8625,2.9197,2.8492,2.7191,0.0,2.5378,2.3883,0.0,2.2726,2.2184,0.0,0.0,0.0,0.0,0.0,0.0,0.0,2.0428,0.0,0.0,0.0,1.9441,1.9441,0.0,0.0,0.0,0.0,0.0,0.0,0.0,0.0,2.1836,0.0,0.0,2.4182,2.4075,2.3937,0.0,2.3661,2.3647,2.3977,2.4209,2.4489,2.4786,2.5571,2.6198,2.648,2.68,2.7348,2.8179,2.8286,2.8741,2.9486,2.9245,2.9259,2.9472,2.9205,2.9028,2.8988,2.8764,2.8657,2.8657,2.8657,2.8671,2.8764,2.9312,2.9686,2.9913,2.9913,2.9913,2.9873,2.208,2.1547,2.0976,2.0719,2.0887,2.1056,2.1056,2.1298,2.1502,2.1648,2.1786,2.2201,0.0,0.0,0.0,0.0,0.0,2.3427,0.0,0.0,2.154,2.0999,2.0384,0.0,1.9959,1.9723,1.9488,1.9298,1.9298,1.9298,1.9298,1.9298,1.94,1.9591,1.9723,2.0309,2.1203,0.0,2.2243,0.0,0.0,0.0,0.0,2.6081,2.6927,2.7796,2.8112,2.7472,2.6459,0.0,2.5496,0.0,0.0,0.0,0.0,0.0,0.0,0.0,0.0,0.0,0.0,0.0,0.0,0.0,2.0197,0.0,1.9401,0.0,0.0,0.0,0.0,0.0,0.0,0.0,2.0686,0.0,0.0,0.0,0.0,0.0,0.0,0.0,2.2746,0.0,0.0,2.3255,2.3527,2.3821,2.4115,2.481,2.5331,2.5625,2.6239,2.6747,2.7162,2.7844,2.8379,2.8754,2.8938,2.8975,2.8978,2.8845,2.8684,2.8511,2.8433,2.8379,2.8379,2.8379,2.8444,2.8644,2.9058,2.9299,2.9388,2.9606,2.9553,2.9322,2.1598,2.1139,2.0632,2.0561,2.0765,2.0991,2.1106,2.1586,2.1979,2.2067,2.255,0.0,2.4276,2.4788,0.0,0.0,2.5833,2.5374,0.0,0.0,2.2945,0.0,0.0,0.0,0.0,2.006,1.9679,1.943,1.9342,1.9298,1.9298,1.94,1.9561,1.9796,1.9891,2.0623,2.1787,0.0,2.2432,2.3766,2.3947,2.4281,2.4729,2.5463,2.6233,2.6955,2.7216,2.6747,2.6024,2.6238,2.5598,0.0,2.4516,0.0,0.0,0.0,0.0,0.0,2.2498,0.0,0.0,0.0,0.0,0.0,0.0,0.0,0.0,0.0,0.0,0.0,0.0,0.0,0.0,0.0,0.0,2.0324,0.0,0.0,0.0,0.0,0.0,0.0,0.0,2.1857,2.2031,2.2278,2.2699,2.302,2.3188,2.4022,2.4623,2.4836,2.5611,2.6146,2.6386,2.7362,2.7951,2.8192,2.8577,2.8724,2.8604,2.8524,2.8393,2.8179,2.8179,2.8179,2.8179,2.8179,2.8312,2.8524,2.8855,2.8895,2.8845,2.9312,2.9299,2.8948,2.0591,2.0318,2.0245,2.054,2.0623,2.0746,2.1143,0.0,0.0,0.0,0.0,0.0,0.0,0.0,0.0,0.0,0.0,2.8081,2.6515,0.0,2.5608,0.0,0.0,2.2257,0.0,0.0,1.9781,1.9767,1.9459,1.9298,1.9312,1.962,1.9781,1.9811,2.0152,2.0458,2.0787,2.1415,2.2202,2.306,2.3323,2.3757,2.4388,0.0,2.6457,2.6506,2.7095,0.0,0.0,2.6011,2.561,0.0,0.0,0.0,0.0,0.0,0.0,0.0,0.0,0.0,0.0,2.2358,0.0,0.0,0.0,0.0,1.9867,0.0,0.0,0.0,0.0,0.0,0.0,0.0,0.0,0.0,0.0,0.0,0.0,0.0,0.0,0.0,0.0,2.0895,2.0766,2.0779,2.1569,2.1943,2.1676,2.3273,2.4222,2.4235,2.481,2.5531,2.6386,2.6707,2.7295,2.8179,2.8205,2.8366,2.8591,2.8339,2.8192,2.8179,2.8179,2.8179,2.8179,2.8179,2.8192,2.8259,2.8804,2.8684,2.8312,2.9165,2.9299,2.8948,2.0357,2.0223,2.0193,2.0328,2.0342,0.0,0.0,2.2154,0.0,0.0,0.0,0.0,0.0,2.8101,2.8754,0.0,0.0,2.8578,2.7794,2.664,0.0,0.0,0.0,2.2652,0.0,0.0,0.0,0.0,1.9933,1.9916,1.9916,1.9991,2.0085,2.0137,2.0242,2.0829,0.0,0.0,0.0,0.0,0.0,2.4733,2.5117,0.0,0.0,2.5879,2.648,2.6239,0.0,2.6119,2.577,2.5181,2.5569,2.5436,2.5064,2.4957,2.4716,0.0,0.0,0.0,2.2985,2.2985,0.0,0.0,0.0,0.0,0.0,0.0,0.0,0.0,0.0,0.0,0.0,0.0,0.0,0.0,0.0,0.0,0.0,0.0,0.0,0.0,0.0,0.0,0.0,2.0388,2.0842,2.1274,2.1569,2.2706,2.3536,2.3901,2.4676,2.5224,2.5556,2.6199,2.6787,2.7268,2.7669,2.8045,2.8339,2.8232,2.8179,2.8179,2.8179,2.8179,2.8179,2.8179,2.8179,2.8219,2.8591,2.8631,2.8511,2.9005,2.8871,2.8473,2.0616,2.0371,0.0,0.0,0.0,0.0,0.0,0.0,0.0,0.0,2.5915,0.0,2.8452,0.0,2.9621,0.0,2.9822,2.9398,2.8973,2.7744,0.0,2.6199,2.4747,0.0,0.0,0.0,0.0,0.0,2.0502,2.0272,2.0046,2.019,2.0197,2.0118,2.0118,2.0691,2.1655,2.1583,2.2645,0.0,0.0,2.5531,0.0,0.0,2.5692,2.5585,0.0,2.6146,2.5879,2.6266,2.6012,2.5611,2.6024,2.5891,2.5545,2.5545,2.5411,2.5226,2.5226,2.4586,0.0,2.3955,2.2832,0.0,2.1871,0.0,0.0,0.0,0.0,0.0,0.0,0.0,0.0,0.0,0.0,0.0,0.0,1.8676,0.0,0.0,0.0,0.0,0.0,0.0,1.9783,1.992,2.0201,2.0565,0.0,2.1997,2.2719,2.3014,2.387,2.4486,2.477,2.5531,2.6172,2.668,2.7362,2.7802,2.8031,2.8138,2.8179,2.8179,2.8179,2.8179,2.8179,2.8179,2.8179,2.8219,2.8484,2.8604,2.8631,2.8775,2.8564,2.8179,2.1232,0.0,0.0,0.0,2.1306,0.0,0.0,0.0,2.4983,0.0,2.7715,2.9174,2.9833,3.0715,3.1154,3.0805,3.0746,0.0,2.9895,2.9237,0.0,0.0,2.612,2.5127,2.4533,0.0,0.0,0.0,0.0,2.0452,1.9858,2.0172,2.0132,1.9794,1.98,2.0121,2.0678,2.0715,2.1917,2.395,2.5598,2.5945,2.5504,2.6092,2.5959,2.5545,2.6172,2.6373,2.6373,2.6386,2.6386,2.6386,2.6386,2.6386,2.6386,2.6386,2.6386,2.6386,2.6386,2.5758,2.5104,2.5104,0.0,0.0,0.0,0.0,2.2552,0.0,0.0,0.0,0.0,0.0,0.0,0.0,0.0,0.0,0.0,0.0,0.0,0.0,0.0,0.0,0.0,1.9092,1.9038,1.9348,1.9599,1.9773,0.0,2.1176,2.1863,2.1609,2.2465,2.3335,2.4168,2.4783,2.5518,2.6373,2.7255,2.7682,2.7709,2.8045,2.8179,2.8179,2.8179,2.8179,2.8179,2.8179,2.8179,2.8219,2.847,2.8591,2.8591,2.8604,2.8417,2.8179,2.1262,2.1276,2.1423,0.0,2.195,2.236,0.0,0.0,0.0,0.0,2.7993,2.9174,2.9833,3.051,3.0878,3.079,3.0393,0.0,0.0,0.0,0.0,2.7266,2.6219,2.5354,2.4736,2.3812,0.0,2.1923,0.0,2.1048,2.0455,2.0343,2.013,1.9814,1.981,2.0004,2.0358,2.0806,2.2071,2.387,2.4489,2.4676,0.0,0.0,2.4959,2.4959,2.6026,2.6253,2.6145,2.6319,2.6386,2.6386,2.6386,2.6386,2.6386,2.6386,2.6386,2.6386,2.6386,2.5905,2.5398,2.5398,2.4623,2.3875,0.0,0.0,0.0,0.0,0.0,0.0,0.0,0.0,0.0,0.0,0.0,0.0,0.0,0.0,0.0,1.8811,0.0,0.0,0.0,1.8943,1.893,1.9025,1.9076,1.941,2.0064,0.0,2.1496,2.189,2.2739,2.342,2.391,2.4713,2.5449,2.6118,2.7001,2.7495,2.7709,2.8045,2.8179,2.8179,2.8179,2.8179,2.8179,2.8179,2.8179,2.8192,2.8272,2.8299,2.8326,2.8524,2.8417,2.8179,2.1891,0.0,0.0,2.2506,0.0,0.0,2.372,0.0,0.0,2.7071,2.8315,0.0,2.9566,3.0163,3.0457,3.0234,2.966,0.0,2.8936,0.0,0.0,2.6967,2.6392,2.5732,2.5,2.4343,0.0,2.2428,0.0,2.1243,2.0526,2.0207,1.9938,1.962,1.962,1.9827,2.0277,2.1403,2.2492,2.3482,2.4262,2.4516,0.0,2.4826,2.4906,2.4943,2.5904,2.6131,2.6024,2.6185,2.6279,2.6386,2.6386,2.6386,2.6386,2.6386,2.6386,2.6386,2.6386,2.6146,2.5892,2.5892,2.5424,2.5007,2.5007,2.4609,2.4306,0.0,0.0,0.0,0.0,0.0,0.0,0.0,0.0,0.0,0.0,0.0,0.0,0.0,1.9292,0.0,0.0,1.889,1.8956,1.9105,1.897,1.917,0.0,0.0,2.0851,2.1203,2.2084,2.2752,2.318,2.3941,2.4609,2.5248,2.6386,2.7015,2.7148,2.7871,2.8179,2.8179,2.8179,2.8179,2.8179,2.8179,2.8179,2.8205,2.8339,2.8312,2.8219,2.8497,2.8417,2.8179,2.2798,0.0,0.0,0.0,0.0,0.0,0.0,2.5568,0.0,2.7399,0.0,2.9181,2.9151,2.971,2.9942,2.9467,0.0,2.8543,2.8475,2.7876,2.7248,2.661,2.6557,2.6162,2.5252,2.4693,0.0,0.0,0.0,2.1158,2.0285,1.9914,1.962,1.9401,1.9401,1.9706,0.0,2.2077,2.2827,2.3014,2.4432,2.481,2.4599,2.5184,2.5264,2.5181,2.569,2.5904,2.5957,2.6024,2.6225,2.6386,2.6386,2.6386,2.6386,2.6386,2.6386,2.6386,2.6386,2.6386,2.6386,2.6386,2.6238,2.6051,2.6051,2.5785,2.5491,2.5197,2.4636,2.3941,0.0,0.0,0.0,0.0,0.0,0.0,0.0,0.0,0.0,0.0,0.0,0.0,0.0,0.0,1.9025,1.9321,1.9065,0.0,0.0,0.0,2.0197,2.0197,2.1122,2.1903,2.2418,0.0,2.3661,2.4222,2.5651,2.636,2.6426,2.7603,2.8152,2.8179,2.8179,2.8179,2.8179,2.8179,2.8179,2.8219,2.8484,2.846,2.8219,2.8497,2.8417,2.8179,2.3442,0.0,0.0,0.0,0.0,2.5267,2.5539,2.6078,2.6629,2.7173,2.7883,2.8422,2.8691,2.9241,2.9509,2.9214,2.8822,0.0,0.0,0.0,0.0,2.6438,2.6438,2.6129,2.5447,2.5136,2.4286,0.0,0.0,0.0,2.0207,1.9701,1.9459,1.9401,1.9401,1.9856,2.0668,2.1729,0.0,2.2987,2.3955,2.4329,2.4315,2.4626,2.4903,2.509,2.5235,2.5384,2.5665,2.6146,2.6346,2.6386,2.6386,2.6386,2.6386,2.6386,2.6386,2.6386,2.6386,2.6386,2.6386,2.6386,2.6346,2.6319,2.6319,2.6131,2.5837,2.5504,2.4783,2.4008,2.3367,0.0,0.0,0.0,0.0,0.0,0.0,0.0,0.0,0.0,0.0,2.0277,0.0,0.0,0.0,0.0,0.0,0.0,0.0,0.0,2.0197,0.0,2.1323,0.0,0.0,0.0,2.3861,2.4222,2.5489,2.6198,2.6426,2.7348,2.7951,2.8179,2.8179,2.8179,2.8179,2.8179,2.8179,2.8219,2.8484,2.846,2.8219,2.8497,2.8417,2.8179,0.0,0.0,0.0,0.0,0.0,0.0,0.0,2.6494,0.0,2.7353,2.8095,2.8546,2.8454,2.8841,2.8952,2.8427,2.8085,2.7703,2.7176,2.6878,2.6584,2.6386,2.6386,0.0,2.5531,2.5077,2.4195,2.2893,0.0,0.0,2.0197,1.9947,1.9653,1.9401,1.9562,2.003,0.0,0.0,0.0,2.3166,2.3901,2.4289,2.4426,2.4756,2.4957,2.5155,2.5462,2.5663,2.5785,2.6105,2.6266,2.6386,2.6386,2.6386,2.6386,2.6386,2.6386,2.6386,2.6386,2.6386,2.6386,2.6386,2.6386,2.6386,2.6386,2.6279,2.6131,2.5798,2.5291,2.4663,2.3915,2.2806,0.0,0.0,0.0,0.0,0.0,0.0,0.0,0.0,0.0,0.0,0.0,0.0,0.0,0.0,0.0,0.0,0.0,0.0,2.005,0.0,0.0,0.0,0.0,0.0,0.0,2.4209,2.5237,2.5959,2.6413,2.7295,2.7949,2.8419,2.8259,2.8272,2.8364,2.8085,2.7951,2.7965,2.8083,2.8043,2.7991,2.8299,2.8312,2.8179,0.0,2.4365,0.0,0.0,2.5463,0.0,2.65,2.6859,2.717,2.7473,2.8245,2.8538,2.8111,2.8383,2.8285,2.759,2.7308,2.7041,2.6747,2.652,2.6386,2.6386,2.6333,2.6052,2.5518,2.4839,2.3995,0.0,0.0,0.0,0.0,2.0264,2.012,1.9776,0.0,0.0,0.0,0.0,2.2659,2.3474,2.4062,2.4439,2.4756,2.4997,2.5195,2.5369,2.5837,2.6038,2.6091,2.6091,2.6238,2.6386,2.6386,2.6386,2.6386,2.6386,2.6426,2.648,2.648,2.6533,2.656,2.6493,2.648,2.6466,2.64,2.6386,2.6306,2.6051,2.5703,2.5184,2.4436,2.3474,0.0,0.0,0.0,0.0,0.0,0.0,0.0,0.0,0.0,0.0,0.0,0.0,0.0,0.0,0.0,0.0,1.9401,0.0,0.0,0.0,0.0,2.1796,2.2371,0.0,2.3554,2.4209,2.5024,2.5758,2.6413,2.7228,2.7936,2.8497,2.8366,2.8377,2.8564,2.7949,2.7696,2.7696,2.7696,2.7696,2.7736,2.8072,2.8179,2.8179,0.0,0.0,0.0,0.0,0.0,0.0,2.6856,2.7148,2.731,2.731,2.7605,2.7726,2.7417,2.7645,2.755,2.6947,2.684,2.6734,2.6453,2.64,2.6386,2.6386,2.6172,2.5877,2.5518,2.4676,2.3794,0.0,0.0,0.0,0.0,0.0,0.0,0.0,0.0,0.0,0.0,2.2559,2.3188,2.3817,2.4319,2.477,2.5037,2.5101,2.5449,2.5917,2.5971,2.6172,2.6346,2.6346,2.6373,2.6386,2.6386,2.6386,2.6386,2.6386,2.6573,2.6747,2.6747,2.6974,2.7162,2.6854,2.6747,2.6707,2.6453,2.6386,2.6306,2.6051,2.5543,2.501,2.4626,2.4252,2.3941,0.0,0.0,0.0,0.0,0.0,0.0,0.0,0.0,0.0,0.0,2.0788,0.0,0.0,1.9693,0.0,0.0,0.0,0.0,2.0197,0.0,2.1563,2.2371,2.2739,2.334,2.4209,2.4823,2.5571,2.6413,2.7068,2.767,2.8245,2.8457,2.8577,2.8564,2.7949,2.7696,2.7696,2.7696,2.7696,2.7736,2.8072,2.8179,2.8179,0.0,0.0,0.0,0.0,0.0,0.0,0.0,2.7498,2.763,2.7804,2.7938,2.7965,2.7844,2.7777,2.7535,2.7121,2.6921,2.6694,2.6413,2.6386,2.6386,2.6386,2.6319,2.5999,2.5518,2.4997,2.4209,0.0,0.0,0.0,0.0,0.0,0.0,0.0,0.0,2.2058,2.2819,2.3268,2.3884,2.4596,2.4997,2.5237,2.5358,2.5583,2.5797,2.6011,2.6198,2.6293,2.6386,2.6386,2.6386,2.6386,2.6386,2.6386,2.6426,2.66,2.6734,2.6827,2.7041,2.7215,2.7282,2.7121,2.7094,2.7014,2.672,2.6653,2.656,2.6319,2.5745,2.5251,2.4957,2.4516,2.4115,0.0,0.0,0.0,0.0,0.0,0.0,0.0,0.0,0.0,0.0,0.0,0.0,0.0,0.0,0.0,0.0,0.0,0.0,2.0184,0.0,2.1617,2.2672,2.3201,2.3977,2.4997,2.5224,2.5892,2.6961,2.7202,2.7724,2.843,2.8551,2.8604,2.8551,2.7762,2.7535,2.7682,2.7509,2.7549,2.7736,2.8072,2.8179,2.8179,2.5663,0.0,2.6118,0.0,2.668,2.7014,2.7602,2.7696,2.7802,2.8138,2.8179,2.8152,2.8058,2.7829,2.7549,2.7175,2.6947,2.6694,2.6413,2.6386,2.6386,2.6386,2.6306,0.0,2.5651,2.5184,2.4502,2.3545,2.2945,0.0,0.0,0.0,0.0,0.0,2.2632,2.3086,2.3861,2.4062,2.4569,2.5224,2.5424,2.5558,2.5665,2.5917,2.6051,2.6145,2.6319,2.6386,2.6386,2.6386,2.6386,2.6386,2.6386,2.6386,2.6453,2.6734,2.6881,2.7014,2.7308,2.7496,2.755,2.7456,2.7429,2.7308,2.7028,2.6881,2.6734,2.6453,2.5985,2.5558,2.5264,2.4796,2.4369,2.4075,0.0,0.0,0.0,0.0,0.0,0.0,2.1189,2.0909,2.0067,2.0024,0.0,0.0,0.0,0.0,0.0,0.0,0.0,0.0,0.0,0.0,0.0,2.334,2.4222,2.5384,2.5478,2.6132,2.7309,2.7483,2.8005,2.8724,2.8551,2.8577,2.8671,2.7762,2.7509,2.7682,2.7468,2.7522,2.7736,2.8072,2.8179,2.8179,2.5931,2.5998,2.6172,2.672,2.6814,2.7014,2.7602,2.7696,2.7802,2.8138,2.8179,2.8072,2.7736,2.7696,2.7468,2.6881,2.6787,2.6694,2.6413,2.6386,2.6386,0.0,0.0,2.5998,2.5998,2.509,2.4452,2.4195,0.0,0.0,2.2371,0.0,2.3362,2.4182,2.4182,2.4502,2.5101,2.5064,2.5237,2.5504,2.5518,2.5692,2.5998,2.5998,2.6172,2.6386,2.6386,2.6386,2.6386,2.6386,2.6386,2.6386,2.6386,2.6386,2.6453,2.6734,2.7028,2.7362,2.7615,2.7951,2.8098,2.7762,2.7696,2.7615,2.7362,2.7028,2.6734,2.6453,2.6198,2.5904,2.5558,2.5264,2.497,2.4639,0.0,0.0,0.0,0.0,0.0,0.0,2.1395,2.1007,1.9548,1.9639,0.0,0.0,0.0,0.0,0.0,0.0,0.0,2.0197,2.0802,0.0,2.2418,2.2998,2.3928,2.5128,2.5371,2.6132,2.7322,2.7911,2.8457,2.8961,2.8446,2.8526,2.8921,2.807,2.7696,2.7696,2.7696,2.7696,2.7736,2.8072,2.8179,2.8179,2.6239,2.6253,2.6479,2.7028,2.7121,2.7321,2.7951,2.8045,2.8072,2.8179,2.8179,2.8152,2.8058,2.7816,2.7615,0.0,2.7241,2.7001,0.0,2.668,2.66,2.64,2.6346,2.6198,2.5998,2.5717,2.5197,2.4466,0.0,0.0,0.0,2.3647,2.4035,2.4479,2.4917,2.5317,2.5717,2.5717,2.5877,2.6106,2.6106,2.6172,2.6253,2.6253,2.6306,2.6386,2.6386,2.6386,2.6386,2.6386,2.6386,2.6386,2.6386,2.6533,2.6747,2.7041,2.7335,2.7629,2.7965,2.8112,2.8165,2.8072,2.8045,2.7911,2.7416,2.6881,2.6507,2.6413,2.6198,2.5971,2.5877,2.5411,2.5088,2.4957,2.4289,0.0,0.0,0.0,0.0,0.0,2.1189,2.0909,0.0,2.0401,0.0,0.0,0.0,0.0,0.0,0.0,0.0,0.0,2.1141,0.0,2.2746,2.3327,2.4115,2.5077,2.5371,2.6132,2.7322,2.7911,2.847,2.8961,2.8446,2.8484,2.8921,2.807,2.7816,2.8018,2.7776,2.7829,2.8058,2.8152,2.8179,2.8179,2.6386,2.6386,2.6533,2.7014,2.7094,2.7336,2.7924,2.8018,2.8058,2.8165,2.8179,2.8179,2.8179,2.8018,0.0,2.7709,2.7535,2.7255,2.6854,2.6787,2.6694,2.64,2.6386,2.6306,2.6158,2.6051,0.0,2.513,2.4986,2.4783,2.4422,2.4609,2.485,2.5144,2.5518,2.5838,2.6158,2.6158,2.6265,2.6386,2.6386,2.6386,2.6386,2.6386,2.6386,2.6386,2.6386,2.6386,2.6386,2.6386,2.6386,2.6413,2.652,2.6747,2.7028,2.7255,2.7468,2.7762,2.8098,2.8179,2.8179,2.8179,2.8179,2.8031,2.7443,2.7028,2.6653,2.644,2.6279,2.6131,2.6011,2.561,2.5211,2.5141,2.4379,2.3803,2.3803,0.0,0.0,0.0,0.0,0.0,0.0,2.0731,2.1109,0.0,0.0,0.0,0.0,0.0,0.0,2.0828,2.1662,0.0,2.2893,2.3688,2.4422,2.5128,2.5825,2.656,2.7322,2.7911,2.846,2.8845,2.8406,2.846,2.8775,2.8136,2.8018,2.8165,2.7978,2.8018,2.8179,2.8179,2.8179,2.8179,2.6386,2.6386,2.6493,0.0,2.6814,0.0,2.7642,2.7722,2.7871,2.8152,2.8179,2.8179,2.8179,2.8179,2.8072,2.7749,0.0,0.0,0.0,2.6814,2.6707,2.64,2.6386,2.6386,2.6386,2.6172,2.6011,2.5998,2.5651,2.5518,2.5545,2.5545,2.5705,2.6024,2.6024,2.6172,2.6386,2.6413,2.6413,2.6413,2.6413,2.6413,2.6413,2.64,2.6386,2.6386,2.6386,2.6386,2.6386,2.6386,2.6386,2.644,2.6734,2.7028,2.7309,2.7336,2.7495,2.7789,2.8112,2.8179,2.8179,2.8179,2.8165,2.8005,2.7456,2.7322,2.7148,2.6533,2.6413,2.6333,2.6078,2.5732,2.5424,2.513,2.4379,2.3803,2.3777,0.0,0.0,0.0,0.0,0.0,0.0,2.0904,2.1296,0.0,0.0,0.0,0.0,0.0,2.0967,2.1189,2.2318,2.292,2.2987,2.4075,2.4823,2.5222,2.664,2.7322,2.7362,2.7924,2.8353,2.8591,2.8326,2.8366,2.8577,2.8312,2.8179,2.8179,2.8179,2.8179,2.8179,2.8179,2.8179,2.8179,0.0,0.0,2.656,2.7068,2.7161,2.7403,2.7991,2.8085,2.8098,2.8179,2.8179,2.8179,2.8179,2.8179,2.8152,2.8085,2.8085,2.7831,2.7242,2.7161,2.6974,2.6413,2.6386,2.6386,2.6386,2.6319,2.6225,2.5998,2.5651,2.5625,2.5891,2.5891,2.6051,2.6332,2.6332,2.6319,2.64,2.6627,2.672,2.672,2.672,2.672,2.6694,2.6466,2.6386,2.6386,2.6386,2.6386,2.6386,2.6386,2.6386,2.644,2.6734,2.7028,2.7349,2.7535,2.7844,2.8098,2.8165,2.8179,2.8179,2.8179,2.8018,2.7762,2.7629,2.7469,2.7202,2.68,2.672,2.6627,2.6333,2.5865,2.5424,2.513,2.4379,2.3688,2.346,2.2592,0.0,0.0,2.1977,2.2058,2.1878,2.2659,2.3174,0.0,0.0,0.0,0.0,2.2512,2.2271,2.2111,2.2626,2.3228,2.3875,2.4346,2.5079,2.6092,2.6921,2.7416,2.7602,2.8018,2.8353,2.8591,2.8326,2.8366,2.8577,2.8312,2.8179,2.8179,2.8179,2.8179,2.8179,2.8179,2.8179,2.8179,2.6787,2.6787,2.6934,2.7255,2.7309,2.7456,2.7911,2.7978,2.8031,2.8165,2.8179,2.8179,2.8179,2.8179,2.8179,2.8179,2.8179,2.7991,2.7495,2.7376,2.7108,2.66,2.6466,2.6386,2.6386,2.6386,2.6319,2.6198,2.5985,2.5999,2.6198,2.6198,2.6279,2.6386,2.6386,2.6466,2.66,2.6747,2.6894,2.7028,2.7028,2.6947,2.676,2.664,2.6507,2.6386,2.6386,2.6386,2.6386,2.6386,2.6386,2.6466,2.6894,2.7134,2.7389,2.7817,2.8058,2.8179,2.8179,2.8179,2.8179,2.8179,2.8058,2.7911,2.7722,2.7575,2.7375,2.7081,2.6921,2.6774,2.6613,2.5999,2.5424,2.513,2.4379,2.3661,2.3332,2.2552,0.0,2.2164,2.2325,2.2491,2.2772,2.3527,2.3968,2.3968,2.3661,0.0,2.3527,2.35,2.3273,2.2812,2.338,2.3915,2.4396,2.5053,2.5825,2.66,2.7188,2.7549,2.7709,2.8045,2.8272,2.8433,2.8259,2.8286,2.8419,2.8259,2.8179,2.8179,2.8179,2.8179,2.8179,2.8179,2.8179,2.8179,2.7309,2.7309,2.7322,2.7362,2.7376,2.7469,2.7722,2.7762,2.7898,2.8152,2.8179,2.8179,2.8179,2.8179,2.8179,2.8179,2.8179,2.8058,2.7722,2.751,2.7175,2.6841,2.6587,2.6426,2.6386,2.6386,2.6386,2.6386,2.6386,2.6386,2.6386,2.6386,2.6386,2.6386,2.644,2.6587,2.6827,2.6921,2.7094,2.7376,2.7376,2.7175,2.6947,2.6907,2.6734,2.652,2.652,2.652,2.652,2.652,2.652,2.6613,2.7202,2.7376,2.7483,2.8018,2.8179,2.8179,2.8179,2.8179,2.8179,2.8179,2.8179,2.8125,2.7829,2.7762,2.7682,2.7429,2.7134,2.6934,2.6841,2.6146,2.5464,2.513,2.4338,2.3621,2.3332,0.0,2.2245,2.2579,2.2665,2.2945,2.3541,2.4088,2.4396,2.4396,2.4396,2.4302,2.4084,2.4262,2.4168,2.3639,2.4306,2.4706,2.4799,2.5905,2.66,2.6894,2.7442,2.7722,2.7776,2.8072,2.8179,2.8179,2.8179,2.8179,2.8179,2.8179,2.8179,2.8179,2.8179,2.8179,2.8179,2.8179,2.8179,2.8179,2.7309,2.7309,2.7389,2.7589,2.7629,2.7736,2.8072,2.8112,2.8138,2.8179,2.8179,2.8179,2.8179,2.8179,2.8179,2.8179,2.8179,2.8058,2.7722,2.7655,2.7388,2.68,2.6774,2.664,2.6386,2.6386,2.6386,2.6386,2.6386,2.6386,2.6386,2.6386,2.6386,2.64,2.664,2.6774,2.6814,2.7348,2.7589,2.7629,2.7629,2.7602,2.7535,2.7295,2.7215,2.7175,2.7175,2.7175,2.7175,2.7175,2.7175,2.7229,2.7522,2.7629,2.7696,2.8085,2.8179,2.8179,2.8179,2.8179,2.8179,2.8179,2.8179,2.8179,2.8125,2.8112,2.8031,2.7696,2.7589,2.7415,2.6867,2.6306,2.5743,2.5208,2.4128,2.3345,2.3305,0.0,2.2974,2.3536,2.3995,2.4422,2.477,2.5117,2.5304,2.5304,2.5304,2.5291,2.5251,2.5291,2.5264,2.517,2.5064,2.5251,2.5784,2.6413,2.6907,2.7242,2.7535,2.7829,2.8112,2.8165,2.8179,2.8179,2.8179,2.8179,2.8179,2.8179,2.8179,2.8179,2.8179,2.8179,2.8179,2.8179,2.8179,2.8179,2.7777,2.7777,2.7817,2.7951,2.7978,2.8031,2.8165,2.8179,2.8179,2.8179,2.8179,2.8179,2.8179,2.8179,2.8179,2.8179,2.8179,2.8125,2.7991,2.7789,2.7575,2.7308,2.7148,2.6921,2.6627,2.6466,2.6386,2.6386,2.6386,2.6386,2.6386,2.6386,2.6466,2.6627,2.672,2.7001,2.7308,2.7575,2.7789,2.7978,2.7978,2.7843,2.7682,2.7549,2.7443,2.7309,2.7309,2.7309,2.7309,2.7309,2.7309,2.7362,2.7602,2.7696,2.7762,2.8098,2.8179,2.8179,2.8179,2.8179,2.8179,2.8179,2.8179,2.8179,2.8179,2.8179,2.8138,2.8005,2.7816,2.7562,2.7134,2.6587,2.5984,2.5235,2.4489,0.0,0.0,2.3581,2.3741,2.4182,2.4609,2.505,2.5543,2.5717,2.5812,2.5972,2.5838,2.5758,2.5758,2.5758,2.5758,2.5758,2.5663,2.5877,2.6413,2.6854,2.7215,2.7509,2.7844,2.8045,2.8179,2.8179,2.8179,2.8179,2.8179,2.8179,2.8179,2.8179,2.8179,2.8179,2.8179,2.8179,2.8179,2.8179,2.8179,2.8179,2.8179,2.8179,2.8179,2.8179,2.8179,2.8179,2.8179,2.8179,2.8179,2.8179,2.8179,2.8179,2.8179,2.8179,2.8179,2.8179,2.8179,2.8179,2.8179,2.7965,2.7776,2.7696,2.7415,2.7202,2.6934,2.6707,2.66,2.66,2.66,2.66,2.66,2.66,2.6707,2.6934,2.6987,2.7281,2.7709,2.7776,2.7978,2.8179,2.8179,2.8045,2.7802,2.7802,2.771,2.751,2.751,2.751,2.751,2.751,2.751,2.755,2.7736,2.7802,2.7884,2.8112,2.8179,2.8179,2.8179,2.8179,2.8205,2.8272,2.8286,2.8312,2.8379,2.8393,2.8393,2.8393,2.811,2.7816,2.7563,2.6934,2.6253,2.5504,0.0,0.0,0.0,2.4209,2.4436,2.4759,2.5104,2.5556,2.6145,2.6198,2.6319,2.6573,2.6426,2.6305,2.6305,2.6305,2.6305,2.6305,2.6238,2.64,2.6921,2.7215,2.7523,2.7696,2.8045,2.8179,2.8179,2.8179,2.8179,2.8179,2.8179,2.8179,2.8179,2.8179,2.8179,2.8179,2.8179,2.8179,2.8179,2.8179,2.8179,2.8192,2.8179,2.8179,2.8179,2.8179,2.8179,2.8179,2.8179,2.8179,2.8179,2.8179,2.8179,2.8179,2.8179,2.8179,2.8179,2.8179,2.8179,2.8179,2.8179,2.8165,2.8031,2.7709,2.7415,2.7296,2.7269,2.7255,2.7242,2.7242,2.7242,2.7242,2.7242,2.7242,2.7255,2.7282,2.7509,2.7655,2.7722,2.8031,2.8165,2.8179,2.8179,2.8165,2.8152,2.8152,2.8138,2.8125,2.8125,2.8125,2.8125,2.8125,2.8125,2.8125,2.8138,2.8152,2.8152,2.8179,2.8179,2.8179,2.8179,2.8179,2.8259,2.8497,2.8577,2.8644,2.8868,2.8935,2.8935,2.8935,2.8695,2.8444,2.8179,2.7375,2.668,2.6346,0.0,0.0,2.4957,2.4756,2.4773,2.5346,2.5743,2.6158,2.6707,2.676,2.6881,2.7215,2.7229,2.7202,2.7202,2.7202,2.7202,2.7202,2.6907,2.6907,2.7269,2.7522,2.7682,2.7696,2.8045,2.8179,2.8179,2.8179,2.8179,2.8179,2.8179,2.8179,2.8179,2.8179,2.8179,2.8179,2.8179,2.8179,2.8179,2.8179,2.8179,2.8232,2.8179,2.8179,2.8179,2.8179,2.8179,2.8179,2.8179,2.8179,2.8179,2.8179,2.8179,2.8179,2.8179,2.8179,2.8179,2.8179,2.8179,2.8179,2.8179,2.8179,2.8138,2.8018,2.7696,2.7535,2.7535,2.7403,2.7309,2.7309,2.7309,2.7309,2.7309,2.7309,2.7403,2.7535,2.7642,2.7802,2.8018,2.8138,2.8179,2.8179,2.8179,2.8179,2.8179,2.8179,2.8179,2.8179,2.8179,2.8179,2.8179,2.8179,2.8179,2.8179,2.8179,2.8179,2.8219,2.8419,2.843,2.847,2.8644,2.8564,2.8457,2.8577,2.8751,2.8855,2.8975,2.9001,2.9001,2.9001,2.8908,2.8724,2.8272,2.7911,2.7428,2.676,0.0,2.5972,2.5905,2.5945,2.604,2.6293,2.6587,2.6894,2.7068,2.7094,2.7215,2.7509,2.7403,2.7389,2.7522,2.7403,2.7389,2.7522,2.7428,2.7415,2.7535,2.7642,2.7789,2.8018,2.8125,2.8179,2.8179,2.8179,2.8179,2.8179,2.8179,2.8179,2.8179,2.8179,2.8179,2.8179,2.8179,2.8179,2.8179,2.8179,2.8179,2.8232,2.8179,2.8179,2.8179,2.8179,2.8179,2.8179,2.8179,2.8179,2.8179,2.8179,2.8179,2.8179,2.8179,2.8179,2.8179,2.8179,2.8179,2.8179,2.8179,2.8179,2.8179,2.8179,2.7991,2.7843,2.7843,2.7684,2.7576,2.7576,2.7576,2.7576,2.7576,2.7576,2.7684,2.7843,2.7843,2.7991,2.8179,2.8179,2.8179,2.8179,2.8179,2.8179,2.8179,2.8179,2.8179,2.8179,2.8179,2.8179,2.8179,2.8179,2.8179,2.8179,2.8179,2.8179,2.8245,2.8511,2.8604,2.8671,2.8921,2.8921,2.8885,2.8885,2.9032,2.9161,2.9255,2.9268,2.9268,2.9268,2.9202,2.9058,2.8687,2.8379,2.7991,2.7335,2.7081,2.6894,2.6694,2.6841,2.6961,2.6961,2.7134,2.7349,2.7429,2.7443,2.7563,2.7857,2.7697,2.767,2.7871,2.7684,2.767,2.7829,2.7843,2.7843,2.7843,2.7843,2.7978,2.8179,2.8179,2.8179,2.8179,2.8179,2.8179,2.8179,2.8179,2.8179,2.8179,2.8179,2.8179,2.8179,2.8179,2.8179,2.8179,2.8179,2.8179,2.8245,2.8179,2.8179,2.8179,2.8179,2.8179,2.8179,2.8179,2.8179,2.8179,2.8179,2.8179,2.8179,2.8179,2.8179,2.8179,2.8179,2.8179,2.8179,2.8179,2.8179,2.8179,2.8179,2.8179,2.8179,2.8179,2.8179,2.8179,2.8179,2.8179,2.8179,2.8179,2.8179,2.8179,2.8179,2.8179,2.8179,2.8179,2.8179,2.8179,2.8179,2.8179,2.8179,2.8179,2.8179,2.8179,2.8179,2.8179,2.8179,2.8179,2.8179,2.8179,2.8179,2.8192,2.8192,2.8259,2.8524,2.8617,2.8671,2.8921,2.9259,2.9486,2.9486,2.9486,2.9566,2.9847,2.9913,2.9913,2.9913,2.9686,2.9486,2.9486,2.8794,2.8192,2.8192,2.7697,2.7309,2.7309,2.7309,2.7309,2.7309,2.7309,2.7429,2.7669,2.7696,2.7829,2.8165,2.8179,2.8179,2.8179,2.8179,2.8179,2.8179,2.8179,2.8179,2.8179,2.8179,2.8179,2.8179,2.8179,2.8179,2.8179,2.8179,2.8179,2.8179,2.8179,2.8179,2.8179,2.8179,2.8179,2.8179,2.8179,2.8179,2.8179,2.8179,2.8179,2.8272,2.8179,2.8179,2.8179,2.8179,2.8179,2.8179,2.8179,2.8179,2.8179,2.8179,2.8179,2.8179,2.8179,2.8179,2.8179,2.8179,2.8179,2.8179,2.8179,2.8179,2.8179,2.8179,2.8179,2.8179,2.8179,2.8179,2.8179,2.8179,2.8179,2.8179,2.8179,2.8179,2.8179,2.8179,2.8179,2.8179,2.8179,2.8179,2.8179,2.8179,2.8179,2.8179,2.8179,2.8179,2.8179,2.8179,2.8179,2.8179,2.8179,2.8179,2.8179,2.8219,2.8404,2.8604,2.8831,2.9138,2.9219,2.9285,2.9579,2.9713,2.974,2.9539,2.9633,2.9806,2.99,2.9913,2.9913,2.9913,2.9847,2.9726,2.9526,2.9098,2.8711,2.8497,2.8179,2.7924,2.7924,2.7924,2.7924,2.7924,2.7924,2.7951,2.8045,2.8045,2.8085,2.8179,2.8179,2.8179,2.8179,2.8179,2.8179,2.8179,2.8179,2.8179,2.8179,2.8179,2.8179,2.8179,2.8179,2.8179,2.8179,2.8179,2.8179,2.8179,2.8179,2.8179,2.8179,2.8179,2.8179,2.8179,2.8179,2.8179,2.8179,2.8179,2.8179,2.8272,2.8179,2.8179,2.8179,2.8179,2.8179,2.8179,2.8179,2.8179,2.8179,2.8179,2.8179,2.8179,2.8179,2.8179,2.8179,2.8179,2.8179,2.8179,2.8179,2.8179,2.8179,2.8179,2.8179,2.8179,2.8179,2.8179,2.8179,2.8179,2.8179,2.8179,2.8179,2.8179,2.8179,2.8179,2.8179,2.8179,2.8179,2.8179,2.8179,2.8179,2.8179,2.8179,2.8179,2.8179,2.8179,2.8205,2.8326,2.8366,2.8379,2.85,2.854,2.8524,2.8724,2.8855,2.9055,2.9392,2.9486,2.9553,2.9833,2.9913,2.9873,2.97,2.978,2.9913,2.9913,2.9913,2.9913,2.9913,2.9913,2.986,2.9686,2.9325,2.8935,2.8761,2.8417,2.8179,2.8179,2.8179,2.8179,2.8179,2.8179,2.8179,2.8179,2.8179,2.8179,2.8179,2.8179,2.8179,2.8179,2.8179,2.8179,2.8179,2.8179,2.8179,2.8179,2.8179,2.8179,2.8179,2.8179,2.8179,2.8179,2.8179,2.8179,2.8179,2.8179,2.8179,2.8179,2.8179,2.8179,2.8179,2.8179,2.8179,2.8179,2.8179,2.8259,2.8433,2.8179,2.8179,2.8179,2.8179,2.8179,2.8179,2.8179,2.8179,2.8179,2.8179,2.8179,2.8179,2.8179,2.8179,2.8179,2.8179,2.8179,2.8179,2.8179,2.8179,2.8179,2.8179,2.8179,2.8179,2.8179,2.8179,2.8179,2.8179,2.8179,2.8179,2.8179,2.8179,2.8179,2.8179,2.8179,2.8179,2.8179,2.8179,2.8179,2.8179,2.8179,2.8179,2.8179,2.8179,2.8205,2.8259,2.8511,2.8631,2.8684,2.8908,2.9015,2.9041,2.9041,2.9055,2.9121,2.9446,2.9526,2.9579,2.9847,2.9913,2.9913,2.9913,2.9913,2.9913,2.9913,2.9913,2.9913,2.9913,2.9913,2.9913,2.9913,2.9388,2.9001,2.9001,2.8537,2.8179,2.8179,2.8179,2.8179,2.8179,2.8179,2.8179,2.8179,2.8179,2.8179,2.8179,2.8179,2.8179,2.8179,2.8179,2.8179,2.8179,2.8179,2.8179,2.8179,2.8179,2.8179,2.8179,2.8179,2.8179,2.8179,2.8179,2.8179,2.8179,2.8179,2.8179,2.8179,2.8179,2.8179,2.8179,2.8179,2.8179,2.8179,2.8179,2.8379,2.8657,2.8179,2.8179,2.8179,2.8179,2.8179,2.8179,2.8179,2.8179,2.8179,2.8179,2.8179,2.8179,2.8179,2.8179,2.8179,2.8179,2.8179,2.8179,2.8179,2.8179,2.8179,2.8179,2.8179,2.8179,2.8179,2.8179,2.8179,2.8179,2.8179,2.8179,2.8179,2.8179,2.8179,2.8179,2.8179,2.8179,2.8179,2.8179,2.8179,2.8179,2.8179,2.8179,2.8179,2.8179,2.8339,2.8511,2.8577,2.8751,2.8908,2.8975,2.9148,2.9392,2.9392,2.9539,2.974,2.9806,2.982,2.9833,2.99,2.9913,2.9913,2.9913,2.9913,2.9913,2.9913,2.9913,2.9913,2.9913,2.9913,2.9913,2.9913,2.9388,2.9001,2.9001,2.8537,2.8179,2.8179,2.8179,2.8179,2.8179,2.8179,2.8179,2.8179,2.8179,2.8179,2.8179,2.8179,2.8179,2.8179,2.8179,2.8179,2.8179,2.8179,2.8179,2.8179,2.8179,2.8179,2.8179,2.8179,2.8179,2.8179,2.8179,2.8179,2.8179,2.8179,2.8179,2.8179,2.8179,2.8179,2.8179,2.8179,2.8179,2.8179,2.8179,2.8379,2.8684,2.8179,2.8179,2.8179,2.8179,2.8179,2.8179,2.8179,2.8179,2.8179,2.8179,2.8179,2.8179,2.8179,2.8179,2.8179,2.8179,2.8179,2.8179,2.8179,2.8179,2.8179,2.8179,2.8179,2.8179,2.8179,2.8179,2.8179,2.8179,2.8179,2.8179,2.8179,2.8179,2.8179,2.8179,2.8179,2.8179,2.8179,2.8179,2.8179,2.8179,2.8179,2.8179,2.8205,2.8353,2.847,2.8644,2.8925,2.9205,2.9415,2.9415,2.9566,2.9686,2.9686,2.9793,2.9913,2.9913,2.9913,2.9913,2.9913,2.9913,2.9913,2.9913,2.9913,2.9913,2.9913,2.9913,2.9913,2.9913,2.9913,2.9913,2.9913,2.9388,2.9001,2.9001,2.8537,2.8179,2.8179,2.8179,2.8179,2.8179,2.8179,2.8179,2.8179,2.8179,2.8179,2.8179,2.8179,2.8179,2.8179,2.8179,2.8179,2.8179,2.8179,2.8179,2.8179,2.8179,2.8179,2.8179,2.8179,2.8179,2.8179,2.8179,2.8179,2.8179,2.8179,2.8179,2.8179,2.8179,2.8179,2.8179,2.8179,2.8179,2.8179,2.8179,2.8473,2.8898,2.8179,2.8179,2.8179,2.8179,2.8179,2.8179,2.8179,2.8179,2.8179,2.8179,2.8179,2.8179,2.8179,2.8179,2.8179,2.8179,2.8179,2.8179,2.8179,2.8179,2.8179,2.8179,2.8179,2.8179,2.8179,2.8179,2.8179,2.8179,2.8179,2.8179,2.8179,2.8179,2.8179,2.8179,2.8179,2.8179,2.8179,2.8179,2.8179,2.8179,2.8179,2.8179,2.8219,2.8484,2.8644,2.8751,2.9285,2.9673,2.9913,2.9913,2.9913,2.9913,2.9913,2.9913,2.9913,2.9913,2.9913,2.9913,2.9913,2.9913,2.9913,2.9913,2.9913,2.9913,2.9913,2.9913,2.9913,2.9913,2.9913,2.9913,2.9913,2.9428,2.9055,2.9001,2.8577,2.8245,2.8192,2.8179,2.8179,2.8179,2.8179,2.8179,2.8179,2.8179,2.8179,2.8179,2.8179,2.8179,2.8179,2.8179,2.8179,2.8179,2.8179,2.8179,2.8179,2.8179,2.8179,2.8179,2.8179,2.8179,2.8179,2.8179,2.8179,2.8179,2.8179,2.8179,2.8179,2.8179,2.8179,2.8179,2.8179,2.8219,2.8272,2.8379,2.8684,2.9148,2.8179,2.8179,2.8179,2.8179,2.8179,2.8179,2.8179,2.8179,2.8179,2.8179,2.8179,2.8179,2.8179,2.8179,2.8179,2.8179,2.8179,2.8179,2.8179,2.8179,2.8179,2.8179,2.8179,2.8179,2.8179,2.8179,2.8179,2.8179,2.8179,2.8179,2.8179,2.8179,2.8179,2.8179,2.8179,2.8179,2.8179,2.8179,2.8179,2.8179,2.8179,2.8179,2.8219,2.8484,2.8721,2.8988,2.9366,2.9673,2.9913,2.9913,2.9913,2.9913,2.9913,2.9913,2.9913,2.9913,2.9913,2.9913,2.9913,2.9913,2.9913,2.9913,2.9913,2.9913,2.9913,2.9913,2.9913,2.9913,2.9913,2.9913,2.9913,2.9646,2.9339,2.9041,2.8721,2.8444,2.8219,2.8179,2.8179,2.8179,2.8179,2.8179,2.8179,2.8179,2.8179,2.8179,2.8179,2.8179,2.8179,2.8179,2.8179,2.8179,2.8179,2.8179,2.8179,2.8179,2.8179,2.8179,2.8179,2.8179,2.8179,2.8179,2.8179,2.8179,2.8179,2.8179,2.8179,2.8179,2.8179,2.8179,2.8179,2.8353,2.8604,2.9112,2.9352,2.9472,2.8136,2.8179,2.8179,2.8179,2.8179,2.8179,2.8179,2.8179,2.8179,2.8179,2.8179,2.8179,2.8179,2.8179,2.8179,2.8179,2.8179,2.8179,2.8179,2.8179,2.8179,2.8179,2.8179,2.8179,2.8179,2.8179,2.8179,2.8179,2.8179,2.8179,2.8179,2.8179,2.8179,2.8179,2.8179,2.8179,2.8179,2.8179,2.8179,2.8179,2.8179,2.8179,2.8219,2.8484,2.8791,2.9055,2.9566,2.9806,2.9913,2.9913,2.9913,2.9913,2.9913,2.9913,2.9913,2.9913,2.9913,2.9913,2.9913,2.9913,2.9913,2.9913,2.9913,2.9913,2.9913,2.9913,2.9913,2.9913,2.9913,2.9913,2.9913,2.9673,2.9392,2.9041,2.8748,2.8497,2.8232,2.8179,2.8179,2.8179,2.8179,2.8179,2.8179,2.8179,2.8179,2.8179,2.8179,2.8179,2.8179,2.8179,2.8179,2.8179,2.8179,2.8179,2.8179,2.8179,2.8179,2.8179,2.8179,2.8179,2.8179,2.8179,2.8179,2.8179,2.8179,2.8179,2.8179,2.8179,2.8179,2.8179,2.8179,2.8379,2.8671,2.9272,2.9486,2.9526]},{"header":{"parameterUnit":"m.s-1","parameterCategory":1,"la1":30.6,"la2":28.766,"lo1":-90.7593,"lo2":-88.6598,"dy":0.0162,"dx":0.0183,"nx":116,"ny":114,"refTime":"2023-09-28T00:00:00:Z","depth":0,"parameterNumber":3,"parameterNumberName":"V-component_of_WINDS"},"data":[0.0,0.0,0.0,0.0,0.0,0.0,0.0,0.0,0.0,0.0,0.0,0.0,0.0,0.0,0.0,0.0,0.0,0.0,0.0,0.0,0.0,0.0,0.0,0.0,0.0,0.0,0.0,0.0,0.0,0.0,0.0,0.0,0.0,0.0,0.0,0.0,0.0,0.0,0.0,0.0,0.0,0.0,0.0,0.0,0.0,0.0,0.0,0.0,0.0,0.0,0.0,0.0,0.0,0.0,0.0,0.0,0.0,0.0,0.0,0.0,0.0,0.0,0.0,0.0,0.0,0.0,0.0,0.0,0.0,0.0,0.0,0.0,0.0,0.0,0.0,0.0,0.0,0.0,0.0,0.0,0.0,0.0,0.0,0.0,0.0,0.0,0.0,0.0,0.0,0.0,0.0,0.0,0.0,0.0,0.0,0.0,0.0,0.0,0.0,0.0,0.0,0.0,0.0,0.0,0.0,0.0,0.0,0.0,0.0,0.0,0.0,0.0,0.0,0.0,0.0,0.0,0.0,0.0,0.0,0.0,0.0,0.0,0.0,0.0,0.0,0.0,0.0,0.0,0.0,0.0,0.0,0.0,0.0,0.0,0.0,0.0,0.0,0.0,0.0,0.0,0.0,0.0,0.0,0.0,0.0,0.0,0.0,0.0,0.0,0.0,0.0,0.0,0.0,0.0,0.0,0.0,0.0,0.0,0.0,0.0,0.0,0.0,0.0,0.0,0.0,0.0,0.0,0.0,0.0,0.0,0.0,0.0,0.0,0.0,0.0,0.0,0.0,0.0,0.0,0.0,0.0,0.0,0.0,0.0,0.0,0.0,0.0,0.0,0.0,0.0,0.0,0.0,0.0,0.0,0.0,0.0,0.0,0.0,0.0,0.0,0.0,0.0,0.0,0.0,0.0,0.0,0.0,0.0,0.0,0.0,0.0,0.0,0.0,0.0,0.0,0.0,0.0,0.0,0.0,0.0,0.0,0.0,0.0,0.0,0.0,0.0,0.0,0.0,0.0,0.0,0.0,0.0,0.0,0.0,0.0,0.0,0.0,0.0,0.0,0.0,0.0,0.0,0.0,0.0,0.0,0.0,0.0,0.0,0.0,0.0,0.0,0.0,0.0,0.0,0.0,0.0,0.0,0.0,0.0,0.0,0.0,0.0,0.0,0.0,0.0,0.0,0.0,0.0,0.0,0.0,0.0,0.0,0.0,0.0,0.0,0.0,0.0,0.0,0.0,0.0,0.0,0.0,0.0,0.0,0.0,0.0,0.0,0.0,0.0,0.0,0.0,0.0,0.0,0.0,0.0,0.0,0.0,0.0,0.0,0.0,0.0,0.0,0.0,0.0,0.0,0.0,0.0,0.0,0.0,0.0,0.0,0.0,0.0,0.0,0.0,0.0,0.0,0.0,0.0,0.0,0.0,0.0,0.0,0.0,0.0,0.0,0.0,0.0,0.0,0.0,0.0,0.0,0.0,0.0,0.0,0.0,0.0,0.0,0.0,0.0,0.0,0.0,0.0,0.0,0.0,0.0,0.0,0.0,0.0,0.0,0.0,0.0,0.0,0.0,0.0,0.0,0.0,0.0,0.0,0.0,0.0,0.0,0.0,0.0,0.0,0.0,0.0,0.0,0.0,0.0,0.0,0.0,0.0,0.0,0.0,0.0,0.0,0.0,0.0,0.0,0.0,0.0,0.0,0.0,0.0,0.0,0.0,0.0,0.0,0.0,0.0,0.0,0.0,0.0,0.0,0.0,0.0,0.0,0.0,0.0,0.0,0.0,0.0,0.0,0.0,0.0,0.0,0.0,0.0,0.0,0.0,0.0,0.0,0.0,0.0,0.0,0.0,0.0,0.0,0.0,0.0,0.0,0.0,0.0,0.0,0.0,0.0,0.0,0.0,0.0,0.0,0.0,0.0,0.0,0.0,0.0,0.0,0.0,0.0,0.0,0.0,0.0,0.0,0.0,0.0,0.0,0.0,0.0,0.0,0.0,0.0,0.0,0.0,0.0,0.0,0.0,0.0,0.0,0.0,0.0,0.0,0.0,0.0,0.0,0.0,0.0,0.0,0.0,0.0,0.0,0.0,0.0,0.0,0.0,0.0,0.0,0.0,0.0,0.0,0.0,0.0,0.0,0.0,0.0,0.0,0.0,0.0,0.0,0.0,0.0,0.0,0.0,0.0,0.0,0.0,0.0,0.0,0.0,0.0,0.0,0.0,0.0,0.0,0.0,0.0,0.0,0.0,0.0,0.0,0.0,0.0,0.0,0.0,0.0,0.0,0.0,0.0,0.0,0.0,0.0,0.0,0.0,0.0,0.0,0.0,0.0,0.0,0.0,0.0,0.0,0.0,0.0,0.0,0.0,0.0,0.0,0.0,0.0,0.0,0.0,0.0,0.0,0.0,0.0,0.0,0.0,0.0,0.0,0.0,0.0,0.0,0.0,0.0,0.0,0.0,0.0,0.0,0.0,0.0,0.0,0.0,0.0,0.0,0.0,0.0,0.0,0.0,0.0,0.0,0.0,0.0,0.0,0.0,0.0,0.0,0.0,0.0,0.0,0.0,0.0,0.0,0.0,0.0,0.0,0.0,0.0,0.0,0.0,0.0,0.0,0.0,0.0,0.0,0.0,0.0,0.0,0.0,0.0,0.0,0.0,0.0,0.0,0.0,0.0,0.0,0.0,0.0,0.0,0.0,0.0,0.0,0.0,0.0,0.0,0.0,0.0,0.0,0.0,0.0,0.0,0.0,0.0,0.0,0.0,0.0,0.0,0.0,0.0,0.0,0.0,0.0,0.0,0.0,0.0,0.0,0.0,0.0,0.0,0.0,0.0,0.0,0.0,0.0,0.0,0.0,0.0,0.0,0.0,0.0,0.0,0.0,0.0,0.0,0.0,0.0,0.0,0.0,0.0,0.0,0.0,0.0,0.0,0.0,0.0,0.0,0.0,0.0,0.0,0.0,0.0,0.0,0.0,0.0,0.0,0.0,0.0,0.0,0.0,0.0,0.0,0.0,0.0,0.0,0.0,0.0,0.0,0.0,0.0,0.0,0.0,0.0,0.0,0.0,0.0,0.0,0.0,0.0,0.0,0.0,0.0,0.0,0.0,0.0,0.0,0.0,0.0,0.0,0.0,0.0,0.0,0.0,0.0,0.0,0.0,0.0,0.0,0.0,0.0,0.0,0.0,0.0,0.0,0.0,0.0,0.0,0.0,0.0,0.0,0.0,0.0,0.0,0.0,0.0,0.0,0.0,0.0,0.0,0.0,0.0,0.0,0.0,0.0,0.0,0.0,0.0,0.0,0.0,0.0,0.0,0.0,0.0,0.0,0.0,0.0,0.0,0.0,0.0,0.0,0.0,0.0,0.0,0.0,0.0,0.0,0.0,0.0,0.0,0.0,0.0,0.0,0.0,0.0,0.0,0.0,0.0,0.0,0.0,0.0,0.0,0.0,0.0,0.0,0.0,0.0,0.0,0.0,0.0,0.0,0.0,0.0,0.0,0.0,0.0,0.0,0.0,0.0,0.0,0.0,0.0,0.0,0.0,0.0,0.0,0.0,0.0,0.0,0.0,0.0,0.0,0.0,0.0,0.0,0.0,0.0,0.0,0.0,0.0,0.0,0.0,0.0,0.0,0.0,0.0,0.0,0.0,0.0,0.0,0.0,0.0,0.0,0.0,0.0,0.0,0.0,0.0,0.0,0.0,0.0,0.0,0.0,0.0,0.0,0.0,0.0,0.0,0.0,0.0,0.0,0.0,0.0,0.0,0.0,0.0,0.0,0.0,0.0,0.0,0.0,0.0,0.0,0.0,0.0,0.0,0.0,0.0,0.0,0.0,0.0,0.0,0.0,0.0,0.0,0.0,0.0,0.0,0.0,0.0,0.0,0.0,0.0,0.0,0.0,0.0,0.0,0.0,0.0,0.0,0.0,0.0,0.0,0.0,0.0,0.0,0.0,0.0,0.0,0.0,0.0,0.0,0.0,0.0,0.0,0.0,0.0,0.0,0.0,0.0,0.0,0.0,0.0,0.0,0.0,0.0,0.0,0.0,0.0,0.0,0.0,0.0,0.0,0.0,0.0,0.0,0.0,0.0,0.0,0.0,0.0,0.0,0.0,0.0,0.0,0.0,0.0,0.0,0.0,0.0,0.0,0.0,0.0,0.0,0.0,0.0,0.0,0.0,0.0,0.0,0.0,0.0,0.0,0.0,0.0,0.0,0.0,0.0,0.0,0.0,0.0,0.0,0.0,0.0,0.0,0.0,0.0,0.0,0.0,0.0,0.0,0.0,0.0,0.0,0.0,0.0,0.0,0.0,0.0,0.0,0.0,0.0,0.0,0.0,0.0,0.0,0.0,0.0,0.0,0.0,0.0,0.0,0.0,0.0,0.0,0.0,0.0,0.0,0.0,0.0,0.0,0.0,0.0,0.0,0.0,0.0,0.0,0.0,0.0,0.0,0.0,0.0,0.0,0.0,0.0,0.0,0.0,0.0,0.0,0.0,0.0,0.0,0.0,0.0,0.0,0.0,0.0,0.0,0.0,0.0,0.0,0.0,0.0,0.0,0.0,0.0,0.0,0.0,0.0,0.0,0.0,0.0,0.0,0.0,0.0,0.0,0.0,0.0,0.0,0.0,0.0,0.0,0.0,0.0,0.0,0.0,0.0,0.0,0.0,0.0,0.0,0.0,0.0,0.0,0.0,0.0,0.0,0.0,0.0,0.0,0.0,0.0,0.0,0.0,0.0,0.0,0.0,0.0,0.0,0.0,0.0,0.0,0.0,0.0,0.0,0.0,0.0,0.0,0.0,0.0,0.0,0.0,0.0,0.0,0.0,0.0,0.0,0.0,0.0,0.0,0.0,0.0,0.0,0.0,0.0,0.0,0.0,0.0,0.0,0.0,0.0,0.0,0.0,0.0,0.0,0.0,0.0,0.0,0.0,0.0,0.0,0.0,0.0,0.0,0.0,0.0,0.0,0.0,0.0,0.0,0.0,0.0,0.0,0.0,0.0,0.0,0.0,0.0,0.0,0.0,0.0,0.0,0.0,0.0,0.0,0.0,0.0,0.0,0.0,0.0,0.0,0.0,0.0,0.0,0.0,0.0,0.0,0.0,0.0,0.0,0.0,0.0,0.0,0.0,0.0,0.0,0.0,0.0,0.0,0.0,0.0,0.0,0.0,0.0,0.0,0.0,0.0,0.0,0.0,0.0,0.0,0.0,0.0,0.0,0.0,0.0,0.0,0.0,0.0,0.0,0.0,0.0,0.0,0.0,0.0,0.0,0.0,0.0,0.0,0.0,0.0,0.0,0.0,0.0,0.0,0.0,0.0,0.0,0.0,0.0,0.0,0.0,0.0,0.0,0.0,0.0,0.0,0.0,0.0,0.0,0.0,0.0,0.0,0.0,0.0,0.0,0.0,0.0,0.0,0.0,0.0,0.0,0.0,0.0,0.0,0.0,0.0,0.0,0.0,0.0,0.0,0.0,0.0,0.0,0.0,0.0,0.0,0.0,0.0,0.0,0.0,0.0,0.0,0.0,0.0,0.0,0.0,0.0,0.0,0.0,0.0,0.0,0.0,0.0,0.0,0.0,0.0,0.0,0.0,0.0,0.0,0.0,0.0,0.0,0.0,0.0,0.0,0.0,0.0,0.0,0.0,0.0,0.0,0.0,0.0,0.0,0.0,0.0,0.0,0.0,0.0,0.0,0.0,0.0,0.0,0.0,0.0,0.0,0.0,0.0,0.0,0.0,0.0,0.0,0.0,0.0,0.0,0.0,0.0,0.0,0.0,0.0,0.0,0.0,0.0,0.0,0.0,0.0,0.0,0.0,0.0,0.0,0.0,0.0,0.0,0.0,0.0,0.0,0.0,0.0,0.0,0.0,0.0,0.0,0.0,0.0,0.0,0.0,0.0,0.0,0.0,0.0,0.0,0.0,0.0,0.0,0.0,0.0,0.0,0.0,0.0,0.0,0.0,0.0,0.0,0.0,0.0,0.0,0.0,0.0,0.0,0.0,0.0,0.0,0.0,0.0,0.0,0.0,0.0,0.0,0.0,0.0,0.0,0.0,0.0,0.0,0.0,0.0,0.0,0.0,0.0,0.0,0.0,4.2144,0.0,0.0,0.0,0.0,0.0,0.0,0.0,0.0,0.0,0.0,0.0,0.0,0.0,0.0,0.0,0.0,0.0,0.0,0.0,0.0,0.0,0.0,0.0,0.0,0.0,0.0,0.0,0.0,0.0,0.0,0.0,0.0,0.0,0.0,0.0,0.0,0.0,0.0,3.3481,3.465,3.6399,3.8647,3.8219,3.7648,3.6925,0.0,0.0,0.0,0.0,0.0,0.0,0.0,0.0,0.0,0.0,0.0,0.0,0.0,0.0,0.0,0.0,0.0,0.0,0.0,0.0,0.0,0.0,0.0,0.0,0.0,0.0,0.0,0.0,0.0,0.0,0.0,0.0,0.0,0.0,0.0,0.0,0.0,0.0,0.0,0.0,0.0,0.0,0.0,0.0,0.0,0.0,0.0,0.0,0.0,0.0,0.0,0.0,0.0,0.0,0.0,0.0,0.0,0.0,0.0,0.0,0.0,0.0,0.0,0.0,0.0,0.0,0.0,0.0,0.0,0.0,0.0,4.2812,0.0,0.0,0.0,0.0,0.0,0.0,0.0,0.0,0.0,0.0,0.0,0.0,0.0,0.0,0.0,0.0,0.0,0.0,0.0,0.0,0.0,0.0,0.0,3.3025,3.3096,3.3096,3.3239,3.3311,3.3311,0.0,0.0,0.0,0.0,0.0,3.3311,3.3311,3.3766,3.4722,3.6792,3.9289,4.2144,4.2797,4.2083,4.0217,3.9958,0.0,0.0,0.0,0.0,0.0,0.0,0.0,0.0,0.0,0.0,0.0,0.0,0.0,0.0,0.0,0.0,0.0,0.0,0.0,0.0,0.0,0.0,0.0,0.0,0.0,0.0,0.0,0.0,0.0,0.0,0.0,0.0,0.0,0.0,0.0,0.0,0.0,0.0,0.0,0.0,0.0,0.0,0.0,0.0,0.0,0.0,0.0,0.0,0.0,0.0,0.0,0.0,0.0,0.0,0.0,0.0,0.0,0.0,0.0,0.0,0.0,0.0,0.0,5.0043,5.0352,5.0934,5.0934,5.1731,5.2886,4.8841,4.764,4.833,0.0,0.0,0.0,0.0,0.0,0.0,0.0,0.0,0.0,0.0,0.0,0.0,0.0,0.0,0.0,0.0,0.0,0.0,0.0,0.0,3.1118,3.2739,3.3517,3.3937,3.3937,3.4535,3.4892,3.4892,0.0,0.0,0.0,0.0,0.0,3.4892,3.4892,3.565,3.7122,4.1421,4.4453,4.6224,4.6331,4.6224,4.5867,4.4453,4.3418,4.2634,0.0,0.0,0.0,0.0,0.0,0.0,0.0,0.0,0.0,0.0,0.0,0.0,0.0,0.0,0.0,0.0,0.0,0.0,0.0,0.0,0.0,0.0,0.0,0.0,0.0,0.0,0.0,0.0,0.0,0.0,0.0,0.0,0.0,0.0,0.0,0.0,0.0,0.0,0.0,0.0,0.0,4.481,4.4203,0.0,0.0,0.0,0.0,0.0,0.0,0.0,0.0,0.0,0.0,0.0,0.0,0.0,5.1208,5.4955,5.4991,5.5776,5.7332,5.7332,5.7354,5.7461,5.7461,5.7975,5.8759,5.7439,0.0,5.0102,4.8877,0.0,0.0,0.0,0.0,0.0,0.0,0.0,0.0,0.0,0.0,0.0,0.0,0.0,0.0,0.0,0.0,0.0,0.0,0.0,0.0,0.0,3.465,3.5757,3.664,3.7425,3.7675,3.7246,3.6506,0.0,0.0,3.4892,3.4856,3.5177,3.6078,3.8397,4.2216,4.5178,4.7651,4.965,5.0114,5.0328,5.0293,5.0019,4.7735,4.4096,4.3847,0.0,0.0,0.0,0.0,0.0,0.0,0.0,0.0,0.0,0.0,0.0,0.0,0.0,0.0,0.0,0.0,0.0,0.0,0.0,0.0,0.0,0.0,0.0,0.0,0.0,0.0,0.0,0.0,0.0,0.0,0.0,0.0,0.0,0.0,0.0,0.0,0.0,0.0,0.0,4.3893,4.5666,4.5309,4.4988,4.4,0.0,0.0,0.0,0.0,0.0,0.0,0.0,0.0,0.0,5.3706,5.4242,5.6182,5.968,5.9716,6.0487,6.2006,6.2006,6.2256,6.2684,6.2684,6.2862,6.3199,6.2827,6.1078,5.8117,5.4228,5.0839,4.7997,0.0,0.0,0.0,0.0,4.6883,4.7921,0.0,0.0,0.0,0.0,0.0,0.0,0.0,0.0,0.0,0.0,0.0,0.0,3.4829,3.672,3.8469,3.9886,4.0671,4.0707,3.9753,3.8754,3.7577,3.6176,3.5712,3.5712,3.6105,3.8469,4.2119,4.6998,4.8794,5.0792,5.2934,5.3505,5.3791,5.3826,5.4384,5.1695,4.6701,4.6701,4.5249,4.2833,0.0,0.0,0.0,0.0,0.0,0.0,0.0,0.0,0.0,0.0,0.0,0.0,0.0,0.0,0.0,0.0,0.0,0.0,0.0,0.0,0.0,0.0,0.0,0.0,0.0,0.0,0.0,0.0,0.0,0.0,0.0,0.0,0.0,0.0,0.0,0.0,0.0,4.5392,4.7247,4.7818,4.7747,4.6926,0.0,0.0,0.0,0.0,0.0,0.0,5.2231,5.3457,5.5562,5.8702,5.9609,6.1322,6.4055,6.4091,6.4769,6.6109,6.6173,6.651,6.7098,6.7147,6.7163,6.7163,6.7163,6.659,6.5216,5.9409,5.5633,5.335,5.1781,5.0592,4.9913,5.1036,5.1933,5.295,0.0,0.0,0.0,0.0,0.0,0.0,0.0,0.0,0.0,0.0,0.0,3.5641,3.7229,4.0156,4.2323,4.3204,4.3954,4.374,4.2226,4.0646,3.9458,3.8638,3.7148,3.7041,3.8602,4.3072,4.6998,5.0281,5.2587,5.455,5.6169,5.6204,5.6204,5.624,5.624,5.4862,5.2327,5.009,4.8639,4.752,4.3761,0.0,0.0,0.0,0.0,0.0,0.0,0.0,0.0,0.0,0.0,0.0,0.0,0.0,0.0,0.0,0.0,0.0,0.0,0.0,0.0,0.0,0.0,0.0,0.0,0.0,0.0,0.0,0.0,0.0,0.0,0.0,0.0,0.0,0.0,0.0,0.0,0.0,0.0,5.3337,5.2957,0.0,0.0,0.0,0.0,5.3359,5.4335,5.649,6.0308,6.0594,6.2057,6.5233,6.6105,6.7302,6.8927,6.8963,6.9355,7.0193,7.0379,7.0516,7.0551,7.077,7.0836,7.0836,7.0836,6.9937,6.8143,6.3745,6.0522,5.8203,5.681,5.53,5.4215,5.5913,5.7045,5.7958,0.0,0.0,0.0,0.0,0.0,0.0,0.0,0.0,3.176,3.308,3.5301,3.755,3.962,4.3118,4.6034,4.7842,4.8235,4.7949,4.6879,4.4382,4.2348,4.1109,3.9504,4.035,4.4,4.7711,5.1387,5.5076,5.6369,5.7832,5.9416,5.9416,5.9416,5.9416,5.9416,5.8952,5.7967,5.4563,5.2065,5.0257,4.7783,4.5131,0.0,0.0,0.0,0.0,0.0,0.0,0.0,0.0,0.0,0.0,0.0,0.0,0.0,0.0,0.0,0.0,0.0,0.0,0.0,0.0,0.0,0.0,0.0,0.0,0.0,0.0,0.0,0.0,0.0,0.0,0.0,0.0,0.0,0.0,0.0,0.0,0.0,5.3787,5.467,0.0,5.442,5.5076,5.5919,5.694,5.9166,6.1557,6.3984,6.5054,6.6589,6.8766,6.9622,7.0832,7.2509,7.2008,7.222,7.3146,7.2676,7.2458,7.2494,7.2562,7.2578,7.2578,7.2578,7.2255,7.1571,6.9516,6.6381,6.2757,6.2256,6.1746,6.1329,6.2097,6.2875,6.3683,0.0,0.0,0.0,0.0,0.0,0.0,0.0,3.2152,3.308,3.4686,3.7407,4.0191,4.2787,4.6616,4.9722,5.1517,5.1695,5.0911,4.9067,4.6451,4.4061,4.1976,4.1895,4.4107,4.8901,5.1828,5.5098,5.8788,5.9559,6.0594,6.1878,6.2164,6.2271,6.2307,6.2556,6.2699,6.2485,5.9309,5.6454,5.3849,5.1458,4.8806,4.607,0.0,0.0,0.0,0.0,0.0,0.0,0.0,0.0,0.0,0.0,0.0,0.0,0.0,0.0,0.0,0.0,0.0,0.0,0.0,0.0,0.0,0.0,0.0,0.0,0.0,0.0,0.0,0.0,0.0,0.0,0.0,0.0,0.0,0.0,0.0,5.3671,5.5727,5.7632,5.8667,5.8403,5.9594,6.0694,6.1524,6.4255,6.636,6.7481,6.9287,7.0897,7.2257,7.3044,7.4135,7.5585,7.5047,7.5117,7.5779,7.5309,7.5074,7.5074,7.5143,7.5177,7.5177,7.4889,7.4636,7.4312,7.3519,7.1175,6.8018,6.7415,6.704,6.6803,6.7005,6.7231,6.7463,0.0,0.0,0.0,0.0,0.0,0.0,3.1625,3.308,3.4678,3.6256,3.9906,4.3582,4.6795,5.065,5.3327,5.405,5.4073,5.2409,4.8556,4.6759,4.45,4.1431,4.4357,4.8282,5.2947,5.5397,5.8131,6.1236,6.2072,6.2821,6.3571,6.4341,6.4717,6.4789,6.5554,6.5911,6.5804,6.4213,6.1771,5.8617,5.4683,5.2613,5.1435,0.0,0.0,0.0,0.0,0.0,0.0,0.0,0.0,0.0,0.0,0.0,0.0,0.0,0.0,0.0,0.0,0.0,0.0,0.0,0.0,0.0,0.0,0.0,0.0,0.0,0.0,0.0,0.0,0.0,0.0,0.0,0.0,0.0,5.1792,5.3813,5.6476,5.9616,6.2057,6.3821,6.4626,6.5411,6.6276,6.7239,6.9493,7.0902,7.1087,7.3334,7.4988,7.5815,7.6534,7.7326,7.8135,7.8171,7.8171,7.8171,7.8332,7.8421,7.8421,7.8615,7.8702,7.8666,7.7869,7.7108,7.6311,7.5534,7.4738,7.3852,7.2079,7.0895,7.0241,7.0434,6.9989,6.9192,0.0,0.0,0.0,0.0,0.0,0.0,3.2454,3.3437,3.507,3.7782,4.1528,4.5606,4.9924,5.3434,5.5754,5.6525,5.5562,5.3706,5.0935,4.8187,4.6295,4.5438,5.0031,5.3778,5.6254,5.9716,6.2449,6.4519,6.5304,6.6105,6.6803,6.7017,6.7445,6.8035,6.8249,6.8321,6.8249,6.7231,6.5982,6.4305,5.9809,5.6811,5.492,0.0,0.0,0.0,0.0,0.0,0.0,0.0,0.0,0.0,0.0,0.0,0.0,0.0,0.0,0.0,0.0,0.0,0.0,0.0,0.0,0.0,0.0,0.0,0.0,0.0,0.0,0.0,0.0,0.0,0.0,0.0,0.0,5.4323,5.347,5.5905,5.8902,6.2057,6.4179,6.5887,6.7211,6.7697,6.8475,6.9836,7.0571,7.1701,7.3513,7.4772,7.5815,7.657,7.7362,7.8225,7.9198,7.9198,7.9251,7.9412,7.9465,7.9194,7.8615,7.8667,7.8702,7.8702,7.8484,7.8231,7.8014,7.7796,7.7579,7.7091,7.429,7.3043,7.2879,7.2927,7.2436,7.1603,0.0,0.0,0.0,0.0,0.0,0.0,3.3231,3.4079,3.5926,3.9753,4.3097,4.6926,5.1685,5.4719,5.6597,5.7075,5.5361,5.3242,5.0852,4.8389,4.8044,5.0316,5.4135,5.7602,6.0603,6.3214,6.5354,6.6992,6.7832,6.8441,6.887,6.9515,7.0071,7.052,7.1217,7.1325,7.0986,7.0434,6.9757,6.8827,6.5621,6.2342,5.9166,5.7739,5.5334,5.2636,5.1624,5.0482,4.9293,4.7997,0.0,0.0,0.0,0.0,0.0,0.0,0.0,0.0,0.0,0.0,0.0,0.0,0.0,0.0,0.0,0.0,0.0,0.0,0.0,0.0,0.0,0.0,0.0,0.0,5.71,5.8956,5.8275,5.9774,6.1851,6.4307,6.6155,6.7797,6.934,6.9601,7.0345,7.1994,7.2426,7.3413,7.5211,7.6094,7.7015,7.8133,7.8927,7.9811,8.0732,8.1057,8.1292,8.1418,8.1418,8.1165,8.0694,8.0694,8.0513,0.0,7.9861,7.9499,7.9173,7.8847,7.8702,0.0,0.0,0.0,0.0,0.0,7.3615,7.3144,0.0,0.0,0.0,0.0,0.0,0.0,3.3893,3.4785,3.7032,4.1798,4.4392,4.764,5.2506,5.4969,5.624,5.624,5.4112,5.1792,4.9448,4.8472,5.0246,5.541,5.7438,6.0561,6.5085,6.6068,6.733,6.8946,6.9773,7.0221,7.0329,7.1787,7.2506,7.2686,7.4197,7.4448,7.3801,7.3611,7.3111,7.2341,7.1473,6.828,6.3805,6.1664,5.988,5.8217,5.6012,5.467,5.3826,5.2934,0.0,0.0,0.0,0.0,0.0,0.0,0.0,0.0,0.0,0.0,0.0,0.0,0.0,0.0,0.0,0.0,0.0,0.0,0.0,0.0,0.0,0.0,0.0,0.0,6.186,6.4359,6.4554,6.4719,6.528,6.6444,6.7918,6.9481,7.1029,7.1189,7.1975,7.3871,7.463,7.5509,7.6529,0.0,0.0,0.0,0.0,8.1635,8.2414,8.3247,8.361,8.3501,8.361,8.361,8.3501,8.3501,8.3102,8.2414,8.1672,8.0984,8.0259,7.9426,7.8992,7.8774,7.7941,7.7181,7.6384,7.4971,7.4339,7.4158,0.0,0.0,0.0,0.0,0.0,0.0,3.4035,3.5293,3.7898,4.2634,4.4738,4.7842,5.3194,5.4764,5.5441,5.5441,5.3278,5.1173,4.9412,5.2155,5.5167,5.814,6.1717,6.4699,6.6957,6.8359,6.9561,7.0564,7.1355,7.2075,7.2722,7.3693,7.4484,7.5132,7.612,7.6444,7.63,7.6265,7.578,7.5044,7.4829,7.2128,6.8035,6.6946,6.5554,6.4055,6.2934,6.1664,6.0251,5.8809,5.7275,5.5633,5.3551,5.116,0.0,0.0,0.0,0.0,0.0,0.0,0.0,0.0,0.0,0.0,0.0,0.0,0.0,0.0,0.0,0.0,0.0,0.0,0.0,6.2867,6.4831,6.6712,6.803,6.9281,6.9606,6.8366,6.9181,7.045,7.2073,7.2295,7.3333,7.5609,7.5952,7.6676,7.8159,7.8992,7.9897,8.0821,8.1635,8.245,8.3247,8.4062,8.4135,8.3501,0.0,0.0,8.3501,8.3501,8.3428,8.3247,8.3084,8.2939,8.274,8.1943,8.0839,7.9607,7.8774,7.8376,7.8195,7.7905,7.6963,7.5841,0.0,0.0,0.0,0.0,0.0,0.0,3.4606,3.565,3.7826,4.1777,4.3668,4.613,5.0054,5.1553,5.2266,5.2266,5.116,5.0531,5.0617,5.4379,5.8258,6.1882,6.5175,6.7698,6.9361,7.055,7.1591,7.2431,7.3674,7.4468,7.4865,7.6093,7.6887,7.7284,7.8511,7.8836,7.8511,7.9216,7.9035,7.8297,7.8207,7.6608,7.4027,7.1524,6.9881,6.87,6.6978,6.5839,6.4963,6.3377,6.2057,6.0772,5.8774,5.6276,5.3492,0.0,0.0,0.0,0.0,0.0,0.0,0.0,0.0,0.0,0.0,0.0,0.0,0.0,0.0,6.1035,0.0,0.0,6.6965,6.7746,6.8913,7.0046,7.0842,7.1965,7.2191,7.0875,7.1464,7.2488,7.3682,7.4234,7.5152,7.6782,7.7253,7.8014,7.9245,8.0078,8.0875,8.1672,8.2867,8.3682,8.4117,8.4895,8.5112,8.4714,8.5112,8.5076,8.4678,8.4678,8.446,8.4117,8.4117,8.3845,8.3465,8.3066,8.245,8.1635,8.0802,7.9752,7.8702,7.8702,7.8195,7.7434,0.0,0.0,0.0,0.0,0.0,0.0,3.532,3.6114,3.7719,4.0717,4.2241,4.3929,4.6295,4.7628,4.833,4.8164,4.9091,5.0389,5.1991,5.6389,6.0999,6.5601,6.7939,6.9961,7.1709,7.2555,7.3415,7.4392,7.5804,7.669,7.7036,7.8484,7.9245,7.9462,8.0911,8.1201,8.0676,8.1816,8.1924,8.1309,8.1144,8.0692,7.9702,7.6015,7.3809,7.243,7.0021,6.883,6.8189,6.678,6.5748,6.4789,6.3234,6.0909,5.8152,5.5022,5.2855,0.0,0.0,0.0,0.0,0.0,0.0,0.0,0.0,5.7624,5.9222,6.1606,6.434,6.6978,6.9075,7.0852,7.2162,7.2581,7.2943,7.3217,7.3378,7.3832,7.4013,7.3651,7.3941,7.4448,7.5244,7.6058,7.6927,7.7869,7.8702,7.9535,8.0332,8.1128,8.1925,8.274,8.4026,8.4786,8.4931,8.5583,8.5909,8.5909,8.5909,8.5909,8.5909,8.5909,8.5547,8.4931,8.4931,8.446,8.3755,8.3755,8.3646,8.3428,8.2595,8.111,7.939,7.9209,7.9064,7.8847,0.0,0.0,0.0,0.0,0.0,0.0,0.0,0.0,3.8335,4.0788,4.1252,4.2241,4.4596,4.5013,4.4802,4.4038,4.8437,5.1681,5.2738,5.9222,6.4608,6.8155,6.9865,7.1601,7.3369,7.4163,7.5041,7.6022,7.6927,7.8086,7.9535,8.0404,8.1201,8.1943,8.2849,8.3175,8.3102,8.3247,8.3283,8.3211,8.3156,8.3102,8.2794,8.0731,7.8027,7.515,7.3426,7.135,6.9317,6.8405,6.752,6.6446,6.484,6.3719,6.2424,5.9236,5.6801,5.523,5.5782,5.6453,5.692,5.6479,5.7499,5.8885,0.0,0.0,6.5149,6.7683,7.1246,7.4178,7.5172,7.6674,7.7543,7.6927,7.5732,7.5063,7.5804,7.537,7.5462,7.6782,7.5788,7.5281,7.6094,7.6891,7.8014,7.9535,8.0404,8.1201,8.1979,8.2813,8.361,8.4388,8.4605,8.504,8.5764,8.5873,8.5909,8.5909,8.5909,8.5909,8.5909,8.5909,8.5837,8.5764,8.5764,8.5293,8.4588,8.4588,8.4135,8.3428,8.2595,8.2124,8.1798,8.1092,8.0404,7.9752,0.0,0.0,0.0,0.0,0.0,0.0,0.0,0.0,3.7943,3.8942,3.9384,4.0022,4.1009,4.1466,4.1735,4.1824,4.6529,5.0836,5.407,6.064,6.6099,6.9849,7.2401,7.414,7.5029,7.6256,7.739,7.8412,7.9209,8.0187,8.1309,8.2106,8.2686,8.303,8.3863,8.4225,8.4225,8.4678,8.4895,8.4895,8.4895,8.4316,8.3374,8.2142,7.9358,7.5749,7.3005,7.0427,0.0,6.6915,6.6222,6.5873,6.5658,6.4434,6.2772,6.1042,5.887,5.7306,5.8601,5.9893,6.0935,6.1129,6.2412,6.4144,6.5916,6.8413,7.1054,7.3523,7.6818,7.939,7.9733,8.0349,8.0513,0.0,7.8231,7.7144,7.7,7.671,7.6746,7.7434,7.7326,7.7326,7.7651,7.8847,7.9861,8.0531,8.178,8.265,8.2994,8.3755,8.4352,8.4678,8.5149,8.5547,8.5909,8.5909,8.5909,8.5909,8.5909,8.5909,8.5909,8.5909,8.5909,8.5909,8.5909,8.5692,8.5402,8.5402,8.5185,8.4823,8.4008,8.3428,8.2849,8.1563,8.0893,8.0549,0.0,0.0,0.0,0.0,0.0,0.0,0.0,0.0,0.0,0.0,3.7993,3.8263,3.8244,3.8634,3.9297,4.0312,4.456,4.9334,5.4483,6.0535,6.6066,7.0857,7.3634,7.5478,7.6391,7.7829,7.9071,8.0063,8.0894,8.1798,8.2792,8.3408,8.3843,8.406,8.4732,8.504,8.5076,8.5656,8.5909,8.5873,8.5656,8.475,8.3356,8.1871,7.8666,7.4612,7.1821,6.8953,6.6192,6.4177,6.35,6.3507,6.3866,6.2946,6.1731,6.1436,6.0433,5.9682,6.0871,6.2723,6.4614,6.5641,6.7363,6.9394,7.18,7.3849,7.5913,7.834,8.0856,8.2632,8.2632,8.2632,8.2378,8.1563,8.0078,7.8738,7.7941,7.7651,7.7507,7.7507,7.8195,7.8883,7.9318,8.0621,8.1418,8.1418,8.2903,8.3827,8.3827,8.4569,8.504,8.504,8.5583,8.5909,8.5909,8.5909,8.5909,8.5909,8.5909,8.5909,8.5909,8.5909,8.5909,8.5909,8.5909,8.5909,8.5909,8.5909,8.5909,8.5801,8.5004,8.4207,8.3356,8.1925,8.1309,8.1002,0.0,0.0,0.0,0.0,0.0,0.0,0.0,0.0,0.0,0.0,0.0,3.7409,3.7359,3.7187,3.7692,3.9217,4.2858,4.7495,5.3191,5.8476,6.4376,7.0984,7.2704,7.4713,7.7383,7.8448,7.9478,8.0472,8.1263,8.245,8.3924,8.4153,8.4701,8.5442,8.5761,8.5873,8.5873,8.5873,8.5909,8.5837,8.504,8.4243,8.3175,8.0006,7.5841,7.1531,7.0698,6.7731,6.374,6.0624,5.9434,5.9139,5.8385,5.8759,5.9651,6.0408,6.1759,6.3056,6.3092,6.5432,6.822,6.9828,7.1965,7.4303,7.6746,7.7941,7.9245,8.1653,8.2849,8.3465,8.3465,8.3465,8.3211,8.2378,8.0911,7.9571,7.8774,7.7977,7.7507,7.7507,7.8195,7.9318,0.0,8.178,8.2269,8.2269,8.3755,8.4642,8.4642,8.5438,8.5873,8.5873,8.5873,8.5909,8.5909,8.5909,8.5909,8.5909,8.5909,8.5909,8.5909,8.5909,8.5909,8.5909,8.5909,8.5909,8.5909,8.5909,8.5909,8.5801,8.5004,8.4207,8.3392,8.2559,8.178,8.1111,0.0,0.0,0.0,0.0,0.0,0.0,0.0,0.0,0.0,0.0,0.0,0.0,0.0,0.0,0.0,0.0,4.1346,4.5238,4.9758,5.6164,6.1936,6.6793,7.0501,7.3267,7.4934,7.6362,7.7638,7.8761,8.0088,8.1253,8.2277,8.3142,8.369,8.3962,8.4205,8.4316,8.4316,8.4316,8.4008,8.3465,8.265,8.1201,7.91,7.537,7.1277,6.7003,0.0,5.9625,5.7678,5.5545,5.4785,5.4844,5.5638,5.6145,5.6774,5.8582,6.1457,6.4359,6.5953,6.8706,7.1386,7.2472,7.4935,7.7579,7.9462,8.1346,8.3193,8.504,8.5257,8.4931,8.4388,8.2976,8.1635,8.0839,7.9825,7.881,7.8014,7.7651,7.7688,7.8231,7.8557,0.0,0.0,0.0,0.0,8.3863,8.4895,8.5511,8.5511,8.5764,8.5909,8.5909,8.5909,8.5909,8.5909,8.5909,8.5909,8.5909,8.5909,8.5909,8.5909,8.5909,8.5909,8.5909,8.5909,8.5909,8.5909,8.5909,8.5909,8.5873,8.5583,8.5004,8.4243,8.399,8.3374,8.2541,0.0,0.0,0.0,0.0,0.0,0.0,0.0,0.0,0.0,0.0,0.0,0.0,0.0,0.0,0.0,0.0,0.0,4.2699,4.6947,5.2323,5.7487,6.2341,6.6075,6.8804,7.0469,7.1906,7.3135,7.428,7.6424,7.7909,7.8714,8.0544,8.1397,8.1415,8.1961,8.2034,8.178,8.207,8.1237,7.9643,7.8557,7.6476,7.3704,6.9973,6.6062,0.0,5.6971,5.3965,5.2179,5.114,5.1357,5.2299,5.3639,5.5414,5.7248,5.8492,6.2078,6.6134,6.8271,7.1168,7.3868,7.5281,7.7615,8.0042,8.1961,8.3809,8.5583,8.7121,8.5945,8.4352,8.3555,8.1201,7.9136,7.8322,7.8231,7.7977,7.7181,7.7579,7.8014,7.8231,7.8774,7.9861,0.0,0.0,0.0,8.4642,8.5438,8.5909,8.5909,8.5909,8.5909,8.5909,8.5909,8.5909,8.5909,8.5909,8.5909,8.5909,8.5909,8.5909,8.5909,8.5909,8.5909,8.5909,8.5909,8.5909,8.5909,8.5909,8.5909,8.5909,8.5909,8.5402,8.4678,8.4678,8.4171,8.332,0.0,0.0,0.0,0.0,0.0,0.0,0.0,0.0,0.0,0.0,0.0,0.0,0.0,0.0,0.0,0.0,0.0,0.0,4.4642,4.7148,5.1312,5.7669,5.9562,6.1665,6.4229,6.5278,6.6241,6.7208,7.0433,7.2442,7.3332,7.6123,7.747,7.7577,7.8708,7.881,7.8159,7.8919,7.7417,7.4412,7.2855,7.0356,6.7206,6.3997,6.0353,5.6645,5.4255,5.0948,4.7761,4.7725,4.9365,5.1586,5.2552,5.6536,6.0724,6.0145,6.3816,6.8452,7.017,7.2907,7.586,7.8231,8.0078,8.1889,8.4243,8.5366,8.638,8.7846,8.4931,8.1871,0.0,0.0,7.5841,7.5136,7.6348,7.7144,7.6456,7.7688,7.8376,0.0,0.0,0.0,0.0,0.0,0.0,8.4642,0.0,8.5909,8.5909,8.5909,8.5909,8.5909,8.5909,8.5909,8.5909,8.5909,8.5909,8.5909,8.5909,8.5909,8.5909,8.5909,8.5909,8.5909,8.5909,8.5909,8.5909,8.5909,8.5909,8.5909,8.5909,8.5438,8.475,8.475,8.4298,8.3519,0.0,0.0,0.0,0.0,0.0,0.0,0.0,0.0,0.0,0.0,0.0,0.0,0.0,0.0,0.0,0.0,0.0,0.0,3.98,4.3293,4.6825,5.0293,5.3032,5.5452,5.7541,5.8425,5.9417,6.0552,6.2639,6.4431,6.6028,6.7661,6.8798,6.9469,6.9937,7.0046,6.9865,7.0046,6.8959,6.704,6.6025,6.407,6.1412,5.8239,5.5631,5.3313,5.0307,4.8956,4.8485,4.7906,5.0079,5.3639,5.679,5.9602,6.2136,6.4309,6.6822,6.9626,7.2979,7.5788,7.8231,8.0024,8.2143,8.4098,8.533,8.6199,8.6832,8.723,8.3229,7.9354,7.8557,0.0,0.0,7.405,7.5063,0.0,7.7036,7.7543,0.0,7.834,0.0,8.044,8.1853,8.2921,0.0,0.0,8.5438,8.5909,8.5909,8.5909,8.5909,8.5909,8.5909,8.5909,8.5909,8.5909,8.5909,8.5909,8.5909,8.5909,8.5909,8.5909,8.5909,8.5909,8.5909,8.5909,8.5909,8.5909,8.5909,8.5909,8.5909,8.5764,8.5583,8.5583,8.5532,8.5227,0.0,0.0,0.0,0.0,0.0,0.0,0.0,0.0,0.0,0.0,0.0,0.0,0.0,0.0,0.0,0.0,0.0,0.0,0.0,3.9993,4.2402,4.4526,4.6584,4.8452,5.0214,5.1055,5.205,5.3218,5.5729,5.7531,5.8645,6.0562,6.1774,6.2355,6.2863,6.2911,6.2621,6.2947,6.1788,0.0,0.0,5.7273,5.5196,5.3048,5.1708,5.0669,4.8884,4.9209,5.0839,5.3193,5.5257,5.7514,6.1485,6.4106,6.6025,6.7836,7.0009,7.2436,7.537,7.7941,7.9969,8.0857,8.265,8.4098,8.3845,8.3845,8.379,8.3428,7.8666,7.45,7.4408,7.1675,6.9865,0.0,0.0,0.0,7.5732,7.6818,7.7796,0.0,7.9716,0.0,8.2197,8.303,8.3827,0.0,8.5438,8.5909,8.5909,8.5909,8.5909,8.5909,8.5909,8.5909,8.5909,8.5909,8.5909,8.5909,8.5909,8.5909,8.5909,8.5909,8.5909,8.5909,0.0,8.5909,8.5909,8.5909,8.5909,8.5928,8.5967,8.5969,8.5987,8.6098,8.6173,8.6065,0.0,0.0,0.0,0.0,0.0,0.0,0.0,0.0,0.0,0.0,0.0,0.0,0.0,0.0,0.0,0.0,0.0,0.0,0.0,0.0,3.849,4.0163,4.0752,4.1744,4.3254,4.3967,4.4863,4.5999,4.9153,5.0902,5.1421,5.3864,5.516,5.5431,5.6255,5.6246,5.563,5.6427,5.516,5.2529,5.1914,5.085,4.9557,0.0,4.8666,4.8775,4.8992,5.0669,5.382,6.029,6.21,6.2317,6.646,6.9321,7.1184,7.1184,7.3197,7.5751,7.7398,7.9499,8.1273,8.1273,8.2396,8.3012,8.1201,8.0078,7.91,7.7977,7.2923,6.8938,6.9626,6.7873,6.675,6.809,0.0,7.3072,7.4231,7.6275,7.7905,7.8629,8.0042,8.1309,8.2197,8.303,8.3827,8.4642,8.5438,8.5909,8.5909,8.5909,8.5909,8.5909,8.5909,8.5909,8.5909,8.5909,8.5909,8.5909,8.5909,8.5909,8.5909,8.5909,8.5909,8.5909,8.5909,0.0,8.5909,8.5911,8.5911,8.593,8.6063,8.6137,8.6155,8.632,8.6429,8.6337,0.0,0.0,0.0,0.0,0.0,0.0,0.0,0.0,0.0,0.0,3.6028,3.5711,0.0,0.0,0.0,0.0,0.0,0.0,0.0,0.0,0.0,3.7661,3.7602,3.8065,3.9138,3.9178,3.9756,4.0871,4.1801,4.3125,4.4826,4.551,4.6266,4.7097,4.7263,4.7237,4.7176,4.7958,4.7688,4.6726,4.7211,4.7253,4.712,4.6975,0.0,0.0,4.9401,5.1864,5.5558,6.2585,6.5337,6.6569,7.1189,7.3885,7.5278,7.5278,7.613,7.7434,7.9064,8.0766,8.2088,8.2088,8.2813,8.2722,7.9788,7.7977,7.613,7.3342,6.9285,6.6279,6.6424,6.4989,6.5171,6.93,7.1494,7.3704,7.6492,7.7796,7.8557,0.0,7.9535,8.0694,8.2161,0.0,0.0,0.0,0.0,8.5909,8.5909,8.5909,8.5909,8.5909,8.5909,8.5909,8.5909,8.5909,8.5909,8.5909,8.5909,8.5909,8.5909,8.5909,8.5909,8.5909,8.5909,0.0,8.5928,8.6025,8.6044,8.6063,8.6265,8.6338,8.6338,8.6411,8.6519,8.6533,0.0,0.0,0.0,0.0,0.0,0.0,0.0,3.4606,3.5397,3.624,3.642,3.6369,3.6093,3.5745,3.5486,0.0,0.0,0.0,0.0,0.0,0.0,3.6288,3.6118,3.6432,3.7303,3.7185,3.7652,3.873,0.0,3.9905,4.1064,4.1415,4.1894,4.2452,4.2511,4.2541,4.2577,4.2972,4.3172,4.3284,4.4057,4.4947,4.5879,4.623,0.0,0.0,4.9666,5.2165,5.58,6.1752,6.512,6.8017,7.4846,7.6674,7.6546,7.7796,7.8159,7.8484,8.0114,8.1382,8.2197,8.178,8.1635,8.0549,7.6492,7.3704,7.106,6.7836,6.4323,6.1969,6.2404,6.2549,6.3599,6.6765,6.9647,7.2183,7.4102,7.613,7.7615,7.8014,7.9173,8.0549,0.0,0.0,0.0,0.0,0.0,8.5909,8.5909,8.5909,8.5909,8.5909,8.5909,8.5909,8.5909,8.5909,8.5909,8.5909,8.5909,8.5909,8.5909,8.5909,8.593,8.6006,8.6006,0.0,8.6191,8.6247,8.6247,8.6265,8.6465,8.6573,8.6554,8.668,8.6768,8.6783,0.0,0.0,0.0,0.0,0.0,0.0,0.0,3.4788,3.584,3.6361,3.6957,3.7198,3.6959,3.6202,3.5586,0.0,0.0,0.0,0.0,0.0,0.0,0.0,0.0,0.0,3.6258,0.0,0.0,3.7523,3.798,0.0,0.0,0.0,0.0,0.0,3.9649,3.9705,3.9741,4.0055,4.0558,0.0,0.0,4.3764,4.5338,0.0,0.0,0.0,0.0,5.2299,5.5582,6.0217,6.3549,6.7206,7.5515,7.7398,7.6963,7.9028,7.9462,7.9535,8.0984,8.1817,8.2124,8.1309,8.0259,7.8122,7.3305,6.9647,6.6315,6.3106,6.0122,5.8383,5.918,6.0362,6.1919,6.4033,6.7344,7.0046,7.1313,7.4138,7.642,0.0,7.8774,0.0,8.2124,0.0,0.0,0.0,0.0,0.0,8.5909,8.5909,8.5909,8.5909,8.5909,8.5909,8.5909,8.5909,8.5909,8.5909,8.593,8.5948,8.5948,8.5986,8.6043,8.6155,8.6155,0.0,0.0,8.6465,8.6447,8.6465,8.6697,8.6768,8.6786,8.6925,8.6978,8.6978,0.0,0.0,0.0,0.0,0.0,0.0,0.0,3.516,3.659,3.7115,3.7257,3.7536,3.814,3.7123,3.61,0.0,0.0,0.0,0.0,0.0,0.0,0.0,0.0,0.0,0.0,0.0,0.0,3.6352,3.6678,0.0,0.0,0.0,0.0,0.0,0.0,3.7836,3.7944,3.9354,0.0,0.0,0.0,0.0,0.0,0.0,0.0,0.0,0.0,5.277,5.551,5.9529,6.1593,6.3585,7.0191,7.4645,7.7579,7.8521,7.9788,8.1092,8.1943,8.2233,8.2124,8.1309,7.939,7.6456,7.1691,6.7562,6.3816,6.0593,5.8528,5.755,5.8347,5.8637,5.9977,6.378,6.5953,6.8162,7.1096,7.3651,7.5788,7.7326,0.0,0.0,8.2088,0.0,0.0,0.0,0.0,0.0,8.5909,8.5909,8.5909,8.5909,8.5909,8.5909,8.5909,8.5909,8.5909,8.5909,8.6025,8.6081,8.6081,8.6247,8.6375,8.6356,8.6356,0.0,0.0,8.659,8.6661,8.6679,8.6891,8.696,8.696,8.6978,8.6978,8.6978,0.0,0.0,0.0,0.0,0.0,0.0,3.325,3.5359,3.7068,3.7249,3.8069,3.8633,3.8652,3.7718,3.6743,3.5921,0.0,0.0,0.0,0.0,0.0,0.0,0.0,0.0,0.0,0.0,3.5735,3.6082,3.6916,0.0,0.0,0.0,0.0,0.0,0.0,3.8326,3.8362,3.8959,0.0,0.0,0.0,0.0,0.0,0.0,0.0,0.0,0.0,0.0,5.4508,5.656,5.8081,5.9905,6.4381,6.7873,7.1241,7.5877,7.805,7.9318,8.1092,8.1201,8.0658,7.9861,7.747,7.4102,6.9321,6.5859,6.2766,5.9542,5.7985,5.7297,5.7623,5.8058,5.9253,6.1824,6.4396,6.6677,6.8452,7.1567,7.405,7.5189,7.6891,0.0,0.0,0.0,0.0,0.0,0.0,0.0,8.5909,8.5909,8.5909,8.5909,8.5909,8.593,8.6025,8.6025,8.608,8.6192,8.6265,8.6265,8.6283,8.6338,8.6483,8.6572,8.6572,0.0,0.0,8.6838,8.6873,8.6891,8.696,8.6978,8.6978,8.6978,8.6978,8.6978,0.0,0.0,0.0,0.0,0.0,3.3499,3.3371,3.5489,3.7135,3.7406,3.8496,3.9263,3.9139,3.8157,3.723,3.6582,3.5638,0.0,0.0,0.0,0.0,0.0,0.0,0.0,0.0,0.0,3.6208,3.6638,3.7531,3.8084,0.0,0.0,3.9122,3.8687,0.0,0.0,0.0,0.0,0.0,0.0,0.0,0.0,0.0,0.0,0.0,0.0,0.0,0.0,0.0,0.0,0.0,5.6645,5.9348,6.1897,6.5337,7.2979,7.613,7.7651,8.0114,8.0151,7.9281,7.8231,7.5406,7.1748,6.7438,6.4396,6.1716,5.8963,5.7768,5.7188,5.7188,5.7659,5.8565,6.0181,6.2766,6.4975,6.6279,6.9865,7.2818,7.4086,0.0,0.0,0.0,0.0,0.0,0.0,0.0,0.0,8.6042,8.6042,8.6024,8.5967,8.6024,8.608,8.6192,8.6192,8.6247,8.6411,8.6447,8.6465,8.6465,8.6555,8.6662,8.6803,8.6803,0.0,0.0,8.6978,8.6978,8.6978,8.6978,8.6978,8.6978,8.6978,8.6978,8.6978,0.0,0.0,0.0,0.0,0.0,0.0,3.4119,3.5495,3.6786,3.7595,3.8348,3.9089,3.9817,3.8459,3.7431,3.7307,3.5949,0.0,0.0,0.0,0.0,0.0,0.0,0.0,0.0,0.0,3.6725,3.8182,3.8466,3.8761,3.9108,3.9698,3.9807,3.9519,0.0,0.0,0.0,0.0,0.0,0.0,0.0,0.0,0.0,0.0,0.0,0.0,0.0,0.0,0.0,0.0,0.0,0.0,0.0,5.7732,6.1376,7.0139,7.4428,7.6835,7.9245,7.9318,7.834,7.671,7.3358,6.959,6.6351,6.3128,6.0362,5.8746,5.7768,5.7188,5.7188,5.7188,5.7732,5.9348,6.0978,6.2861,6.5265,6.9032,7.2384,0.0,0.0,7.9318,0.0,0.0,0.0,0.0,0.0,0.0,8.6374,8.6374,8.6283,8.61,8.6283,8.6411,8.6411,8.6411,8.6411,8.6392,8.659,8.6715,8.6679,8.6891,8.6978,0.0,0.0,0.0,0.0,8.6978,8.6978,8.6978,8.6978,8.6978,8.6978,8.6978,8.6978,8.6978,0.0,0.0,0.0,0.0,0.0,0.0,0.0,3.5655,3.676,3.7123,3.7813,3.8343,3.857,3.7578,3.6827,3.6707,3.5626,0.0,0.0,0.0,0.0,0.0,0.0,0.0,0.0,0.0,3.7505,3.9102,3.9858,4.0692,4.1575,4.2214,4.2275,4.1826,4.1644,4.1548,0.0,0.0,0.0,0.0,0.0,0.0,0.0,0.0,0.0,0.0,0.0,0.0,0.0,0.0,0.0,0.0,0.0,0.0,0.0,6.2969,6.7836,7.1836,7.3667,7.4392,7.4356,7.3269,7.0879,6.7909,6.4685,6.2331,6.0181,5.8021,5.7369,5.7188,5.7188,5.7188,5.7913,6.0072,6.1304,6.3042,6.5989,6.8923,0.0,7.4013,7.75,8.0561,0.0,0.0,0.0,0.0,0.0,0.0,8.6411,8.6518,8.6501,8.6302,8.6393,8.6483,8.659,8.6626,8.668,8.6803,8.6873,8.6908,8.6908,8.696,8.6978,0.0,0.0,0.0,0.0,8.6978,8.6978,8.6978,8.6978,8.6978,8.6978,8.6978,8.6978,8.6978,0.0,0.0,0.0,0.0,0.0,0.0,0.0,3.5791,3.6559,3.6933,3.7376,3.775,3.7929,3.7131,3.6639,3.6728,3.5611,0.0,0.0,0.0,0.0,0.0,0.0,0.0,3.6406,3.6858,3.8028,3.9914,4.0641,4.1782,4.3301,4.3597,4.3804,4.3936,4.3383,4.3179,0.0,0.0,0.0,0.0,0.0,0.0,4.9284,0.0,0.0,0.0,0.0,0.0,0.0,0.0,0.0,0.0,0.0,0.0,0.0,0.0,6.1462,6.5424,6.8814,7.0082,7.0227,6.9104,6.7293,6.5033,6.244,6.0593,5.8927,5.7116,5.6971,5.7116,5.6802,5.7224,5.8239,6.0036,6.1267,6.3114,6.6351,0.0,0.0,7.5888,0.0,0.0,0.0,0.0,0.0,0.0,0.0,0.0,8.6644,8.675,8.6768,8.6644,8.6644,8.6697,8.6821,8.6821,8.6873,8.6978,8.6978,8.6978,8.6978,8.6978,8.6978,0.0,0.0,0.0,0.0,8.6978,8.6978,8.6978,8.6978,8.6978,8.6978,8.6978,8.6978,8.6978,0.0,0.0,0.0,0.0,0.0,0.0,0.0,3.591,3.6226,3.691,3.7012,3.7195,3.7677,3.6995,3.6716,3.7211,0.0,0.0,0.0,0.0,0.0,0.0,0.0,0.0,3.7056,3.7168,3.8365,4.0701,4.0996,4.2286,4.4491,4.4077,4.4589,4.5829,4.504,4.4703,0.0,0.0,0.0,0.0,0.0,0.0,0.0,0.0,0.0,0.0,0.0,0.0,0.0,0.0,0.0,0.0,0.0,0.0,0.0,0.0,0.0,0.0,0.0,6.617,6.6025,6.4504,6.3019,6.1485,5.9891,5.8311,0.0,5.6114,5.6609,5.6935,5.615,5.7333,5.8673,5.9529,6.0978,6.315,6.6424,7.0335,0.0,0.0,8.1519,0.0,0.0,0.0,0.0,0.0,0.0,0.0,8.6978,8.6978,8.6978,8.6978,8.6978,8.6978,8.6978,8.6978,8.6978,8.6978,8.6978,8.6978,8.6978,8.6978,8.6978,0.0,0.0,0.0,0.0,8.6978,8.6978,8.6978,8.6978,8.6978,8.6978,8.6978,8.6978,8.6978,0.0,0.0,0.0,0.0,0.0,0.0,0.0,0.0,0.0,0.0,3.6094,3.6107,3.6141,3.588,3.599,0.0,0.0,0.0,0.0,0.0,0.0,0.0,0.0,0.0,3.7089,3.7734,3.9306,4.1749,4.2181,4.3735,4.6378,4.5967,4.6377,4.7382,4.6121,4.5534,0.0,0.0,0.0,0.0,0.0,0.0,0.0,0.0,0.0,0.0,5.1296,5.1839,0.0,0.0,0.0,0.0,0.0,0.0,0.0,0.0,5.4255,5.4979,5.7116,0.0,6.21,6.1738,6.134,6.0652,0.0,5.7913,5.6826,5.545,5.6247,5.6935,5.615,5.7333,5.8854,6.029,6.134,6.3331,6.717,0.0,0.0,7.8904,0.0,0.0,0.0,0.0,0.0,0.0,0.0,8.6978,8.6978,8.6978,8.6978,8.6978,8.6978,8.6978,8.6978,8.6978,8.6978,8.6978,8.6978,8.6978,8.6978,8.6978,8.6978,0.0,0.0,0.0,8.6978,8.6978,8.6978,8.6978,8.6978,8.6978,8.6978,8.6978,8.6978,8.6978,0.0,0.0,0.0,0.0,0.0,0.0,0.0,0.0,0.0,0.0,0.0,0.0,0.0,0.0,0.0,0.0,0.0,0.0,0.0,0.0,0.0,0.0,0.0,3.6605,3.7668,3.8271,3.9799,4.2266,4.268,4.4557,4.7661,4.6817,4.718,4.852,4.7035,4.6355,0.0,0.0,0.0,0.0,4.722,0.0,0.0,0.0,0.0,0.0,5.0608,5.126,0.0,5.2371,5.248,5.248,0.0,0.0,0.0,0.0,5.3132,5.3313,5.4146,5.6162,5.8153,5.8528,5.8334,5.7936,5.7406,5.6391,5.5341,5.4508,5.5595,5.6391,5.5631,5.7406,5.9361,6.0616,6.21,0.0,0.0,0.0,7.828,8.0123,0.0,0.0,0.0,0.0,0.0,0.0,0.0,8.6978,8.6978,8.6978,8.6978,8.6978,8.6978,8.6978,8.6978,8.6978,8.6978,8.6978,8.6978,8.6978,8.6978,8.6978,8.6978,0.0,0.0,0.0,8.6978,8.6978,8.6978,8.6978,8.6978,8.6978,8.6978,8.6978,8.6978,8.6978,0.0,0.0,0.0,0.0,0.0,0.0,0.0,0.0,0.0,0.0,0.0,0.0,0.0,0.0,0.0,0.0,0.0,0.0,0.0,0.0,0.0,0.0,3.6491,3.7153,3.8445,3.8925,4.0316,4.2589,4.3177,4.5215,4.8502,4.735,4.7641,4.9055,4.764,4.7009,0.0,0.0,0.0,0.0,4.722,0.0,0.0,0.0,0.0,0.0,0.0,0.0,0.0,5.1912,5.2118,5.2118,5.2118,0.0,0.0,0.0,0.0,0.0,5.3313,5.411,5.4907,5.5788,5.5631,5.5341,5.574,5.4834,5.3856,5.3748,5.4943,5.5848,5.5341,5.7827,6.0217,6.1064,0.0,0.0,7.3182,7.7301,8.0128,8.1377,0.0,0.0,0.0,0.0,0.0,0.0,0.0,8.6978,8.6978,8.6978,8.6978,8.6978,8.6978,8.6978,8.6978,8.6978,8.6978,8.6978,8.6978,8.6978,8.6978,8.6978,8.6978,8.6978,0.0,0.0,8.6978,8.6978,8.6978,8.6978,8.6978,8.6978,8.6978,8.6978,8.6978,8.6978,0.0,0.0,0.0,0.0,0.0,0.0,0.0,0.0,0.0,0.0,0.0,0.0,0.0,0.0,0.0,0.0,0.0,0.0,0.0,0.0,0.0,3.8375,3.8162,3.8262,3.8736,4.0206,4.1639,4.2898,4.4741,4.6713,4.8761,4.8751,4.8627,4.8341,4.7402,4.7009,4.7009,4.7009,0.0,0.0,0.0,0.0,0.0,0.0,0.0,0.0,0.0,0.0,0.0,5.0427,5.0463,5.0463,5.0463,0.0,0.0,0.0,0.0,0.0,5.248,5.3277,5.4218,5.5643,5.644,5.6536,5.5341,5.4907,5.4508,5.3856,5.4943,5.6187,5.6754,5.9457,6.1883,0.0,0.0,7.034,0.0,0.0,0.0,0.0,0.0,0.0,0.0,0.0,0.0,0.0,0.0,8.6978,8.6978,8.6978,8.6978,8.6978,8.6978,8.6978,8.6978,8.6978,8.6978,8.6978,8.6978,8.6978,8.6978,8.6978,8.6978,8.6978,0.0,8.6978,8.6978,8.6978,8.6978,8.6978,8.6978,8.6978,8.6978,8.6978,8.6978,8.6978,0.0,0.0,0.0,0.0,0.0,0.0,0.0,0.0,0.0,0.0,0.0,0.0,0.0,0.0,0.0,0.0,0.0,0.0,0.0,0.0,3.9605,3.9605,3.9864,4.0066,4.0193,4.119,4.263,4.4453,4.5628,4.7357,4.95,4.9787,4.9305,4.8163,4.7794,4.7402,4.7009,4.7009,0.0,0.0,0.0,0.0,0.0,0.0,0.0,0.0,0.0,0.0,0.0,0.0,5.0101,5.0101,5.0101,0.0,0.0,0.0,0.0,0.0,5.2806,5.3748,5.4617,5.5716,5.5993,5.5884,5.5558,5.5486,5.5377,5.5015,5.621,5.755,5.8347,0.0,6.3663,6.6685,0.0,7.3088,0.0,0.0,0.0,0.0,0.0,0.0,0.0,0.0,0.0,0.0,0.0,0.0,8.6978,8.6978,8.6978,8.6978,8.6978,8.6978,8.6978,8.6978,8.6978,8.6978,8.6978,8.6978,8.6978,8.6978,8.6978,8.6978,0.0,8.6978,8.6978,8.6978,8.6978,8.6978,8.6978,8.6978,8.6978,8.6978,8.6978,8.6978,0.0,0.0,0.0,0.0,0.0,0.0,0.0,0.0,0.0,0.0,0.0,0.0,0.0,0.0,0.0,0.0,0.0,0.0,0.0,4.0051,4.0563,4.0795,4.1293,4.1515,4.1478,4.2402,4.3803,4.5758,4.6725,4.833,5.047,5.0467,4.9781,4.8437,4.827,4.777,4.7009,4.7009,4.7127,0.0,0.0,0.0,0.0,0.0,0.0,0.0,0.0,0.0,0.0,0.0,0.0,0.0,0.0,0.0,0.0,5.0789,5.1151,5.1622,5.3023,5.4146,5.5051,5.5595,5.574,5.5884,5.6428,5.6862,5.7188,5.7369,5.8528,5.9832,6.081,6.3156,0.0,7.0711,7.3354,0.0,0.0,0.0,0.0,0.0,0.0,0.0,0.0,0.0,0.0,0.0,0.0,0.0,8.6978,8.6978,8.6978,8.6978,8.6978,8.6978,8.6978,8.6978,8.6978,8.6978,8.6978,8.6978,8.6978,8.6978,8.6978,8.6978,8.6978,8.6978,8.6978,8.6978,8.6978,8.6978,8.6978,8.6978,8.6978,8.6978,8.6978,8.6978,0.0,0.0,0.0,0.0,0.0,0.0,0.0,0.0,0.0,0.0,0.0,0.0,0.0,0.0,0.0,0.0,0.0,0.0,0.0,4.0562,4.1264,4.2217,4.2071,4.1911,4.1788,4.4189,4.5584,4.5898,4.8534,5.0434,5.1588,5.0839,5.0054,4.9198,4.8508,4.777,4.7009,4.7009,4.7506,4.83,0.0,0.0,0.0,0.0,0.0,0.0,0.0,0.0,0.0,0.0,0.0,0.0,0.0,0.0,4.9137,4.9956,5.0716,5.1477,5.2335,5.3711,5.4907,5.4979,5.6573,5.8166,5.8202,5.9384,6.0652,6.1412,6.2259,6.3323,6.4867,6.7861,7.0929,7.3525,7.545,0.0,0.0,0.0,0.0,0.0,0.0,0.0,0.0,0.0,0.0,0.0,0.0,0.0,8.6978,8.6978,8.6978,8.6978,8.6978,8.6978,8.6978,8.6978,8.6978,8.6978,8.6978,8.6978,8.6978,8.6978,8.6978,8.6978,8.6978,8.6978,8.6978,8.6978,8.6978,8.6978,8.6978,8.6978,8.6978,8.6978,8.6978,8.6978,0.0,0.0,0.0,0.0,0.0,0.0,0.0,0.0,0.0,0.0,0.0,0.0,0.0,0.0,0.0,0.0,0.0,0.0,0.0,4.0604,4.1603,4.2486,4.2797,4.314,4.3588,4.5054,4.6633,4.8251,5.0076,5.1211,5.1672,5.1387,5.0566,4.9305,4.9531,4.8651,4.7045,4.7509,4.8018,4.8455,4.9036,0.0,0.0,0.0,0.0,0.0,0.0,0.0,0.0,0.0,4.7689,4.7689,4.7689,4.8268,4.9065,4.9847,5.068,5.1477,5.2263,5.3313,5.4291,5.4786,5.7043,5.9144,5.9144,6.0774,6.2512,6.3345,6.4939,6.6852,0.0,0.0,7.2489,7.5515,7.6966,7.8158,0.0,0.0,0.0,0.0,0.0,0.0,0.0,0.0,0.0,0.0,0.0,0.0,8.6978,8.6978,8.6978,8.6978,8.6978,8.6978,8.6978,8.6978,8.6978,8.6978,8.6978,8.6978,8.6978,8.6978,8.6978,8.6978,8.6978,8.6978,8.6978,8.6978,8.6978,8.6978,8.6978,8.6978,8.6978,8.6978,8.6978,8.6978,0.0,0.0,0.0,0.0,0.0,0.0,0.0,0.0,0.0,0.0,0.0,0.0,0.0,0.0,0.0,0.0,0.0,0.0,3.9841,4.0945,4.1955,4.2773,4.3384,4.4187,4.5262,4.6043,4.7388,4.9354,5.0767,5.1569,5.1721,5.1721,5.0994,4.9698,5.0233,4.946,4.7747,4.8079,4.8612,4.923,4.9608,4.9686,0.0,0.0,0.0,0.0,0.0,0.0,0.0,0.0,4.7689,4.7725,4.8015,4.863,4.9438,5.0245,5.1042,5.1803,5.2335,5.3277,5.4255,5.5051,5.7827,6.0471,6.0991,6.2983,6.5084,6.6388,6.8425,7.0656,7.2969,0.0,0.0,0.0,0.0,0.0,0.0,0.0,0.0,0.0,0.0,0.0,0.0,0.0,0.0,0.0,0.0,0.0,0.0,8.6978,8.6978,8.6978,8.6978,8.6978,8.6978,8.6978,8.6978,8.6978,8.6738,8.6775,8.6978,8.6978,8.6885,8.6628,8.6628,8.6481,8.6244,8.6244,8.6407,8.6664,8.6904,8.6978,8.6978,8.6978,8.6978,8.6978,0.0,0.0,0.0,0.0,0.0,0.0,0.0,0.0,0.0,0.0,0.0,0.0,0.0,0.0,0.0,0.0,0.0,0.0,4.0979,4.1636,4.2384,4.3262,4.3821,4.4882,4.6566,4.7271,4.7935,4.8607,5.0545,5.1569,5.1721,5.1672,5.1244,5.0495,5.053,5.0054,4.9269,4.8589,4.9302,5.0819,5.0166,5.0471,5.1224,0.0,0.0,0.0,0.0,0.0,0.0,0.0,4.7689,4.7833,4.8666,4.9438,5.0245,5.1079,5.1876,5.248,5.248,5.3675,5.5088,5.5812,5.9035,6.2426,6.407,6.6279,6.8706,7.106,7.2978,7.4752,7.6478,7.7619,0.0,0.0,0.0,0.0,0.0,0.0,0.0,0.0,0.0,0.0,0.0,0.0,0.0,0.0,0.0,0.0,0.0,8.6978,8.6978,8.6978,8.6978,8.6978,8.6978,8.6978,8.6978,8.6978,8.6151,8.6224,8.6978,8.6978,8.6554,8.5783,8.5783,8.5343,8.4609,8.4609,8.5086,8.5874,8.6701,8.6978,8.6978,8.6978,8.6978,8.6978,0.0,0.0,0.0,0.0,0.0,0.0,0.0,0.0,0.0,0.0,0.0,0.0,0.0,0.0,0.0,0.0,0.0,0.0,4.1069,4.1705,4.2434,4.3262,4.391,4.4727,4.5717,4.7157,4.8528,4.9778,5.0476,5.11,5.1685,5.1137,5.0744,5.0518,5.1101,5.0651,4.9412,4.9221,4.9875,5.0959,5.0211,5.0471,5.126,0.0,0.0,0.0,0.0,0.0,0.0,0.0,0.0,0.0,4.8666,4.9438,5.0245,5.1079,5.1876,5.248,5.248,5.3675,5.5233,5.65,6.0303,6.4106,6.5736,6.7945,7.0563,7.3611,7.4863,7.5922,7.7562,7.8217,0.0,0.0,0.0,0.0,0.0,0.0,0.0,0.0,0.0,0.0,0.0,0.0,0.0,0.0,0.0,0.0,0.0,8.6978,8.6978,8.6978,8.6978,8.6978,8.6978,8.6444,8.6151,8.6151,8.5343,8.538,8.6151,8.5563,8.5196,8.4976,8.4976,8.4829,8.4609,8.4609,8.5086,8.582,8.604,8.6518,8.6978,8.6978,8.6978,8.6978,0.0,0.0,0.0,0.0,0.0,0.0,0.0,0.0,0.0,0.0,4.2297,4.2297,0.0,0.0,0.0,0.0,0.0,0.0,0.0,4.194,4.254,4.3348,4.4054,4.492,4.5997,4.7382,4.8532,4.947,4.9852,5.0459,5.1208,5.0744,5.0673,5.0994,5.1544,5.1117,4.9972,4.9744,5.0207,5.1041,5.0268,5.0697,5.1731,0.0,0.0,0.0,0.0,0.0,0.0,0.0,0.0,0.0,4.922,4.9908,5.0789,5.1912,5.2371,5.2625,5.3277,5.4617,5.6283,5.8166,6.2512,6.7069,7.0029,7.1314,7.2808,7.5919,7.671,7.738,7.9039,7.9737,0.0,0.0,0.0,0.0,0.0,0.0,0.0,0.0,0.0,0.0,0.0,0.0,0.0,0.0,0.0,0.0,0.0,8.6518,8.6371,8.606,8.604,8.604,8.604,8.5563,8.5306,8.5306,8.4499,8.4389,8.4829,8.4682,8.4425,8.4132,8.3801,8.3654,8.3654,8.3985,8.4425,8.4903,8.5527,8.6077,8.6554,8.6867,8.6978,8.6978,0.0,0.0,0.0,0.0,0.0,0.0,0.0,0.0,0.0,0.0,4.2262,4.2297,0.0,0.0,0.0,0.0,0.0,0.0,0.0,4.2297,4.2644,4.3454,4.4275,4.5416,4.6973,4.7723,4.8091,4.8091,4.8853,4.9662,5.0495,5.0495,5.0923,5.1733,5.1917,5.1549,5.0689,5.0122,5.0344,5.0969,5.0346,5.1006,5.2299,5.1586,0.0,0.0,0.0,0.0,0.0,0.0,0.0,0.0,5.0173,5.0716,5.1622,5.3241,5.3168,5.2951,5.4581,5.6174,5.7985,6.0412,6.5243,7.0718,7.5633,7.5572,7.5195,7.7776,0.0,7.9059,8.0686,8.1709,0.0,0.0,0.0,0.0,0.0,0.0,0.0,0.0,0.0,0.0,0.0,0.0,0.0,0.0,0.0,0.0,0.0,8.569,8.5343,8.4609,8.4609,8.4609,8.4609,8.4535,8.4499,8.4499,8.3675,8.3271,8.3308,8.4058,8.3985,8.3234,8.2517,8.2186,8.226,8.2994,8.3344,8.3564,8.5013,8.5673,8.5894,8.6628,8.6958,8.6978,0.0,0.0,0.0,0.0,0.0,0.0,0.0,0.0,0.0,0.0,0.0,0.0,0.0,0.0,0.0,0.0,0.0,0.0,0.0,4.2297,4.2644,4.3454,4.481,4.5998,4.6973,4.7187,4.7259,4.7259,4.8044,4.9151,5.0495,5.0495,5.1008,5.1893,5.2539,5.2148,5.0973,5.0238,5.0076,5.0321,5.0162,5.068,5.155,5.1368,5.0898,0.0,0.0,0.0,0.0,0.0,0.0,0.0,5.0825,5.1151,5.1622,5.3241,5.3566,5.3784,5.5341,5.7369,5.9651,6.2078,6.7012,7.2408,7.6918,7.7164,7.6831,7.8064,7.9437,8.056,8.0922,8.2186,0.0,0.0,0.0,0.0,0.0,0.0,0.0,0.0,0.0,0.0,0.0,0.0,0.0,0.0,0.0,0.0,8.4866,8.4866,8.4792,8.4609,8.4609,8.4609,8.4609,8.3968,8.3638,0.0,8.2847,8.2443,8.2443,8.2627,8.2627,8.2443,8.226,8.2186,8.2223,8.237,8.2847,8.3418,8.3785,8.4682,8.582,8.5967,8.6444,8.6978,0.0,0.0,0.0,0.0,0.0,0.0,0.0,0.0,0.0,0.0,0.0,0.0,0.0,0.0,0.0,0.0,0.0,0.0,0.0,0.0,4.2833,4.3989,4.5534,4.6569,4.7009,4.7009,4.7009,4.7009,4.7402,4.8389,4.9912,4.9984,5.0688,5.1895,5.2065,5.1538,5.0477,4.9739,4.9444,4.9546,4.9546,5.0017,5.0716,5.0716,5.0463,5.0101,5.0101,0.0,0.0,0.0,0.0,0.0,0.0,0.0,5.2118,5.3349,5.3711,5.4218,5.65,5.8927,6.1983,6.7179,7.0838,7.4201,7.8012,7.862,7.872,7.9929,8.0617,8.1232,8.1986,8.2517,0.0,0.0,0.0,0.0,0.0,0.0,0.0,0.0,0.0,0.0,0.0,0.0,0.0,0.0,0.0,8.4425,8.4042,8.4022,8.3838,8.3471,8.3434,8.3434,8.3434,8.303,8.2847,8.281,8.2406,8.2186,8.2186,8.2186,8.2186,8.2186,8.2186,8.2186,8.2186,8.2186,8.2443,8.2884,8.3234,8.3895,8.4682,8.5086,8.549,8.593,0.0,0.0,0.0,0.0,0.0,0.0,0.0,0.0,0.0,0.0,0.0,0.0,0.0,0.0,0.0,0.0,0.0,0.0,0.0,0.0,0.0,4.456,4.6141,4.7009,4.7009,4.7009,4.7009,4.7009,4.7317,4.8246,4.9734,4.9853,5.0641,5.1968,5.179,5.1066,4.9909,4.9347,4.8956,4.8703,4.8837,4.9293,4.9883,4.9883,4.9883,4.9883,4.9883,5.0318,5.0825,5.0427,0.0,0.0,0.0,0.0,5.2661,5.3458,5.3711,5.4436,5.7695,6.0896,6.5024,7.2263,7.4603,7.59,7.886,7.9778,8.044,8.1893,8.1782,8.1803,8.3161,0.0,0.0,0.0,0.0,0.0,0.0,0.0,0.0,0.0,0.0,0.0,0.0,0.0,0.0,0.0,0.0,8.3911,8.3234,8.3197,8.2884,8.2223,8.2186,8.2186,8.2186,8.2186,8.2186,8.2186,8.2186,8.2186,8.2186,8.2186,8.2186,8.2186,8.2186,8.2186,8.2186,8.2186,8.2186,8.226,8.2904,8.3271,8.3491,8.4168,8.4499,8.4719,0.0,0.0,0.0,0.0,0.0,0.0,0.0,0.0,0.0,0.0,4.1359,4.1976,0.0,0.0,0.0,0.0,0.0,0.0,4.1109,0.0,0.0,4.4585,4.6141,4.7009,4.7009,4.7009,4.7009,4.7009,4.8518,5.0044,5.1549,5.1561,5.1826,5.2306,5.3556,5.2629,5.0079,4.9981,4.9112,4.7906,4.863,4.8956,4.9065,4.9065,4.9065,4.9065,4.9065,4.9137,4.9427,5.0716,5.1296,0.0,0.0,0.0,5.2661,5.3458,5.3711,5.4544,5.8371,6.3842,6.9259,7.2744,7.5211,7.7286,7.9312,8.0298,8.1085,0.0,8.2663,8.3161,8.3344,0.0,0.0,0.0,0.0,0.0,0.0,0.0,0.0,0.0,0.0,0.0,0.0,0.0,0.0,0.0,8.292,8.248,8.237,8.237,8.2296,8.2186,8.2186,8.2186,8.2186,8.2186,8.2186,8.2186,8.2186,8.2186,8.2186,8.2186,8.2186,8.2186,8.2186,8.2186,8.2186,8.2186,8.2186,8.2186,8.2333,8.281,8.3418,8.3528,8.4005,8.4719,0.0,0.0,0.0,0.0,0.0,0.0,0.0,0.0,0.0,0.0,0.0,4.1502,0.0,0.0,0.0,3.9351,3.9993,4.0824,4.1716,4.3179,4.4168,4.4596,4.5713,4.6534,4.7009,4.7009,4.7043,4.7111,4.9209,5.1108,5.2834,5.4178,5.4636,5.429,5.3701,5.2675,5.1368,5.0017,4.9039,4.8377,4.8268,4.8232,4.8232,4.8232,4.8232,4.8232,4.8232,4.8521,4.9065,5.0245,5.0934,5.1441,5.2238,0.0,0.0,0.0,5.3349,5.4882,6.0264,6.5898,7.0879,7.3498,7.5706,7.7688,7.9396,8.0424,8.1379,8.2627,8.3161,8.3381,0.0,0.0,0.0,0.0,0.0,0.0,0.0,0.0,0.0,0.0,0.0,0.0,0.0,0.0,0.0,0.0,8.2406,8.2186,8.2186,8.2186,8.2186,8.2186,8.2186,8.2186,8.2186,8.2186,8.2186,8.2186,8.2186,8.2186,8.2186,8.2186,8.2186,8.2186,8.2186,8.2186,8.2186,8.2186,8.2186,8.2186,8.2186,8.2406,8.2737,8.2737,8.2957,8.3361,0.0,0.0,0.0,0.0,0.0,0.0,0.0,0.0,0.0,0.0,0.0,0.0,0.0,0.0,0.0,0.0,3.9458,4.0574,4.219,4.3072,4.3847,4.4549,4.5381,4.6177,4.6973,4.6795,4.6744,4.6903,4.9088,5.1203,5.3255,5.5688,5.6821,5.676,5.4653,5.3241,5.2371,5.0597,4.9463,4.8847,4.8268,4.787,4.7689,4.7689,4.7942,4.8315,4.8315,0.0,0.0,0.0,0.0,5.1187,5.219,5.248,0.0,0.0,0.0,5.5753,6.088,6.5906,7.0281,7.2658,7.4829,7.6812,7.8494,7.9653,8.0791,0.0,8.248,8.248,0.0,0.0,0.0,0.0,0.0,0.0,0.0,0.0,0.0,0.0,0.0,0.0,0.0,0.0,0.0,0.0,8.2186,8.2186,8.2186,8.2186,8.2186,8.2186,8.2186,8.2186,8.2186,8.2186,8.2186,8.2186,8.2186,8.2186,8.2186,8.2186,8.2186,8.2186,8.2186,8.2186,8.2186,8.2186,8.2186,8.2186,8.2186,8.2186,8.2186,8.2186,8.2186,8.2333,0.0,0.0,0.0,0.0,0.0,0.0,0.0,0.0,0.0,0.0,0.0,0.0,4.1109,4.0386,3.9591,3.8852,3.9458,4.0574,4.219,4.3072,4.3847,4.4549,4.5381,0.0,4.6973,4.6248,4.5911,4.6068,4.7826,4.9964,5.2425,5.4894,5.7261,5.9348,5.7695,5.5305,5.248,5.2371,5.0995,4.892,4.8847,4.8377,4.7689,4.7689,4.8641,4.9992,0.0,0.0,0.0,0.0,0.0,0.0,0.0,0.0,5.248,0.0,0.0,0.0,5.8774,6.272,6.6898,6.8733,7.1564,7.4294,7.5909,7.7561,7.8956,7.9816,8.0,8.0,0.0,0.0,0.0,0.0,0.0,0.0,0.0,0.0,0.0,0.0,0.0,0.0,0.0,0.0,0.0,0.0,8.2186,8.2186,8.2186,8.2186,8.2186,8.2186,8.2186,8.2186,8.2186,8.2186,8.2186,8.2186,8.2186,8.2186,8.2186,8.2186,8.2186,8.2186,8.2186,8.2186,8.2186,8.2186,8.2186,8.2186,8.2186,8.2186,8.2186,8.2186,8.2186,8.2333,0.0,0.0,0.0,0.0,0.0,0.0,0.0,0.0,0.0,0.0,0.0,0.0,0.0,4.1145,4.0574,4.0289,4.0538,4.1145,4.2226,4.2583,4.3072,4.3847,4.4631,4.5416,4.6212,4.604,4.5996,4.6151,4.8343,5.0475,5.2494,5.5401,5.7514,5.8782,5.7695,5.6573,5.5377,5.3349,5.1683,5.0416,4.9872,4.9184,4.863,5.0198,0.0,0.0,0.0,0.0,0.0,0.0,0.0,0.0,0.0,0.0,0.0,5.248,5.4459,5.6867,5.7875,6.1308,6.5081,6.6913,6.9779,7.2459,7.356,7.5469,7.7084,7.7378,7.7855,7.8038,0.0,0.0,0.0,0.0,0.0,0.0,0.0,0.0,0.0,0.0,0.0,0.0,0.0,0.0,0.0,0.0,0.0,8.0661,8.0661,8.1158,8.1415,8.1415,8.1929,8.2186,8.2186,8.2186,8.2186,8.2186,8.2186,8.2186,8.2186,8.2186,8.2186,8.2186,8.2186,8.2186,8.2186,8.2186,8.2186,8.2186,8.2186,8.2186,8.2186,8.2186,8.2186,8.2223,0.0,0.0,0.0,0.0,0.0,0.0,0.0,0.0,0.0,4.0208,0.0,0.0,0.0,0.0,4.1109,4.1109,4.1109,4.1431,4.2262,4.2297,4.2644,4.3454,4.4236,4.5054,4.584,4.5996,4.6008,4.5826,4.7749,4.9436,5.0959,5.4146,5.621,5.7224,5.6935,5.6645,5.6283,5.4182,5.2516,5.126,5.0716,5.0028,4.951,0.0,0.0,0.0,0.0,0.0,0.0,0.0,0.0,0.0,0.0,0.0,0.0,0.0,0.0,5.5265,5.6244,5.914,6.2203,6.3697,6.6512,6.9155,7.0257,7.2349,7.4258,7.4771,7.5307,7.5674,7.5689,0.0,0.0,0.0,0.0,0.0,0.0,0.0,0.0,0.0,0.0,0.0,0.0,0.0,0.0,0.0,0.0,0.0,7.9816,8.0314,8.0718,8.1012,8.1782,8.2186,8.2186,8.2186,8.2186,8.2186,8.2186,8.2186,8.2186,8.2186,8.2186,8.2186,8.2186,8.2186,8.2186,8.2186,8.2186,8.2186,8.2186,8.2186,8.2186,8.2186,8.2186,8.2186,0.0,0.0,0.0,0.0,0.0,0.0,0.0,0.0,4.0208,4.1002,0.0,0.0,0.0,0.0,0.0,4.1181,4.1181,4.1502,4.2262,4.2297,4.2654,4.3454,4.4321,4.5172,4.596,4.6115,4.5873,4.5147,4.5905,4.6788,4.7761,5.0959,5.3277,5.4834,5.5558,5.5486,5.4786,5.4822,5.3494,5.1368,0.0,5.0898,5.0282,0.0,0.0,0.0,5.708,5.7369,0.0,5.7369,0.0,0.0,0.0,0.0,0.0,0.0,0.0,0.0,0.0,0.0,0.0,5.8939,6.1594,6.4433,6.5999,0.0,7.0403,7.1982,7.2349,7.2863,7.4426,0.0,0.0,0.0,0.0,0.0,0.0,0.0,0.0,0.0,0.0,0.0,0.0,0.0,0.0,0.0,7.9669,7.9669,7.9706,7.9743,8.0131,8.0975,8.1746,8.2186,8.2186,8.2186,8.2186,8.2186,8.2186,8.2186,8.2186,8.2186,8.2186,8.2186,8.2186,8.2186,8.2186,8.2186,8.2186,8.2186,8.2186,8.2186,8.2186,8.2186,8.2186,8.2186,0.0,0.0,0.0,0.0,0.0,4.1588,4.1161,4.0895,4.086,0.0,0.0,0.0,4.3072,4.3454,4.3418,4.2883,4.2848,4.268,4.2333,4.2297,4.2435,4.2747,4.4077,4.4953,4.5253,4.5945,4.6152,4.5967,4.6303,4.6871,4.7725,4.98,5.1296,5.2335,5.3132,5.3023,5.2371,5.353,5.3639,5.3023,5.3023,5.2915,0.0,0.0,0.0,0.0,0.0,6.1281,5.9977,0.0,5.865,5.4738,0.0,0.0,0.0,0.0,0.0,0.0,5.324,0.0,0.0,0.0,0.0,0.0,0.0,0.0,6.6756,6.7197,6.8238,6.9339,7.0367,0.0,0.0,0.0,0.0,0.0,0.0,0.0,0.0,0.0,0.0,0.0,0.0,0.0,0.0,0.0,7.6276,7.6497,7.7084,7.8259,7.958,8.0975,8.1232,8.1599,8.2186,8.2186,8.2186,8.2186,8.2186,8.2186,8.2186,8.2186,8.2186,8.2186,8.2186,8.2186,8.2186,8.2186,8.2186,8.2186,8.2186,8.2186,8.2186,8.2186,8.2186,8.2186,0.0,0.0,0.0,0.0,0.0,4.2981,4.2623,4.2562,4.2562,0.0,0.0,0.0,4.3918,4.4346,4.4417,4.3989,4.3711,4.3349,4.2859,4.2578,4.2593,4.3012,4.4284,4.5162,4.5513,4.6421,4.6726,4.6365,4.6789,4.7073,4.7218,4.8858,4.9836,5.0343,5.114,5.1224,5.0898,5.2154,0.0,0.0,5.3929,0.0,0.0,5.7442,5.9035,0.0,0.0,0.0,6.3019,6.4251,6.1027,0.0,0.0,0.0,0.0,0.0,0.0,0.0,0.0,0.0,0.0,0.0,0.0,0.0,5.9905,6.1741,6.3343,0.0,6.5044,6.6562,6.7687,6.7907,0.0,0.0,0.0,0.0,0.0,0.0,0.0,0.0,0.0,0.0,0.0,7.4903,7.4903,7.4903,7.4903,7.5234,7.6056,7.7341,7.8662,7.9947,8.0645,8.1232,8.1672,8.2039,8.2186,8.2186,8.2186,8.2186,8.2186,8.2186,8.2186,8.2186,8.2186,8.2186,8.2186,8.2186,8.2186,8.2186,8.2186,8.2186,8.2186,8.2186,8.2186,8.2186,0.0,0.0,4.3722,4.4177,4.4391,4.4533,4.4574,4.4596,4.4596,0.0,4.4785,4.4939,4.5117,4.5092,4.4996,4.4914,4.4296,4.3857,4.375,4.3196,4.3185,4.3924,4.4808,4.5627,4.6313,4.7238,4.7363,4.6639,4.7363,4.7327,4.6639,4.8087,4.8775,4.8811,4.951,4.9847,4.9883,5.0789,0.0,5.277,5.4581,5.5957,0.0,0.0,6.0724,6.2969,6.541,6.6207,6.617,6.6547,6.2735,0.0,0.0,0.0,0.0,0.0,5.2087,0.0,0.0,0.0,0.0,0.0,0.0,0.0,5.7703,5.8988,6.0199,0.0,6.234,6.3919,6.5521,6.5815,6.6402,0.0,0.0,0.0,0.0,0.0,0.0,0.0,0.0,0.0,7.428,7.4353,7.4353,7.4353,7.4536,7.4977,7.5799,7.6665,7.7546,7.8442,7.9947,8.0828,8.1012,8.1709,8.2113,8.2186,8.2186,8.2186,8.2186,8.2186,8.2186,8.2186,8.2113,8.2076,8.2076,8.2076,8.2113,8.2186,8.2186,8.2186,8.2186,8.2186,8.2186,8.2186,0.0,4.4214,4.4375,4.5183,4.4903,4.4574,4.4585,4.4596,4.4596,4.4596,4.5826,4.7181,4.8398,4.8059,4.7505,4.6895,4.6126,4.5418,4.4771,4.4612,4.4664,4.4936,4.5678,4.6199,4.6463,4.728,4.7616,4.7471,4.7616,4.7616,4.7471,4.7797,4.7942,4.7942,4.8087,4.8159,4.8279,4.9738,0.0,5.3711,5.6573,0.0,6.2947,6.4541,6.5881,6.7133,6.9502,6.9973,6.9098,0.0,6.3934,6.085,0.0,0.0,0.0,0.0,0.0,0.0,0.0,0.0,0.0,0.0,0.0,0.0,5.6994,5.7288,5.7545,0.0,5.851,5.9685,6.13,6.1594,6.2536,0.0,0.0,0.0,0.0,0.0,0.0,0.0,0.0,0.0,7.1027,7.1027,7.1027,7.1027,7.2239,7.3303,7.4111,7.5542,7.6702,7.7546,7.8552,7.969,8.1012,8.1158,8.1562,8.2186,8.2186,8.2186,8.2186,8.2186,8.2186,8.215,8.1525,8.1232,8.1232,8.1232,8.1636,8.2186,8.2186,8.2186,8.2186,8.2186,8.2186,8.2186,4.4634,4.5081,4.5528,4.6103,4.6312,4.6391,4.6391,4.6769,4.7053,4.7053,4.7882,4.8739,4.9528,4.9299,4.8938,4.8578,4.7878,4.7119,4.629,4.5946,4.5781,4.5843,4.6205,4.6623,4.7073,4.7471,4.7689,4.7689,4.7689,4.7689,4.7689,4.7689,4.7689,4.7689,4.7689,4.7906,4.8377,4.9593,5.1948,5.5051,5.7442,0.0,6.4011,6.6025,6.7591,6.9007,7.1366,7.2299,7.1847,6.8356,6.5875,0.0,0.0,5.7555,5.6277,0.0,5.4899,5.48,0.0,0.0,0.0,5.6088,0.0,0.0,0.0,5.5904,5.5611,5.5611,5.6565,5.7666,5.8462,0.0,6.0015,6.2462,6.4567,0.0,0.0,0.0,0.0,0.0,0.0,0.0,6.8949,6.9265,6.9669,7.0073,7.0844,7.1835,7.3046,7.3854,7.4867,7.6078,7.7289,7.8353,7.9161,8.0388,8.1195,8.1599,8.2003,8.2003,8.1599,8.1599,8.1379,8.0991,8.0571,8.0388,8.0388,8.0388,8.0865,8.1636,8.2039,8.2186,8.2186,8.2186,8.2186,8.215,4.4938,4.5819,4.6554,4.6789,4.7605,4.8233,4.8233,4.897,4.9578,4.9769,5.0161,5.0483,5.0638,5.0938,5.1069,5.0925,5.043,4.9656,4.8536,4.7972,4.7591,4.7446,4.712,4.7337,4.8123,4.787,4.7689,4.7689,4.7689,4.7689,4.7689,4.7689,4.7689,4.7725,4.787,4.8304,4.8992,5.0234,0.0,5.5969,0.0,6.0656,6.3939,6.6381,6.8478,7.0414,7.2845,7.3864,7.3492,7.0193,0.0,6.5267,6.1373,5.9394,0.0,0.0,0.0,0.0,0.0,0.0,0.0,0.0,0.0,5.4803,0.0,0.0,0.0,5.4179,5.5196,0.0,0.0,0.0,0.0,0.0,0.0,0.0,0.0,0.0,0.0,0.0,0.0,0.0,6.7297,6.7687,6.8311,6.9119,6.9302,7.0036,7.1505,7.2018,7.2936,7.439,7.5858,7.6848,7.7289,7.9271,8.0534,8.1012,8.1489,8.1489,8.1012,8.0828,8.0424,7.9779,7.9633,7.9559,7.9559,7.9559,7.9947,8.0645,8.1599,8.2039,8.2186,8.2186,8.2186,8.2076,4.6149,4.6495,4.6789,4.6963,4.7732,4.8396,4.8396,4.9134,4.9921,5.064,5.2102,5.3339,5.4061,5.546,0.0,5.5341,0.0,0.0,5.2059,0.0,5.1513,5.0789,4.9401,4.8992,4.9811,4.8424,4.7689,4.7689,4.7689,4.7689,4.7689,4.7689,4.7689,4.7725,4.8449,4.8811,4.9101,5.2045,5.3965,0.0,5.8402,6.1933,0.0,6.813,7.0566,7.2902,7.5446,7.4712,7.2365,0.0,6.833,6.5176,0.0,6.2438,6.0848,0.0,0.0,0.0,0.0,0.0,0.0,0.0,5.6124,0.0,0.0,0.0,5.3324,5.3324,0.0,0.0,0.0,0.0,0.0,0.0,0.0,0.0,5.9893,0.0,0.0,6.6439,6.6145,6.5655,0.0,6.5007,6.4971,6.5765,6.6512,6.7283,6.8214,7.0257,7.1857,7.2753,7.3634,7.5139,7.7289,7.7582,7.883,8.1012,8.0351,8.0388,8.0975,8.0241,7.989,7.9779,7.9029,7.8736,7.8736,7.8736,7.8772,7.9029,8.0534,8.1562,8.2186,8.2186,8.2186,8.2076,4.6423,4.6672,4.6975,4.7088,4.8251,4.9157,4.9157,5.0327,5.1513,5.2425,5.317,5.4436,0.0,0.0,0.0,0.0,0.0,5.7985,0.0,0.0,5.3313,5.2057,5.0452,0.0,4.9401,4.8739,4.8159,4.7689,4.7689,4.7689,4.7689,4.7689,4.7942,4.8413,4.8739,5.0187,5.248,0.0,5.6019,0.0,0.0,0.0,0.0,6.685,6.9581,7.2887,7.494,7.3969,7.172,0.0,6.9577,0.0,0.0,0.0,0.0,0.0,0.0,0.0,0.0,0.0,0.0,0.0,0.0,0.0,5.5585,0.0,5.3214,0.0,0.0,0.0,0.0,0.0,0.0,0.0,5.6737,0.0,0.0,0.0,0.0,0.0,0.0,0.0,6.2389,0.0,0.0,6.3783,6.464,6.5448,6.6256,6.8164,6.9596,7.0403,7.2092,7.3487,7.45,7.6371,7.7839,7.8867,7.9507,7.9743,7.9617,7.925,7.8809,7.8332,7.7986,7.7839,7.7839,7.7839,7.8148,7.8699,7.9837,8.0498,8.0881,8.1342,8.1195,8.0697,4.6649,4.6859,4.7169,4.7499,4.8771,4.9906,5.0408,5.2112,5.364,5.4532,5.5812,0.0,6.0086,6.1353,0.0,0.0,6.3838,6.2802,0.0,0.0,5.679,0.0,0.0,0.0,0.0,4.9572,4.863,4.8015,4.7797,4.7689,4.7689,4.7942,4.834,4.892,4.9387,5.1366,5.435,0.0,5.7498,6.0919,6.2691,6.4194,6.5486,6.6879,6.947,7.2578,7.4272,7.3362,7.138,7.1967,7.033,0.0,6.7357,0.0,0.0,0.0,0.0,0.0,6.1814,0.0,0.0,0.0,0.0,0.0,0.0,0.0,0.0,0.0,0.0,0.0,0.0,0.0,0.0,0.0,0.0,5.5746,0.0,0.0,0.0,0.0,0.0,0.0,0.0,6.0052,6.0529,6.1104,6.2365,6.3246,6.36,6.5999,6.765,6.8238,7.0367,7.1835,7.2496,7.505,7.6665,7.7326,7.8516,7.8919,7.8589,7.8369,7.7876,7.7289,7.7289,7.7289,7.7289,7.7289,7.7656,7.8369,7.9412,7.9522,7.925,8.0534,8.0498,7.9669,4.7145,4.722,4.7549,4.8315,4.9255,5.0473,5.2167,0.0,0.0,0.0,0.0,0.0,0.0,0.0,0.0,0.0,0.0,6.9502,6.5627,0.0,6.3382,0.0,0.0,5.5088,0.0,0.0,4.8884,4.8847,4.8087,4.7689,4.7725,4.8485,4.8884,4.8956,5.0671,5.1936,5.294,5.5337,5.7838,6.027,6.1967,6.4181,6.678,0.0,7.1596,7.2701,7.4316,0.0,0.0,7.1344,7.0243,0.0,0.0,0.0,0.0,0.0,0.0,0.0,0.0,0.0,0.0,6.1533,0.0,0.0,0.0,0.0,5.4583,0.0,0.0,0.0,0.0,0.0,0.0,0.0,0.0,0.0,0.0,0.0,0.0,0.0,0.0,0.0,0.0,5.7409,5.6957,5.6994,5.9159,6.0187,5.9453,6.3943,6.6549,6.6586,6.8164,7.0146,7.2496,7.3377,7.4992,7.7289,7.7362,7.7803,7.8552,7.7729,7.7326,7.7289,7.7289,7.7289,7.7289,7.7289,7.7326,7.7509,7.914,7.8809,7.7656,8.0131,8.0498,7.9669,4.907,4.9125,4.9053,4.8701,4.9414,0.0,0.0,5.4834,0.0,0.0,0.0,0.0,0.0,6.9663,7.1168,0.0,0.0,7.0734,6.8902,6.604,0.0,0.0,0.0,5.6066,0.0,0.0,0.0,0.0,4.9412,4.9293,4.9293,4.9557,5.0025,5.0635,5.1223,5.3133,0.0,0.0,0.0,0.0,0.0,6.761,6.9009,0.0,0.0,7.1101,7.2753,7.2092,0.0,7.1762,7.0683,6.9068,7.0132,6.9765,6.8862,6.8568,6.7907,0.0,0.0,0.0,6.3258,6.3258,0.0,0.0,0.0,0.0,0.0,0.0,0.0,0.0,0.0,0.0,0.0,0.0,0.0,0.0,0.0,0.0,0.0,0.0,0.0,0.0,0.0,0.0,0.0,5.6014,5.7262,5.8352,5.9159,6.2279,6.4554,6.5668,6.7797,6.9302,7.0096,7.1982,7.3597,7.4918,7.6019,7.6922,7.7729,7.7436,7.7289,7.7289,7.7289,7.7289,7.7289,7.7289,7.7289,7.7399,7.8552,7.8662,7.8332,7.969,7.9323,7.8096,5.0948,5.0499,0.0,0.0,0.0,0.0,0.0,0.0,0.0,0.0,6.4142,0.0,7.0532,0.0,7.343,0.0,7.3812,7.2762,7.1712,6.8669,0.0,6.546,6.1833,0.0,0.0,0.0,0.0,0.0,5.0825,5.0413,5.0166,5.0446,5.0947,5.1566,5.1901,5.3815,5.6876,5.7822,6.1178,0.0,0.0,7.0146,0.0,0.0,7.0587,7.0293,0.0,7.1835,7.1101,7.2165,7.1468,7.0367,7.138,7.1013,7.0183,7.0183,6.9816,6.9426,6.9426,6.7664,0.0,6.5815,6.2732,0.0,6.0089,0.0,0.0,0.0,0.0,0.0,0.0,0.0,0.0,0.0,0.0,0.0,0.0,5.14,0.0,0.0,0.0,0.0,0.0,0.0,5.4447,5.473,5.55,5.6407,0.0,6.0334,6.2316,6.3123,6.5472,6.716,6.8054,7.0146,7.1908,7.3303,7.5175,7.6387,7.6885,7.7179,7.7289,7.7289,7.7289,7.7289,7.7289,7.7289,7.7289,7.7399,7.8259,7.8589,7.8662,7.9192,7.8479,7.7289,5.2468,0.0,0.0,0.0,5.2733,0.0,0.0,0.0,6.1738,0.0,6.8597,7.2094,7.3724,7.6022,7.7108,7.6364,7.622,0.0,7.3993,7.2364,0.0,0.0,6.6415,6.3994,6.238,0.0,0.0,0.0,0.0,5.1182,5.0493,5.1209,5.1602,5.1733,5.2608,5.3906,5.5491,5.6435,6.0114,6.5692,7.033,7.1284,7.0073,7.1688,7.1321,7.0183,7.1908,7.2459,7.2459,7.2496,7.2496,7.2496,7.2496,7.2496,7.2496,7.2496,7.2496,7.2496,7.2496,7.077,6.8972,6.8972,0.0,0.0,0.0,0.0,6.1961,0.0,0.0,0.0,0.0,0.0,0.0,0.0,0.0,0.0,0.0,0.0,0.0,0.0,0.0,0.0,0.0,5.2454,5.2307,5.3067,5.3849,5.4326,0.0,5.818,5.9967,5.9269,6.1618,6.4004,6.6402,6.8091,7.011,7.2459,7.4882,7.6056,7.613,7.6922,7.7289,7.7289,7.7289,7.7289,7.7289,7.7289,7.7289,7.7399,7.8222,7.8552,7.8552,7.8589,7.8075,7.7289,5.2625,5.2661,5.3023,0.0,5.4327,5.5257,0.0,0.0,0.0,0.0,6.9285,7.2094,7.3724,7.5515,7.6546,7.6328,7.5225,0.0,0.0,0.0,0.0,7.0455,6.797,6.5833,6.423,6.2032,0.0,5.6648,0.0,5.4389,5.3027,5.2652,5.2525,5.2645,5.2896,5.395,5.5651,5.7068,6.0639,6.5472,6.7283,6.7797,0.0,0.0,6.8692,6.8692,7.1505,7.2129,7.1711,7.2312,7.2496,7.2496,7.2496,7.2496,7.2496,7.2496,7.2496,7.2496,7.2496,7.1174,6.9779,6.9779,6.765,6.5595,0.0,0.0,0.0,0.0,0.0,0.0,0.0,0.0,0.0,0.0,0.0,0.0,0.0,0.0,0.0,5.1683,0.0,0.0,0.0,5.2134,5.2097,5.227,5.2501,5.3419,5.5218,0.0,5.9061,6.004,6.2475,6.4347,6.5582,6.7784,6.9802,7.1637,7.4059,7.5542,7.613,7.6922,7.7289,7.7289,7.7289,7.7289,7.7289,7.7289,7.7289,7.7326,7.7546,7.7619,7.7693,7.8369,7.8075,7.7289,5.4182,0.0,0.0,5.5703,0.0,0.0,5.8709,0.0,0.0,6.7003,7.0082,0.0,7.3873,7.5485,7.6462,7.6508,7.5055,0.0,7.429,0.0,0.0,7.0946,6.966,6.803,6.6094,6.4463,0.0,5.8714,0.0,5.5612,5.4088,5.3248,5.2974,5.3092,5.3092,5.4015,5.5805,5.8804,6.1692,6.4407,6.6659,6.7357,0.0,6.8325,6.8545,6.8531,7.105,7.1674,7.138,7.1821,7.2202,7.2496,7.2496,7.2496,7.2496,7.2496,7.2496,7.2496,7.2496,7.1835,7.1138,7.1138,6.9853,6.8591,6.8591,6.7614,6.6893,0.0,0.0,0.0,0.0,0.0,0.0,0.0,0.0,0.0,0.0,0.0,0.0,0.0,5.3004,0.0,0.0,5.1987,5.2171,5.2491,5.2207,5.2758,0.0,0.0,5.7384,5.8253,6.0676,6.2511,6.3686,6.5778,6.7614,6.9252,7.2371,7.4096,7.4588,7.6445,7.7289,7.7289,7.7289,7.7289,7.7289,7.7289,7.7289,7.7362,7.7729,7.7656,7.7399,7.8295,7.8075,7.7289,5.6428,0.0,0.0,0.0,0.0,0.0,0.0,6.3482,0.0,6.8135,0.0,7.3144,7.4122,7.5665,7.6623,7.6639,0.0,7.4358,7.4301,7.2857,7.18,7.1289,7.1267,7.0206,6.7877,6.6376,0.0,0.0,0.0,5.5937,5.4345,5.3441,5.3092,5.3214,5.3214,5.4142,0.0,6.0554,6.2609,6.3123,6.7013,6.8164,6.77,6.9192,6.9412,6.9068,7.0463,7.105,7.1197,7.138,7.1931,7.2496,7.2496,7.2496,7.2496,7.2496,7.2496,7.2496,7.2496,7.2496,7.2496,7.2496,7.1967,7.1454,7.1454,7.0844,7.0036,6.9229,6.7687,6.5778,0.0,0.0,0.0,0.0,0.0,0.0,0.0,0.0,0.0,0.0,0.0,0.0,0.0,0.0,5.227,5.2994,5.238,0.0,0.0,0.0,5.5585,5.5585,5.8033,6.0077,6.1594,0.0,6.5007,6.6549,7.0477,7.2422,7.2606,7.5711,7.7215,7.7289,7.7289,7.7289,7.7289,7.7289,7.7289,7.7399,7.8259,7.806,7.7399,7.8295,7.8075,7.7289,5.8021,0.0,0.0,0.0,0.0,6.3939,6.4629,6.5886,6.76,6.9988,7.1933,7.3442,7.4259,7.5805,7.6498,7.5858,7.4962,0.0,0.0,0.0,0.0,7.2269,7.2269,7.1425,6.9678,6.8711,6.6276,0.0,0.0,0.0,5.5332,5.3853,5.3193,5.3214,5.3214,5.4462,5.6785,5.96,0.0,6.305,6.5815,6.6843,6.6806,6.7774,6.8421,6.8935,6.9215,6.9743,7.0513,7.1835,7.2386,7.2496,7.2496,7.2496,7.2496,7.2496,7.2496,7.2496,7.2496,7.2496,7.2496,7.2496,7.2386,7.2312,7.2312,7.1674,7.0866,7.0073,6.8091,6.5962,6.42,0.0,0.0,0.0,0.0,0.0,0.0,0.0,0.0,0.0,0.0,5.5805,0.0,0.0,0.0,0.0,0.0,0.0,0.0,0.0,5.5585,0.0,5.8584,0.0,0.0,0.0,6.5558,6.6549,6.9912,7.1857,7.2606,7.5139,7.6665,7.7289,7.7289,7.7289,7.7289,7.7289,7.7289,7.7399,7.8259,7.806,7.7399,7.8295,7.8075,7.7289,0.0,0.0,0.0,0.0,0.0,0.0,0.0,6.9245,0.0,7.1258,7.3191,7.4608,7.5103,7.6251,7.6669,7.5906,7.5117,7.4342,7.3663,7.2856,7.2423,7.2496,7.2496,0.0,7.0146,6.8898,6.6476,6.2793,0.0,0.0,5.5585,5.4803,5.3995,5.3214,5.3654,5.4939,0.0,0.0,0.0,6.3649,6.5668,6.6733,6.7223,6.8017,6.8568,6.8995,6.9839,7.0389,7.0844,7.16,7.2165,7.2496,7.2496,7.2496,7.2496,7.2496,7.2496,7.2496,7.2496,7.2496,7.2496,7.2496,7.2496,7.2496,7.2496,7.2202,7.1674,7.0881,6.9486,6.776,6.5705,6.2658,0.0,0.0,0.0,0.0,0.0,0.0,0.0,0.0,0.0,0.0,0.0,0.0,0.0,0.0,0.0,0.0,0.0,0.0,5.5181,0.0,0.0,0.0,0.0,0.0,0.0,6.6512,6.9339,7.1321,7.2569,7.4992,7.679,7.7949,7.7509,7.7546,7.7928,7.7032,7.6665,7.6702,7.7157,7.7047,7.6775,7.7619,7.7656,7.7289,0.0,6.3786,0.0,0.0,6.6879,0.0,7.0996,7.2197,7.279,7.2634,7.443,7.5698,7.569,7.6423,7.6542,7.5674,7.5028,7.4294,7.3487,7.2863,7.2496,7.2496,7.2349,7.1578,7.011,6.8361,6.5925,0.0,0.0,0.0,0.0,5.5768,5.528,5.4242,0.0,0.0,0.0,0.0,6.2254,6.4494,6.6109,6.726,6.8017,6.8678,6.9105,6.9582,7.0866,7.1417,7.1564,7.1564,7.1967,7.2496,7.2496,7.2496,7.2496,7.2496,7.2606,7.2753,7.2753,7.2899,7.2973,7.2789,7.2753,7.2716,7.2532,7.2496,7.2275,7.1454,7.0499,6.9192,6.7136,6.4494,0.0,0.0,0.0,0.0,0.0,0.0,0.0,0.0,0.0,0.0,0.0,0.0,0.0,0.0,0.0,0.0,5.3214,0.0,0.0,0.0,0.0,5.9783,6.1569,0.0,6.4714,6.6512,6.8752,7.077,7.2569,7.4808,7.6754,7.8295,7.7803,7.7965,7.8479,7.679,7.6093,7.6093,7.6093,7.6093,7.6203,7.6995,7.7289,7.7289,0.0,0.0,0.0,0.0,0.0,0.0,7.1948,7.3589,7.4653,7.4653,7.5461,7.5791,7.5072,7.5696,7.5564,7.4037,7.3868,7.345,7.2679,7.2532,7.2496,7.2496,7.1784,7.0977,7.011,6.7797,6.5375,0.0,0.0,0.0,0.0,0.0,0.0,0.0,0.0,0.0,0.0,6.1875,6.36,6.5325,6.693,6.8054,6.8788,6.8848,6.9802,7.1087,7.1233,7.1784,7.2386,7.2386,7.2459,7.2496,7.2496,7.2496,7.2496,7.2496,7.301,7.3611,7.3611,7.4111,7.45,7.378,7.3611,7.3377,7.2679,7.2496,7.2275,7.1454,7.0059,6.8715,6.7774,6.6746,6.5778,0.0,0.0,0.0,0.0,0.0,0.0,0.0,0.0,0.0,0.0,5.7116,0.0,0.0,5.4106,0.0,0.0,0.0,0.0,5.5585,0.0,5.9245,6.1569,6.2475,6.4127,6.6512,6.8201,7.0257,7.2569,7.4243,7.5894,7.7472,7.8185,7.8516,7.8479,7.679,7.6093,7.6093,7.6093,7.6093,7.6203,7.6995,7.7289,7.7289,0.0,0.0,0.0,0.0,0.0,0.0,0.0,7.5167,7.5784,7.6261,7.6628,7.6702,7.6371,7.6188,7.5652,7.4515,7.3964,7.334,7.2569,7.2496,7.2496,7.2496,7.2188,7.1431,7.011,6.8678,6.6512,0.0,0.0,0.0,0.0,0.0,0.0,0.0,0.0,6.0603,6.2695,6.382,6.5508,6.7577,6.8678,6.9339,6.9669,7.0169,7.0756,7.1344,7.1857,7.2239,7.2496,7.2496,7.2496,7.2496,7.2496,7.2496,7.2606,7.3083,7.345,7.3832,7.4294,7.4647,7.483,7.4515,7.4441,7.4221,7.3413,7.323,7.2973,7.2188,7.0734,6.9376,6.8568,6.7357,6.6256,0.0,0.0,0.0,0.0,0.0,0.0,0.0,0.0,0.0,0.0,0.0,0.0,0.0,0.0,0.0,0.0,0.0,0.0,5.5548,0.0,5.9391,6.2291,6.3637,6.5765,6.8678,6.9302,7.1138,7.3949,7.461,7.6041,7.8112,7.8442,7.8589,7.8442,7.6276,7.5652,7.6056,7.5579,7.5689,7.6203,7.6995,7.7289,7.7289,7.0389,0.0,7.1637,0.0,7.3303,7.4221,7.5836,7.6093,7.6387,7.7179,7.7289,7.7215,7.6959,7.646,7.5689,7.4661,7.4037,7.334,7.2569,7.2496,7.2496,7.2496,7.2275,0.0,7.0477,6.9192,6.732,6.48,6.3148,0.0,0.0,0.0,0.0,0.0,6.2181,6.3429,6.5558,6.6109,6.7504,6.9302,6.9853,7.022,7.0513,7.1087,7.1454,7.1711,7.2312,7.2496,7.2496,7.2496,7.2496,7.2496,7.2496,7.2496,7.2679,7.345,7.3854,7.4221,7.5028,7.5417,7.5564,7.5307,7.5234,7.5028,7.4258,7.3854,7.345,7.2679,7.1394,7.022,6.9412,6.8128,6.6953,6.6145,0.0,0.0,0.0,0.0,0.0,0.0,5.8217,5.7446,5.5133,5.5108,0.0,0.0,0.0,0.0,0.0,0.0,0.0,0.0,0.0,0.0,0.0,6.4127,6.6549,6.9743,7.0,7.1798,7.4903,7.538,7.6812,7.8919,7.8442,7.8516,7.8772,7.6276,7.5579,7.6056,7.5469,7.5616,7.6203,7.6995,7.7289,7.7289,7.1123,7.1307,7.1784,7.3413,7.367,7.4221,7.5836,7.6093,7.6387,7.7179,7.7289,7.6995,7.6203,7.6093,7.5469,7.3854,7.3722,7.334,7.2569,7.2496,7.2496,0.0,0.0,7.1307,7.1307,6.8935,6.7297,6.6476,0.0,0.0,6.1569,0.0,6.4077,6.6439,6.6439,6.732,6.8848,6.8862,6.9339,7.0073,7.011,7.0587,7.1307,7.1307,7.1784,7.2496,7.2496,7.2496,7.2496,7.2496,7.2496,7.2496,7.2496,7.2496,7.2679,7.345,7.4258,7.505,7.5873,7.6665,7.7069,7.6276,7.6093,7.5873,7.505,7.4258,7.345,7.2679,7.1857,7.105,7.022,6.9412,6.8605,6.7811,0.0,0.0,0.0,0.0,0.0,0.0,5.8682,5.7618,5.3618,5.3959,0.0,0.0,0.0,0.0,0.0,0.0,0.0,5.5585,5.7152,0.0,6.1594,6.3295,6.5742,6.8921,6.9706,7.1798,7.494,7.6555,7.8185,7.9706,7.8023,7.8243,7.9596,7.7121,7.6093,7.6093,7.6093,7.6093,7.6203,7.6995,7.7289,7.7289,7.2092,7.2129,7.2628,7.4258,7.4515,7.5065,7.6665,7.6922,7.6995,7.7289,7.7289,7.7215,7.6959,7.6423,7.5873,0.0,7.4845,7.4184,0.0,7.3303,7.3083,7.2532,7.2261,7.1857,7.1307,7.0536,6.9229,6.7333,0.0,0.0,0.0,6.4971,6.6035,6.737,6.8458,6.9559,7.0536,7.0536,7.0977,7.1725,7.1725,7.1908,7.2129,7.2129,7.2275,7.2496,7.2496,7.2496,7.2496,7.2496,7.2496,7.2496,7.2496,7.2899,7.3487,7.4294,7.5102,7.5909,7.6702,7.7105,7.7252,7.6995,7.6922,7.6555,7.5197,7.3854,7.2826,7.2569,7.1857,7.1233,7.0977,6.9816,6.8811,6.8568,6.6733,0.0,0.0,0.0,0.0,0.0,5.8217,5.7446,0.0,5.6051,0.0,0.0,0.0,0.0,0.0,0.0,0.0,0.0,5.7985,0.0,6.2389,6.409,6.6256,6.8898,6.9706,7.1798,7.494,7.6555,7.8222,7.9706,7.8023,7.8259,7.9596,7.7121,7.6423,7.6848,7.6313,7.646,7.6959,7.7215,7.7289,7.7289,7.2496,7.2496,7.2899,7.4221,7.4441,7.4977,7.6592,7.6848,7.6959,7.7252,7.7289,7.7289,7.7289,7.6848,0.0,7.613,7.5652,7.4882,7.378,7.3722,7.334,7.2532,7.2496,7.2275,7.1747,7.1454,0.0,6.9045,6.8765,6.8091,6.71,6.7614,6.8274,6.9082,7.011,7.0991,7.1747,7.1747,7.2041,7.2496,7.2496,7.2496,7.2496,7.2496,7.2496,7.2496,7.2496,7.2496,7.2496,7.2496,7.2496,7.2569,7.2863,7.3487,7.4258,7.4757,7.5469,7.6276,7.7069,7.7289,7.7289,7.7289,7.7289,7.6885,7.527,7.4133,7.323,7.2642,7.2078,7.1674,7.1344,7.0243,6.9265,6.8958,6.6866,6.5288,6.5288,0.0,0.0,0.0,0.0,0.0,0.0,5.7053,5.7997,0.0,0.0,0.0,0.0,0.0,0.0,5.7226,5.9416,0.0,6.2793,6.5081,6.71,6.8921,7.0954,7.2973,7.494,7.6555,7.806,7.925,7.7913,7.806,7.9192,7.7304,7.6848,7.7252,7.6738,7.6848,7.7289,7.7289,7.7289,7.7289,7.2496,7.2496,7.2789,0.0,7.3795,0.0,7.5946,7.6166,7.6445,7.7215,7.7289,7.7289,7.7289,7.7289,7.6995,7.624,0.0,0.0,0.0,7.3795,7.3377,7.2532,7.2496,7.2496,7.2496,7.1784,7.1344,7.1307,7.0477,7.011,7.0183,7.0183,7.0624,7.138,7.138,7.1784,7.2496,7.2569,7.2569,7.2569,7.2569,7.2569,7.2569,7.2532,7.2496,7.2496,7.2496,7.2496,7.2496,7.2496,7.2496,7.2642,7.345,7.4258,7.4903,7.4977,7.5542,7.635,7.7105,7.7289,7.7289,7.7289,7.7252,7.6812,7.5307,7.494,7.4463,7.2899,7.2569,7.2349,7.1527,7.0697,6.9853,6.9045,6.6866,6.5288,6.5215,0.0,0.0,0.0,0.0,0.0,0.0,5.7531,5.851,0.0,0.0,0.0,0.0,0.0,5.7508,5.8217,6.1215,6.2866,6.305,6.6145,6.8201,6.9178,7.3068,7.494,7.505,7.6592,7.7766,7.8552,7.7693,7.7803,7.8516,7.7656,7.7289,7.7289,7.7289,7.7289,7.7289,7.7289,7.7289,7.7289,0.0,0.0,7.2973,7.4368,7.4625,7.516,7.6775,7.7032,7.7069,7.7289,7.7289,7.7289,7.7289,7.7289,7.7215,7.7032,7.7032,7.6335,7.472,7.4625,7.3986,7.2569,7.2496,7.2496,7.2496,7.2312,7.1931,7.1307,7.0477,7.0403,7.1013,7.1013,7.1454,7.2224,7.2224,7.2312,7.2532,7.3156,7.3413,7.3413,7.3413,7.3413,7.334,7.2716,7.2496,7.2496,7.2496,7.2496,7.2496,7.2496,7.2496,7.2642,7.345,7.4258,7.5014,7.5652,7.6371,7.7069,7.7252,7.7289,7.7289,7.7289,7.6848,7.6276,7.5909,7.5344,7.461,7.3634,7.3413,7.3156,7.2349,7.1064,6.9853,6.9045,6.6866,6.5081,6.4457,6.2071,0.0,0.0,6.0382,6.0603,6.0211,6.2254,6.3563,0.0,0.0,0.0,0.0,6.1851,6.119,6.075,6.2059,6.371,6.5595,6.7003,6.9022,7.1688,7.3839,7.5197,7.5836,7.6848,7.7766,7.8552,7.7693,7.7803,7.8516,7.7656,7.7289,7.7289,7.7289,7.7289,7.7289,7.7289,7.7289,7.7289,7.3597,7.3597,7.3876,7.4757,7.4903,7.5307,7.6555,7.6738,7.6885,7.7252,7.7289,7.7289,7.7289,7.7289,7.7289,7.7289,7.7289,7.6775,7.5542,7.5087,7.4353,7.3083,7.2716,7.2496,7.2496,7.2496,7.2312,7.1857,7.1394,7.1431,7.1857,7.1857,7.2078,7.2496,7.2496,7.2716,7.3083,7.3487,7.3891,7.4258,7.4258,7.4037,7.3648,7.3193,7.2826,7.2496,7.2496,7.2496,7.2496,7.2496,7.2496,7.2716,7.3891,7.4551,7.5124,7.6298,7.6959,7.7289,7.7289,7.7289,7.7289,7.7289,7.6959,7.6555,7.6166,7.5763,7.5212,7.4404,7.3964,7.356,7.312,7.1431,6.9853,6.9045,6.6866,6.5007,6.4213,6.1961,0.0,6.0896,6.1337,6.19,6.2671,6.464,6.5852,6.5852,6.5007,0.0,6.464,6.4567,6.3943,6.2781,6.4237,6.5705,6.7026,6.8949,7.0954,7.3083,7.4698,7.5689,7.613,7.6922,7.7546,7.7986,7.7509,7.7582,7.7949,7.7509,7.7289,7.7289,7.7289,7.7289,7.7289,7.7289,7.7289,7.7289,7.4903,7.4903,7.494,7.505,7.5087,7.5344,7.6166,7.6276,7.6518,7.7215,7.7289,7.7289,7.7289,7.7289,7.7289,7.7289,7.7289,7.6959,7.6166,7.5454,7.4661,7.3744,7.3046,7.2606,7.2496,7.2496,7.2496,7.2496,7.2496,7.2496,7.2496,7.2496,7.2496,7.2496,7.2642,7.3046,7.3707,7.3964,7.4441,7.5087,7.5087,7.4661,7.4037,7.3927,7.345,7.2863,7.2863,7.2863,7.2863,7.2863,7.2863,7.312,7.461,7.5087,7.538,7.6848,7.7289,7.7289,7.7289,7.7289,7.7289,7.7289,7.7289,7.7142,7.646,7.6276,7.6056,7.5234,7.4551,7.4001,7.3744,7.1835,6.9963,6.9045,6.6756,6.4897,6.4213,0.0,6.1117,6.2034,6.2377,6.3148,6.4677,6.6182,6.7026,6.7026,6.7026,6.6769,6.6059,6.6659,6.6402,6.5057,6.6893,6.7994,6.8251,7.1174,7.3083,7.3891,7.5395,7.6166,7.6313,7.6995,7.7289,7.7289,7.7289,7.7289,7.7289,7.7289,7.7289,7.7289,7.7289,7.7289,7.7289,7.7289,7.7289,7.7289,7.4903,7.4903,7.5124,7.5799,7.5909,7.6203,7.6995,7.7105,7.7179,7.7289,7.7289,7.7289,7.7289,7.7289,7.7289,7.7289,7.7289,7.6959,7.6166,7.5983,7.5249,7.3758,7.356,7.3193,7.2496,7.2496,7.2496,7.2496,7.2496,7.2496,7.2496,7.2496,7.2496,7.2532,7.3193,7.356,7.3795,7.5139,7.5799,7.5909,7.5909,7.5836,7.5652,7.4992,7.4647,7.4536,7.4536,7.4536,7.4536,7.4536,7.4536,7.4683,7.5616,7.5909,7.6093,7.7032,7.7289,7.7289,7.7289,7.7289,7.7289,7.7289,7.7289,7.7289,7.7142,7.7105,7.6885,7.6093,7.5799,7.5322,7.3942,7.2275,7.061,6.9142,6.6292,6.4249,6.4139,0.0,6.3013,6.4554,6.5925,6.71,6.8054,6.9009,6.9522,6.9522,6.9522,6.9486,6.9376,6.9486,6.9412,6.9155,6.8862,6.9376,7.072,7.2569,7.3927,7.472,7.5652,7.646,7.7105,7.7252,7.7289,7.7289,7.7289,7.7289,7.7289,7.7289,7.7289,7.7289,7.7289,7.7289,7.7289,7.7289,7.7289,7.7289,7.6188,7.6188,7.6298,7.6665,7.6738,7.6885,7.7252,7.7289,7.7289,7.7289,7.7289,7.7289,7.7289,7.7289,7.7289,7.7289,7.7289,7.7142,7.6775,7.635,7.5763,7.5028,7.4588,7.3964,7.3156,7.2716,7.2496,7.2496,7.2496,7.2496,7.2496,7.2496,7.2716,7.3156,7.3538,7.4184,7.5028,7.5763,7.635,7.6738,7.6738,7.6497,7.6056,7.5689,7.527,7.4903,7.4903,7.4903,7.4903,7.4903,7.4903,7.505,7.5836,7.6093,7.6276,7.7069,7.7289,7.7289,7.7289,7.7289,7.7289,7.7289,7.7289,7.7289,7.7289,7.7289,7.7179,7.6812,7.6423,7.5726,7.4551,7.3046,7.127,6.9215,6.7283,0.0,0.0,6.4787,6.5228,6.6439,6.7614,6.8825,7.0059,7.0536,7.0917,7.1358,7.0991,7.077,7.077,7.077,7.077,7.077,7.0389,7.0977,7.2569,7.378,7.4771,7.5579,7.6371,7.6922,7.7289,7.7289,7.7289,7.7289,7.7289,7.7289,7.7289,7.7289,7.7289,7.7289,7.7289,7.7289,7.7289,7.7289,7.7289,7.7289,7.7289,7.7289,7.7289,7.7289,7.7289,7.7289,7.7289,7.7289,7.7289,7.7289,7.7289,7.7289,7.7289,7.7289,7.7289,7.7289,7.7289,7.7289,7.7289,7.6702,7.6313,7.6093,7.5322,7.461,7.4001,7.3377,7.3083,7.3083,7.3083,7.3083,7.3083,7.3083,7.3377,7.4001,7.4147,7.4955,7.613,7.6313,7.6738,7.7289,7.7289,7.6922,7.6387,7.6387,7.6004,7.5454,7.5454,7.5454,7.5454,7.5454,7.5454,7.5564,7.6203,7.6387,7.6481,7.7105,7.7289,7.7289,7.7289,7.7289,7.7362,7.7546,7.7582,7.7656,7.7839,7.7876,7.7876,7.7876,7.7231,7.6423,7.5601,7.4001,7.2129,7.0073,0.0,0.0,0.0,6.6512,6.7136,6.8141,6.8972,7.0096,7.1711,7.1857,7.2188,7.301,7.2481,7.2151,7.2151,7.2151,7.2151,7.2151,7.1967,7.2532,7.3964,7.4771,7.5491,7.6093,7.6922,7.7289,7.7289,7.7289,7.7289,7.7289,7.7289,7.7289,7.7289,7.7289,7.7289,7.7289,7.7289,7.7289,7.7289,7.7289,7.7289,7.7326,7.7289,7.7289,7.7289,7.7289,7.7289,7.7289,7.7289,7.7289,7.7289,7.7289,7.7289,7.7289,7.7289,7.7289,7.7289,7.7289,7.7289,7.7289,7.7289,7.7252,7.6885,7.613,7.5322,7.4867,7.4793,7.4757,7.472,7.472,7.472,7.472,7.472,7.472,7.4757,7.483,7.5579,7.5983,7.6166,7.6885,7.7252,7.7289,7.7289,7.7252,7.7215,7.7215,7.7179,7.7142,7.7142,7.7142,7.7142,7.7142,7.7142,7.7142,7.7179,7.7215,7.7215,7.7289,7.7289,7.7289,7.7289,7.7289,7.7509,7.8295,7.8516,7.8699,7.9449,7.9633,7.9633,7.9633,7.8972,7.8148,7.7289,7.5212,7.3303,7.2386,0.0,0.0,6.8568,6.8017,6.8178,6.9756,7.061,7.1747,7.3377,7.3523,7.3854,7.4647,7.4683,7.461,7.461,7.461,7.461,7.461,7.3927,7.3927,7.4793,7.5616,7.6056,7.6093,7.6922,7.7289,7.7289,7.7289,7.7289,7.7289,7.7289,7.7289,7.7289,7.7289,7.7289,7.7289,7.7289,7.7289,7.7289,7.7289,7.7289,7.7436,7.7289,7.7289,7.7289,7.7289,7.7289,7.7289,7.7289,7.7289,7.7289,7.7289,7.7289,7.7289,7.7289,7.7289,7.7289,7.7289,7.7289,7.7289,7.7289,7.7289,7.7179,7.6848,7.6093,7.5652,7.5652,7.516,7.4903,7.4903,7.4903,7.4903,7.4903,7.4903,7.516,7.5652,7.5946,7.6387,7.6848,7.7179,7.7289,7.7289,7.7289,7.7289,7.7289,7.7289,7.7289,7.7289,7.7289,7.7289,7.7289,7.7289,7.7289,7.7289,7.7289,7.7289,7.7399,7.7949,7.8112,7.8222,7.8699,7.8479,7.8185,7.8516,7.8993,7.9412,7.9743,7.9816,7.9816,7.9816,7.9559,7.8919,7.7546,7.6555,7.5359,7.3523,0.0,7.1358,7.1174,7.1284,7.1666,7.2239,7.3046,7.3766,7.4368,7.4441,7.4771,7.5579,7.516,7.5124,7.5616,7.516,7.5124,7.5616,7.5359,7.5322,7.5652,7.5946,7.635,7.6848,7.7142,7.7289,7.7289,7.7289,7.7289,7.7289,7.7289,7.7289,7.7289,7.7289,7.7289,7.7289,7.7289,7.7289,7.7289,7.7289,7.7289,7.7436,7.7289,7.7289,7.7289,7.7289,7.7289,7.7289,7.7289,7.7289,7.7289,7.7289,7.7289,7.7289,7.7289,7.7289,7.7289,7.7289,7.7289,7.7289,7.7289,7.7289,7.7289,7.7289,7.6775,7.6497,7.6497,7.5931,7.5637,7.5637,7.5637,7.5637,7.5637,7.5637,7.5931,7.6497,7.6497,7.6775,7.7289,7.7289,7.7289,7.7289,7.7289,7.7289,7.7289,7.7289,7.7289,7.7289,7.7289,7.7289,7.7289,7.7289,7.7289,7.7289,7.7289,7.7289,7.7472,7.8332,7.8589,7.8772,7.9596,7.9596,7.936,7.936,7.9764,8.0257,8.0514,8.055,8.055,8.055,8.0367,7.9837,7.8683,7.7839,7.6775,7.5102,7.4404,7.3891,7.334,7.3744,7.4074,7.4074,7.4551,7.5014,7.5234,7.527,7.5601,7.6408,7.5968,7.5894,7.6445,7.5931,7.5894,7.646,7.6497,7.6497,7.6497,7.6497,7.6738,7.7289,7.7289,7.7289,7.7289,7.7289,7.7289,7.7289,7.7289,7.7289,7.7289,7.7289,7.7289,7.7289,7.7289,7.7289,7.7289,7.7289,7.7289,7.7472,7.7289,7.7289,7.7289,7.7289,7.7289,7.7289,7.7289,7.7289,7.7289,7.7289,7.7289,7.7289,7.7289,7.7289,7.7289,7.7289,7.7289,7.7289,7.7289,7.7289,7.7289,7.7289,7.7289,7.7289,7.7289,7.7289,7.7289,7.7289,7.7289,7.7289,7.7289,7.7289,7.7289,7.7289,7.7289,7.7289,7.7289,7.7289,7.7289,7.7289,7.7289,7.7289,7.7289,7.7289,7.7289,7.7289,7.7289,7.7289,7.7289,7.7289,7.7289,7.7289,7.7326,7.7326,7.7509,7.8369,7.8626,7.8772,7.9596,8.0388,8.1012,8.1012,8.1012,8.1232,8.2003,8.2186,8.2186,8.2186,8.1562,8.1012,8.1012,7.8977,7.7326,7.7326,7.5968,7.4903,7.4903,7.4903,7.4903,7.4903,7.4903,7.5234,7.6019,7.6093,7.646,7.7252,7.7289,7.7289,7.7289,7.7289,7.7289,7.7289,7.7289,7.7289,7.7289,7.7289,7.7289,7.7289,7.7289,7.7289,7.7289,7.7289,7.7289,7.7289,7.7289,7.7289,7.7289,7.7289,7.7289,7.7289,7.7289,7.7289,7.7289,7.7289,7.7289,7.7546,7.7289,7.7289,7.7289,7.7289,7.7289,7.7289,7.7289,7.7289,7.7289,7.7289,7.7289,7.7289,7.7289,7.7289,7.7289,7.7289,7.7289,7.7289,7.7289,7.7289,7.7289,7.7289,7.7289,7.7289,7.7289,7.7289,7.7289,7.7289,7.7289,7.7289,7.7289,7.7289,7.7289,7.7289,7.7289,7.7289,7.7289,7.7289,7.7289,7.7289,7.7289,7.7289,7.7289,7.7289,7.7289,7.7289,7.7289,7.7289,7.7289,7.7289,7.7289,7.7399,7.8038,7.8589,7.9213,8.0057,8.0277,8.0461,8.1269,8.1636,8.1709,8.1158,8.1415,8.1893,8.215,8.2186,8.2186,8.2186,8.2003,8.1672,8.1122,7.9947,7.8883,7.8295,7.7289,7.6592,7.6592,7.6592,7.6592,7.6592,7.6592,7.6665,7.6922,7.6922,7.7032,7.7289,7.7289,7.7289,7.7289,7.7289,7.7289,7.7289,7.7289,7.7289,7.7289,7.7289,7.7289,7.7289,7.7289,7.7289,7.7289,7.7289,7.7289,7.7289,7.7289,7.7289,7.7289,7.7289,7.7289,7.7289,7.7289,7.7289,7.7289,7.7289,7.7289,7.7546,7.7289,7.7289,7.7289,7.7289,7.7289,7.7289,7.7289,7.7289,7.7289,7.7289,7.7289,7.7289,7.7289,7.7289,7.7289,7.7289,7.7289,7.7289,7.7289,7.7289,7.7289,7.7289,7.7289,7.7289,7.7289,7.7289,7.7289,7.7289,7.7289,7.7289,7.7289,7.7289,7.7289,7.7289,7.7289,7.7289,7.7289,7.7289,7.7289,7.7289,7.7289,7.7289,7.7289,7.7289,7.7289,7.7362,7.7693,7.7803,7.7839,7.817,7.828,7.8369,7.8919,7.9412,7.9963,8.0755,8.1012,8.1195,8.1966,8.2186,8.2076,8.1599,8.1819,8.2186,8.2186,8.2186,8.2186,8.2186,8.2186,8.2039,8.1562,8.0571,7.9633,7.9155,7.8075,7.7289,7.7289,7.7289,7.7289,7.7289,7.7289,7.7289,7.7289,7.7289,7.7289,7.7289,7.7289,7.7289,7.7289,7.7289,7.7289,7.7289,7.7289,7.7289,7.7289,7.7289,7.7289,7.7289,7.7289,7.7289,7.7289,7.7289,7.7289,7.7289,7.7289,7.7289,7.7289,7.7289,7.7289,7.7289,7.7289,7.7289,7.7289,7.7289,7.7509,7.7986,7.7289,7.7289,7.7289,7.7289,7.7289,7.7289,7.7289,7.7289,7.7289,7.7289,7.7289,7.7289,7.7289,7.7289,7.7289,7.7289,7.7289,7.7289,7.7289,7.7289,7.7289,7.7289,7.7289,7.7289,7.7289,7.7289,7.7289,7.7289,7.7289,7.7289,7.7289,7.7289,7.7289,7.7289,7.7289,7.7289,7.7289,7.7289,7.7289,7.7289,7.7289,7.7289,7.7289,7.7289,7.7362,7.7509,7.8332,7.8662,7.8809,7.9559,7.9853,7.9926,7.9926,7.9963,8.0147,8.0901,8.1122,8.1269,8.2003,8.2186,8.2186,8.2186,8.2186,8.2186,8.2186,8.2186,8.2186,8.2186,8.2186,8.2186,8.2186,8.0881,7.9816,7.9816,7.8405,7.7289,7.7289,7.7289,7.7289,7.7289,7.7289,7.7289,7.7289,7.7289,7.7289,7.7289,7.7289,7.7289,7.7289,7.7289,7.7289,7.7289,7.7289,7.7289,7.7289,7.7289,7.7289,7.7289,7.7289,7.7289,7.7289,7.7289,7.7289,7.7289,7.7289,7.7289,7.7289,7.7289,7.7289,7.7289,7.7289,7.7289,7.7289,7.7289,7.7839,7.8736,7.7289,7.7289,7.7289,7.7289,7.7289,7.7289,7.7289,7.7289,7.7289,7.7289,7.7289,7.7289,7.7289,7.7289,7.7289,7.7289,7.7289,7.7289,7.7289,7.7289,7.7289,7.7289,7.7289,7.7289,7.7289,7.7289,7.7289,7.7289,7.7289,7.7289,7.7289,7.7289,7.7289,7.7289,7.7289,7.7289,7.7289,7.7289,7.7289,7.7289,7.7289,7.7289,7.7289,7.7289,7.7729,7.8332,7.8516,7.8993,7.9559,7.9743,8.022,8.0755,8.0755,8.1158,8.1709,8.1893,8.1929,8.1966,8.215,8.2186,8.2186,8.2186,8.2186,8.2186,8.2186,8.2186,8.2186,8.2186,8.2186,8.2186,8.2186,8.0881,7.9816,7.9816,7.8405,7.7289,7.7289,7.7289,7.7289,7.7289,7.7289,7.7289,7.7289,7.7289,7.7289,7.7289,7.7289,7.7289,7.7289,7.7289,7.7289,7.7289,7.7289,7.7289,7.7289,7.7289,7.7289,7.7289,7.7289,7.7289,7.7289,7.7289,7.7289,7.7289,7.7289,7.7289,7.7289,7.7289,7.7289,7.7289,7.7289,7.7289,7.7289,7.7289,7.7839,7.8809,7.7289,7.7289,7.7289,7.7289,7.7289,7.7289,7.7289,7.7289,7.7289,7.7289,7.7289,7.7289,7.7289,7.7289,7.7289,7.7289,7.7289,7.7289,7.7289,7.7289,7.7289,7.7289,7.7289,7.7289,7.7289,7.7289,7.7289,7.7289,7.7289,7.7289,7.7289,7.7289,7.7289,7.7289,7.7289,7.7289,7.7289,7.7289,7.7289,7.7289,7.7289,7.7289,7.7362,7.7766,7.8222,7.8699,7.947,8.0241,8.0954,8.0954,8.1232,8.1562,8.1562,8.1856,8.2186,8.2186,8.2186,8.2186,8.2186,8.2186,8.2186,8.2186,8.2186,8.2186,8.2186,8.2186,8.2186,8.2186,8.2186,8.2186,8.2186,8.0881,7.9816,7.9816,7.8405,7.7289,7.7289,7.7289,7.7289,7.7289,7.7289,7.7289,7.7289,7.7289,7.7289,7.7289,7.7289,7.7289,7.7289,7.7289,7.7289,7.7289,7.7289,7.7289,7.7289,7.7289,7.7289,7.7289,7.7289,7.7289,7.7289,7.7289,7.7289,7.7289,7.7289,7.7289,7.7289,7.7289,7.7289,7.7289,7.7289,7.7289,7.7289,7.7289,7.8096,7.9396,7.7289,7.7289,7.7289,7.7289,7.7289,7.7289,7.7289,7.7289,7.7289,7.7289,7.7289,7.7289,7.7289,7.7289,7.7289,7.7289,7.7289,7.7289,7.7289,7.7289,7.7289,7.7289,7.7289,7.7289,7.7289,7.7289,7.7289,7.7289,7.7289,7.7289,7.7289,7.7289,7.7289,7.7289,7.7289,7.7289,7.7289,7.7289,7.7289,7.7289,7.7289,7.7289,7.7399,7.8259,7.8699,7.8993,8.0461,8.1525,8.2186,8.2186,8.2186,8.2186,8.2186,8.2186,8.2186,8.2186,8.2186,8.2186,8.2186,8.2186,8.2186,8.2186,8.2186,8.2186,8.2186,8.2186,8.2186,8.2186,8.2186,8.2186,8.2186,8.0991,7.9963,7.9816,7.8516,7.7472,7.7326,7.7289,7.7289,7.7289,7.7289,7.7289,7.7289,7.7289,7.7289,7.7289,7.7289,7.7289,7.7289,7.7289,7.7289,7.7289,7.7289,7.7289,7.7289,7.7289,7.7289,7.7289,7.7289,7.7289,7.7289,7.7289,7.7289,7.7289,7.7289,7.7289,7.7289,7.7289,7.7289,7.7289,7.7289,7.7399,7.7546,7.7839,7.8809,8.022,7.7289,7.7289,7.7289,7.7289,7.7289,7.7289,7.7289,7.7289,7.7289,7.7289,7.7289,7.7289,7.7289,7.7289,7.7289,7.7289,7.7289,7.7289,7.7289,7.7289,7.7289,7.7289,7.7289,7.7289,7.7289,7.7289,7.7289,7.7289,7.7289,7.7289,7.7289,7.7289,7.7289,7.7289,7.7289,7.7289,7.7289,7.7289,7.7289,7.7289,7.7289,7.7289,7.7399,7.8259,7.9045,7.9779,8.0681,8.1525,8.2186,8.2186,8.2186,8.2186,8.2186,8.2186,8.2186,8.2186,8.2186,8.2186,8.2186,8.2186,8.2186,8.2186,8.2186,8.2186,8.2186,8.2186,8.2186,8.2186,8.2186,8.2186,8.2186,8.1452,8.0608,7.9926,7.9045,7.8148,7.7399,7.7289,7.7289,7.7289,7.7289,7.7289,7.7289,7.7289,7.7289,7.7289,7.7289,7.7289,7.7289,7.7289,7.7289,7.7289,7.7289,7.7289,7.7289,7.7289,7.7289,7.7289,7.7289,7.7289,7.7289,7.7289,7.7289,7.7289,7.7289,7.7289,7.7289,7.7289,7.7289,7.7289,7.7289,7.7766,7.8589,7.9984,8.0645,8.0975,7.7304,7.7289,7.7289,7.7289,7.7289,7.7289,7.7289,7.7289,7.7289,7.7289,7.7289,7.7289,7.7289,7.7289,7.7289,7.7289,7.7289,7.7289,7.7289,7.7289,7.7289,7.7289,7.7289,7.7289,7.7289,7.7289,7.7289,7.7289,7.7289,7.7289,7.7289,7.7289,7.7289,7.7289,7.7289,7.7289,7.7289,7.7289,7.7289,7.7289,7.7289,7.7289,7.7399,7.8259,7.9103,7.9963,8.1232,8.1893,8.2186,8.2186,8.2186,8.2186,8.2186,8.2186,8.2186,8.2186,8.2186,8.2186,8.2186,8.2186,8.2186,8.2186,8.2186,8.2186,8.2186,8.2186,8.2186,8.2186,8.2186,8.2186,8.2186,8.1525,8.0755,7.9926,7.9119,7.8295,7.7436,7.7289,7.7289,7.7289,7.7289,7.7289,7.7289,7.7289,7.7289,7.7289,7.7289,7.7289,7.7289,7.7289,7.7289,7.7289,7.7289,7.7289,7.7289,7.7289,7.7289,7.7289,7.7289,7.7289,7.7289,7.7289,7.7289,7.7289,7.7289,7.7289,7.7289,7.7289,7.7289,7.7289,7.7289,7.7839,7.8772,8.0424,8.1012,8.1122]}]]